[[{"header":{"parameterUnit":"m.s-1","parameterCategory":1,"la1":30.6,"la2":28.766,"lo1":-90.7593,"lo2":-88.6598,"dy":0.0162,"dx":0.0183,"nx":116,"ny":114,"refTime":"2023-03-10T06:00:00:Z","depth":0,"parameterNumber":2,"parameterNumberName":"U-component_of_WINDS"},"data":[0.0,0.0,0.0,0.0,0.0,0.0,0.0,0.0,0.0,0.0,0.0,0.0,0.0,0.0,0.0,0.0,0.0,0.0,0.0,0.0,0.0,0.0,0.0,0.0,0.0,0.0,0.0,0.0,0.0,0.0,0.0,0.0,0.0,0.0,0.0,0.0,0.0,0.0,0.0,0.0,0.0,0.0,0.0,0.0,0.0,0.0,0.0,0.0,0.0,0.0,0.0,0.0,0.0,0.0,0.0,0.0,0.0,0.0,0.0,0.0,0.0,0.0,0.0,0.0,0.0,0.0,0.0,0.0,0.0,0.0,0.0,0.0,0.0,0.0,0.0,0.0,0.0,0.0,0.0,0.0,0.0,0.0,0.0,0.0,0.0,0.0,0.0,0.0,0.0,0.0,0.0,0.0,0.0,0.0,0.0,0.0,0.0,0.0,0.0,0.0,0.0,0.0,0.0,0.0,0.0,0.0,0.0,0.0,0.0,0.0,0.0,0.0,0.0,0.0,0.0,0.0,0.0,0.0,0.0,0.0,0.0,0.0,0.0,0.0,0.0,0.0,0.0,0.0,0.0,0.0,0.0,0.0,0.0,0.0,0.0,0.0,0.0,0.0,0.0,0.0,0.0,0.0,0.0,0.0,0.0,0.0,0.0,0.0,0.0,0.0,0.0,0.0,0.0,0.0,0.0,0.0,0.0,0.0,0.0,0.0,0.0,0.0,0.0,0.0,0.0,0.0,0.0,0.0,0.0,0.0,0.0,0.0,0.0,0.0,0.0,0.0,0.0,0.0,0.0,0.0,0.0,0.0,0.0,0.0,0.0,0.0,0.0,0.0,0.0,0.0,0.0,0.0,0.0,0.0,0.0,0.0,0.0,0.0,0.0,0.0,0.0,0.0,0.0,0.0,0.0,0.0,0.0,0.0,0.0,0.0,0.0,0.0,0.0,0.0,0.0,0.0,0.0,0.0,0.0,0.0,0.0,0.0,0.0,0.0,0.0,0.0,0.0,0.0,0.0,0.0,0.0,0.0,0.0,0.0,0.0,0.0,0.0,0.0,0.0,0.0,0.0,0.0,0.0,0.0,0.0,0.0,0.0,0.0,0.0,0.0,0.0,0.0,0.0,0.0,0.0,0.0,0.0,0.0,0.0,0.0,0.0,0.0,0.0,0.0,0.0,0.0,0.0,0.0,0.0,0.0,0.0,0.0,0.0,0.0,0.0,0.0,0.0,0.0,0.0,0.0,0.0,0.0,0.0,0.0,0.0,0.0,0.0,0.0,0.0,0.0,0.0,0.0,0.0,0.0,0.0,0.0,0.0,0.0,0.0,0.0,0.0,0.0,0.0,0.0,0.0,0.0,0.0,0.0,0.0,0.0,0.0,0.0,0.0,0.0,0.0,0.0,0.0,0.0,0.0,0.0,0.0,0.0,0.0,0.0,0.0,0.0,0.0,0.0,0.0,0.0,0.0,0.0,0.0,0.0,0.0,0.0,0.0,0.0,0.0,0.0,0.0,0.0,0.0,0.0,0.0,0.0,0.0,0.0,0.0,0.0,0.0,0.0,0.0,0.0,0.0,0.0,0.0,0.0,0.0,0.0,0.0,0.0,0.0,0.0,0.0,0.0,0.0,0.0,0.0,0.0,0.0,0.0,0.0,0.0,0.0,0.0,0.0,0.0,0.0,0.0,0.0,0.0,0.0,0.0,0.0,0.0,0.0,0.0,0.0,0.0,0.0,0.0,0.0,0.0,0.0,0.0,0.0,0.0,0.0,0.0,0.0,0.0,0.0,0.0,0.0,0.0,0.0,0.0,0.0,0.0,0.0,0.0,0.0,0.0,0.0,0.0,0.0,0.0,0.0,0.0,0.0,0.0,0.0,0.0,0.0,0.0,0.0,0.0,0.0,0.0,0.0,0.0,0.0,0.0,0.0,0.0,0.0,0.0,0.0,0.0,0.0,0.0,0.0,0.0,0.0,0.0,0.0,0.0,0.0,0.0,0.0,0.0,0.0,0.0,0.0,0.0,0.0,0.0,0.0,0.0,0.0,0.0,0.0,0.0,0.0,0.0,0.0,0.0,0.0,0.0,0.0,0.0,0.0,0.0,0.0,0.0,0.0,0.0,0.0,0.0,0.0,0.0,0.0,0.0,0.0,0.0,0.0,0.0,0.0,0.0,0.0,0.0,0.0,0.0,0.0,0.0,0.0,0.0,0.0,0.0,0.0,0.0,0.0,0.0,0.0,0.0,0.0,0.0,0.0,0.0,0.0,0.0,0.0,0.0,0.0,0.0,0.0,0.0,0.0,0.0,0.0,0.0,0.0,0.0,0.0,0.0,0.0,0.0,0.0,0.0,0.0,0.0,0.0,0.0,0.0,0.0,0.0,0.0,0.0,0.0,0.0,0.0,0.0,0.0,0.0,0.0,0.0,0.0,0.0,0.0,0.0,0.0,0.0,0.0,0.0,0.0,0.0,0.0,0.0,0.0,0.0,0.0,0.0,0.0,0.0,0.0,0.0,0.0,0.0,0.0,0.0,0.0,0.0,0.0,0.0,0.0,0.0,0.0,0.0,0.0,0.0,0.0,0.0,0.0,0.0,0.0,0.0,0.0,0.0,0.0,0.0,0.0,0.0,0.0,0.0,0.0,0.0,0.0,0.0,0.0,0.0,0.0,0.0,0.0,0.0,0.0,0.0,0.0,0.0,0.0,0.0,0.0,0.0,0.0,0.0,0.0,0.0,0.0,0.0,0.0,0.0,0.0,0.0,0.0,0.0,0.0,0.0,0.0,0.0,0.0,0.0,0.0,0.0,0.0,0.0,0.0,0.0,0.0,0.0,0.0,0.0,0.0,0.0,0.0,0.0,0.0,0.0,0.0,0.0,0.0,0.0,0.0,0.0,0.0,0.0,0.0,0.0,0.0,0.0,0.0,0.0,0.0,0.0,0.0,0.0,0.0,0.0,0.0,0.0,0.0,0.0,0.0,0.0,0.0,0.0,0.0,0.0,0.0,0.0,0.0,0.0,0.0,0.0,0.0,0.0,0.0,0.0,0.0,0.0,0.0,0.0,0.0,0.0,0.0,0.0,0.0,0.0,0.0,0.0,0.0,0.0,0.0,0.0,0.0,0.0,0.0,0.0,0.0,0.0,0.0,0.0,0.0,0.0,0.0,0.0,0.0,0.0,0.0,0.0,0.0,0.0,0.0,0.0,0.0,0.0,0.0,0.0,0.0,0.0,0.0,0.0,0.0,0.0,0.0,0.0,0.0,0.0,0.0,0.0,0.0,0.0,0.0,0.0,0.0,0.0,0.0,0.0,0.0,0.0,0.0,0.0,0.0,0.0,0.0,0.0,0.0,0.0,0.0,0.0,0.0,0.0,0.0,0.0,0.0,0.0,0.0,0.0,0.0,0.0,0.0,0.0,0.0,0.0,0.0,0.0,0.0,0.0,0.0,0.0,0.0,0.0,0.0,0.0,0.0,0.0,0.0,0.0,0.0,0.0,0.0,0.0,0.0,0.0,0.0,0.0,0.0,0.0,0.0,0.0,0.0,0.0,0.0,0.0,0.0,0.0,0.0,0.0,0.0,0.0,0.0,0.0,0.0,0.0,0.0,0.0,0.0,0.0,0.0,0.0,0.0,0.0,0.0,0.0,0.0,0.0,0.0,0.0,0.0,0.0,0.0,0.0,0.0,0.0,0.0,0.0,0.0,0.0,0.0,0.0,0.0,0.0,0.0,0.0,0.0,0.0,0.0,0.0,0.0,0.0,0.0,0.0,0.0,0.0,0.0,0.0,0.0,0.0,0.0,0.0,0.0,0.0,0.0,0.0,0.0,0.0,0.0,0.0,0.0,0.0,0.0,0.0,0.0,0.0,0.0,0.0,0.0,0.0,0.0,0.0,0.0,0.0,0.0,0.0,0.0,0.0,0.0,0.0,0.0,0.0,0.0,0.0,0.0,0.0,0.0,0.0,0.0,0.0,0.0,0.0,0.0,0.0,0.0,0.0,0.0,0.0,0.0,0.0,0.0,0.0,0.0,0.0,0.0,0.0,0.0,0.0,0.0,0.0,0.0,0.0,0.0,0.0,0.0,0.0,0.0,0.0,0.0,0.0,0.0,0.0,0.0,0.0,0.0,0.0,0.0,0.0,0.0,0.0,0.0,0.0,0.0,0.0,0.0,0.0,0.0,0.0,0.0,0.0,0.0,0.0,0.0,0.0,0.0,0.0,0.0,0.0,0.0,0.0,0.0,0.0,0.0,0.0,0.0,0.0,0.0,0.0,0.0,0.0,0.0,0.0,0.0,0.0,0.0,0.0,0.0,0.0,0.0,0.0,0.0,0.0,0.0,0.0,0.0,0.0,0.0,0.0,0.0,0.0,0.0,0.0,0.0,0.0,0.0,0.0,0.0,0.0,0.0,0.0,0.0,0.0,0.0,0.0,0.0,0.0,0.0,0.0,0.0,0.0,0.0,0.0,0.0,0.0,0.0,0.0,0.0,0.0,0.0,0.0,0.0,0.0,0.0,0.0,0.0,0.0,0.0,0.0,0.0,0.0,0.0,0.0,0.0,0.0,0.0,0.0,0.0,0.0,0.0,0.0,0.0,0.0,0.0,0.0,0.0,0.0,0.0,0.0,0.0,0.0,0.0,0.0,0.0,0.0,0.0,0.0,0.0,0.0,0.0,0.0,0.0,0.0,0.0,0.0,0.0,0.0,0.0,0.0,0.0,0.0,0.0,0.0,0.0,0.0,0.0,0.0,0.0,0.0,0.0,0.0,0.0,0.0,0.0,0.0,0.0,0.0,0.0,0.0,0.0,0.0,0.0,0.0,0.0,0.0,0.0,0.0,0.0,0.0,0.0,0.0,0.0,0.0,0.0,0.0,0.0,0.0,0.0,0.0,0.0,0.0,0.0,0.0,0.0,0.0,0.0,0.0,0.0,0.0,0.0,0.0,0.0,0.0,0.0,0.0,0.0,0.0,0.0,0.0,0.0,0.0,0.0,0.0,0.0,0.0,0.0,0.0,0.0,0.0,0.0,0.0,0.0,0.0,0.0,0.0,0.0,0.0,0.0,0.0,0.0,0.0,0.0,0.0,0.0,0.0,0.0,0.0,0.0,0.0,0.0,0.0,0.0,0.0,0.0,0.0,0.0,0.0,0.0,0.0,0.0,0.0,0.0,0.0,0.0,0.0,0.0,0.0,0.0,0.0,0.0,0.0,0.0,0.0,0.0,0.0,0.0,0.0,0.0,0.0,0.0,0.0,0.0,0.0,0.0,0.0,0.0,0.0,0.0,0.0,0.0,0.0,0.0,0.0,0.0,0.0,0.0,0.0,0.0,0.0,0.0,0.0,0.0,0.0,0.0,0.0,0.0,0.0,0.0,0.0,0.0,0.0,0.0,0.0,0.0,0.0,0.0,0.0,0.0,0.0,0.0,0.0,0.0,0.0,0.0,0.0,0.0,0.0,0.0,0.0,0.0,0.0,0.0,0.0,0.0,0.0,0.0,0.0,0.0,0.0,0.0,0.0,0.0,0.0,0.0,0.0,0.0,0.0,0.0,0.0,0.0,0.0,0.0,0.0,0.0,0.0,0.0,0.0,0.0,0.0,0.0,0.0,0.0,0.0,0.0,0.0,0.0,0.0,0.0,0.0,0.0,0.0,0.0,0.0,0.0,0.0,0.0,0.0,0.0,0.0,0.0,0.0,0.0,0.0,0.0,0.0,0.0,0.0,0.0,0.0,0.0,0.0,0.0,0.0,0.0,0.0,0.0,0.0,0.0,0.0,0.0,0.0,0.0,0.0,0.0,0.0,0.0,0.0,0.0,0.0,0.0,0.0,0.0,0.0,0.0,0.0,0.0,0.0,0.0,0.0,0.0,0.0,0.0,0.0,0.0,0.0,0.0,0.0,0.0,0.0,0.0,0.0,0.0,0.0,0.0,0.0,0.0,0.0,0.0,0.0,0.0,0.0,0.0,0.0,0.0,0.0,0.0,0.0,0.0,0.0,0.0,0.0,0.0,0.0,0.0,0.0,0.0,0.0,0.0,0.0,0.0,0.0,0.0,0.0,0.0,0.0,0.0,0.0,0.0,0.0,0.0,0.0,0.0,0.0,0.0,-3.3284,-3.3433,0.0,0.0,0.0,0.0,0.0,0.0,0.0,0.0,0.0,0.0,0.0,0.0,0.0,0.0,0.0,0.0,0.0,0.0,0.0,0.0,0.0,0.0,0.0,0.0,0.0,0.0,0.0,0.0,0.0,0.0,0.0,0.0,0.0,0.0,0.0,0.0,0.0,0.0,0.0,0.0,0.0,0.0,0.0,0.0,0.0,0.0,0.0,0.0,0.0,0.0,0.0,0.0,0.0,0.0,0.0,0.0,0.0,0.0,0.0,0.0,0.0,0.0,0.0,0.0,0.0,0.0,0.0,0.0,0.0,0.0,0.0,0.0,0.0,0.0,0.0,0.0,0.0,0.0,0.0,0.0,0.0,0.0,0.0,0.0,0.0,0.0,0.0,0.0,0.0,0.0,0.0,0.0,0.0,0.0,0.0,0.0,0.0,0.0,0.0,0.0,0.0,0.0,0.0,0.0,0.0,0.0,0.0,0.0,0.0,0.0,0.0,0.0,0.0,0.0,-3.3916,-3.4019,0.0,0.0,0.0,0.0,0.0,0.0,0.0,0.0,0.0,0.0,0.0,0.0,0.0,0.0,0.0,0.0,0.0,0.0,0.0,0.0,0.0,0.0,0.0,0.0,-2.84,-2.8517,-2.9571,0.0,0.0,0.0,0.0,0.0,0.0,0.0,0.0,0.0,0.0,0.0,0.0,0.0,0.0,0.0,0.0,0.0,0.0,0.0,0.0,0.0,0.0,0.0,0.0,0.0,0.0,0.0,0.0,0.0,0.0,0.0,0.0,0.0,0.0,0.0,0.0,0.0,0.0,0.0,0.0,0.0,0.0,0.0,0.0,0.0,0.0,0.0,0.0,0.0,0.0,0.0,0.0,0.0,0.0,0.0,0.0,0.0,0.0,0.0,0.0,0.0,0.0,0.0,0.0,0.0,0.0,0.0,0.0,0.0,0.0,0.0,0.0,0.0,0.0,0.0,0.0,0.0,0.0,0.0,0.0,0.0,-3.3747,-3.3758,-3.4438,-3.4317,-3.4259,-3.4275,-3.4275,-3.4399,-3.4578,-3.4535,0.0,0.0,0.0,0.0,0.0,0.0,0.0,0.0,0.0,0.0,0.0,0.0,0.0,0.0,0.0,0.0,0.0,0.0,0.0,0.0,0.0,-2.9418,-2.9969,-3.0557,-3.0966,-3.1214,0.0,0.0,0.0,0.0,0.0,0.0,0.0,0.0,0.0,0.0,0.0,-3.0587,-3.0909,-3.0824,-3.0831,-3.107,-3.2325,0.0,0.0,0.0,0.0,0.0,0.0,0.0,0.0,0.0,0.0,0.0,0.0,0.0,0.0,0.0,0.0,0.0,0.0,0.0,0.0,0.0,0.0,0.0,0.0,0.0,0.0,0.0,0.0,0.0,0.0,0.0,0.0,0.0,0.0,0.0,0.0,0.0,0.0,0.0,0.0,0.0,0.0,0.0,-3.2815,-3.2868,0.0,0.0,0.0,0.0,0.0,0.0,0.0,0.0,0.0,0.0,0.0,0.0,0.0,-3.3497,-3.2868,-3.3475,-3.3462,-3.2819,-3.27,-3.291,-3.3396,-3.3383,-3.3646,-3.4126,-3.4126,0.0,-3.4152,-3.3873,0.0,0.0,0.0,0.0,0.0,0.0,0.0,0.0,0.0,0.0,0.0,0.0,0.0,0.0,0.0,0.0,0.0,0.0,0.0,0.0,0.0,-2.9468,-2.9889,-3.0176,-3.0328,-3.0245,-2.9898,0.0,0.0,0.0,0.0,0.0,0.0,0.0,0.0,0.0,-3.0477,-3.0836,-3.0984,-3.0908,-3.0861,-3.0889,-3.1616,-3.1774,-3.1566,-3.1862,0.0,0.0,0.0,0.0,0.0,0.0,0.0,0.0,0.0,0.0,0.0,0.0,0.0,0.0,0.0,0.0,0.0,0.0,0.0,0.0,0.0,0.0,0.0,0.0,0.0,0.0,0.0,0.0,0.0,0.0,0.0,0.0,0.0,0.0,0.0,0.0,0.0,0.0,0.0,-3.2175,-3.2841,-3.2614,-3.3277,-3.3664,0.0,0.0,0.0,0.0,0.0,0.0,0.0,0.0,0.0,-3.1275,-3.2289,-3.266,-3.224,-3.2972,-3.3281,-3.3121,-3.304,-3.3099,-3.3308,-3.3238,-3.3188,-3.3166,-3.3465,-3.3413,-3.3161,-3.3695,-3.4056,-3.4341,0.0,0.0,0.0,0.0,-3.4078,-3.393,0.0,0.0,0.0,0.0,0.0,0.0,0.0,0.0,0.0,0.0,0.0,0.0,-2.8381,-2.8809,-2.9071,-2.9071,-2.9071,-2.8886,-2.8444,-2.8752,0.0,0.0,0.0,0.0,0.0,0.0,0.0,-2.9668,-3.0323,-3.0643,-3.0643,-3.0762,-3.0822,-3.0822,-3.094,-3.099,-3.1004,-3.0885,-3.0855,0.0,0.0,0.0,0.0,0.0,0.0,0.0,0.0,0.0,0.0,0.0,0.0,0.0,0.0,0.0,0.0,0.0,0.0,0.0,0.0,0.0,0.0,0.0,0.0,0.0,0.0,0.0,0.0,0.0,0.0,0.0,0.0,0.0,0.0,0.0,0.0,0.0,0.0,-3.1824,-3.2559,-3.2355,-3.2815,-3.3119,0.0,0.0,0.0,0.0,0.0,0.0,-3.1344,-3.1555,-3.1571,-3.1297,-3.1943,-3.2279,-3.2191,-3.2667,-3.3077,-3.3375,-3.3087,-3.305,-3.314,-3.2891,-3.2625,-3.2425,-3.2815,-3.2776,-3.2492,-3.3435,-3.3772,-3.3662,-3.3639,-3.3358,-3.2986,-3.2944,-3.2917,-3.2806,0.0,0.0,0.0,0.0,0.0,0.0,0.0,0.0,0.0,0.0,0.0,-2.6869,-2.7479,-2.7604,-2.7617,-2.7617,-2.7617,-2.7629,-2.7642,-2.7695,-2.7426,-2.6863,0.0,0.0,0.0,0.0,0.0,-2.878,-2.9369,-2.9665,-2.9665,-3.0144,-3.0357,-3.0342,-3.0792,-3.0905,-3.0712,-3.0709,-3.0863,-3.1033,0.0,0.0,0.0,0.0,0.0,0.0,0.0,0.0,0.0,0.0,0.0,0.0,0.0,0.0,0.0,0.0,0.0,0.0,0.0,0.0,0.0,0.0,0.0,0.0,0.0,0.0,0.0,0.0,0.0,0.0,0.0,0.0,0.0,0.0,0.0,0.0,0.0,0.0,0.0,-3.1553,-3.2092,0.0,0.0,0.0,0.0,-3.2161,-3.2756,-3.285,-3.2094,-3.2714,-3.2787,-3.2082,-3.2657,-3.2966,-3.2939,-3.2779,-3.2725,-3.2725,-3.2099,-3.2059,-3.2524,-3.1877,-3.1879,-3.2398,-3.2425,-3.241,-3.2434,-3.2924,-3.2883,-3.2458,-3.2363,-3.2347,-3.241,-3.221,-3.2167,-3.1936,0.0,0.0,0.0,0.0,0.0,0.0,0.0,0.0,0.0,-2.6039,-2.657,-2.6914,-2.6791,-2.6991,-2.7098,-2.7098,-2.7098,-2.6965,-2.6589,-2.6382,-2.5972,-2.5345,0.0,0.0,0.0,0.0,-2.7296,-2.7932,-2.8584,-2.8871,-2.8917,-2.9543,-2.9837,-2.9851,-3.0021,-3.0227,-3.0412,-3.029,-3.0468,-3.0792,-3.0155,-2.9921,0.0,0.0,0.0,0.0,0.0,0.0,0.0,0.0,0.0,0.0,0.0,0.0,0.0,0.0,0.0,0.0,0.0,0.0,0.0,0.0,0.0,0.0,0.0,0.0,0.0,0.0,0.0,0.0,0.0,0.0,0.0,0.0,0.0,0.0,0.0,0.0,0.0,-3.1467,-3.1697,0.0,-3.1436,-3.1827,-3.2013,-3.1726,-3.1967,-3.1998,-3.1713,-3.1954,-3.1954,-3.1599,-3.1799,-3.1807,-3.158,-3.1522,-3.1622,-3.1918,-3.1694,-3.1665,-3.1849,-3.1623,-3.1408,-3.1263,-3.1652,-3.1537,-3.1131,-3.2074,-3.2365,-3.2195,-3.2074,-3.1789,-3.1478,-3.1435,-3.1391,-3.1275,0.0,0.0,0.0,0.0,0.0,0.0,0.0,0.0,-2.5365,-2.5469,-2.5841,-2.6059,-2.5896,-2.6061,-2.6193,-2.6193,-2.6193,-2.5949,-2.5396,-2.5147,-2.4759,-2.4176,-2.4132,0.0,0.0,-2.6162,-2.6641,-2.7291,-2.7808,-2.8057,-2.8071,-2.8629,-2.8881,-2.8912,-2.9135,-2.9404,-2.9704,-2.9821,-3.0221,-3.0735,-3.0078,-2.9636,-2.9383,0.0,0.0,0.0,0.0,0.0,0.0,0.0,0.0,0.0,0.0,0.0,0.0,0.0,0.0,0.0,0.0,0.0,0.0,0.0,0.0,0.0,0.0,0.0,0.0,0.0,0.0,0.0,0.0,0.0,0.0,0.0,0.0,0.0,0.0,-3.0177,-3.0554,-3.1087,-3.1161,-3.1248,-3.1467,-3.1467,-3.1438,-3.1438,-3.1395,-3.1366,-3.1366,-3.1366,-3.1336,-3.1234,-3.1176,-3.1029,-3.0791,-3.0762,-3.0896,-3.1204,-3.1204,-3.1204,-3.1204,-3.1204,-3.094,-3.0538,-3.0925,-3.0762,-3.0296,-3.1028,-3.1318,-3.1347,-3.1534,-3.1247,-3.0673,-3.0599,-3.0599,-3.0569,0.0,0.0,0.0,0.0,0.0,0.0,0.0,-2.4357,-2.4466,-2.4673,-2.4261,-2.4143,-2.4636,-2.4706,-2.4718,-2.4718,-2.4718,-2.4507,-2.4049,-2.3997,-2.3818,0.0,0.0,0.0,-2.5894,-2.5932,-2.6245,-2.6849,-2.7064,-2.7144,-2.7178,-2.7371,-2.7471,-2.7504,-2.8168,-2.846,-2.8505,-2.923,-3.0038,-3.0852,-3.0249,-2.9757,-2.9349,0.0,0.0,0.0,0.0,0.0,0.0,0.0,0.0,0.0,0.0,0.0,0.0,0.0,0.0,0.0,0.0,0.0,0.0,0.0,0.0,0.0,0.0,0.0,0.0,0.0,0.0,0.0,0.0,0.0,0.0,0.0,0.0,0.0,-2.8645,-2.9153,-2.969,-3.0389,-3.045,-3.0703,-3.1351,-3.1322,-3.1248,-3.1248,-3.1161,-3.1117,-3.1117,-3.1117,-3.1117,-3.1087,-3.0895,-3.0791,-3.0791,-3.0672,-3.0598,-3.0598,-3.0598,-3.0598,-3.0598,-3.0598,-3.0477,-3.0282,-3.0282,-3.0219,-3.008,-2.9884,-2.9808,-2.987,-3.0659,-3.0598,-3.005,-2.9853,-2.9777,-2.9777,0.0,0.0,0.0,0.0,0.0,0.0,0.0,-2.3299,-2.3364,-2.2856,-2.2862,-2.2769,-2.2324,-2.2466,-2.2633,-2.2633,-2.2633,-2.2438,-2.2037,-2.1726,-2.1404,0.0,0.0,0.0,-2.3653,-2.4635,-2.5203,-2.5382,-2.5941,-2.6193,-2.6193,-2.6794,-2.7064,-2.7064,-2.7252,-2.7352,-2.7339,-2.7564,-2.8025,-2.8703,-2.9793,-3.0075,-2.9817,0.0,0.0,0.0,0.0,0.0,0.0,0.0,0.0,0.0,0.0,0.0,0.0,0.0,0.0,0.0,0.0,0.0,0.0,0.0,0.0,0.0,0.0,0.0,0.0,0.0,0.0,0.0,0.0,0.0,0.0,0.0,-2.7385,-2.7851,-2.9111,-2.8888,-2.8871,-2.9546,-2.9487,-2.9473,-2.9659,-3.0072,-3.0359,-3.0359,-3.0807,-3.1117,-3.1117,-3.1117,-3.1014,-3.0895,-3.0821,-3.0762,-3.0672,-3.0612,-3.0598,-3.0598,-3.0598,-3.0507,-3.0387,-3.0387,-3.0296,-3.0158,-3.0158,-3.0052,-2.9884,-2.9808,-2.973,-2.9682,-2.9884,-2.9867,-2.9741,-2.9696,-2.9651,-2.9557,0.0,0.0,0.0,0.0,0.0,0.0,0.0,-2.2926,-2.2879,-2.2151,-2.2075,-2.1926,-2.1544,-2.1676,-2.1794,-2.1794,-2.1665,-2.1364,-2.0897,-2.0429,-2.0257,0.0,0.0,-2.2154,-2.2396,-2.3132,-2.3703,-2.4043,-2.4528,-2.4909,-2.5252,-2.5767,-2.6032,-2.6032,-2.6317,-2.6454,-2.6442,-2.6782,-2.7098,-2.7445,-2.8478,-2.8923,-2.8978,-2.8978,-2.8697,-2.8297,-2.8297,-2.8297,-2.8282,-2.8118,0.0,0.0,0.0,0.0,0.0,0.0,0.0,0.0,0.0,0.0,0.0,0.0,0.0,0.0,0.0,0.0,0.0,0.0,0.0,0.0,0.0,0.0,0.0,0.0,-2.6511,-2.717,-2.8298,-2.8059,-2.7993,-2.8693,-2.8666,-2.8684,-2.8971,-2.93,-2.9501,-2.9501,-2.9825,-3.0009,-3.0009,-3.0009,-2.9948,-2.9856,-2.9856,-2.9794,-2.9732,-2.9732,-2.9732,-2.9732,-2.9625,-2.9532,-2.9407,-2.9345,-2.9251,-2.9093,-2.9093,-2.8998,-2.8839,-2.8839,-2.8789,-2.8739,0.0,0.0,0.0,0.0,-2.8707,-2.8675,0.0,0.0,0.0,0.0,0.0,0.0,0.0,-2.2695,-2.2502,-2.1926,-2.1481,-2.1303,-2.1511,-2.1527,-2.1527,-2.1527,-2.1165,-2.0714,-2.016,-1.9742,0.0,-2.072,-2.0876,-2.1165,-2.1642,-2.1756,-2.2145,-2.2841,-2.3043,-2.3497,-2.4189,-2.4381,-2.4454,-2.449,-2.5182,-2.5463,-2.5533,-2.6271,-2.6646,-2.668,-2.668,-2.7032,-2.7525,-2.7525,-2.7468,-2.734,-2.734,-2.7638,-2.8006,-2.7964,0.0,0.0,0.0,0.0,0.0,0.0,0.0,0.0,0.0,0.0,0.0,0.0,0.0,0.0,0.0,0.0,0.0,0.0,0.0,0.0,0.0,0.0,0.0,0.0,-2.5722,-2.6243,-2.6879,-2.6956,-2.7167,-2.7769,-2.7835,-2.8051,-2.8652,-2.868,-2.8661,-2.8661,-2.8551,-2.8492,-2.8492,-2.8492,0.0,0.0,0.0,-2.8492,-2.846,-2.846,-2.846,-2.8427,-2.8279,-2.8182,-2.8136,-2.8019,-2.7874,-2.7696,-2.7696,-2.7611,-2.7517,-2.7517,-2.7438,-2.7438,-2.8103,-2.8395,-2.833,-2.7736,-2.7517,-2.7484,0.0,0.0,0.0,0.0,0.0,0.0,0.0,-2.1058,-2.0634,-1.9875,-1.9706,-1.9691,-1.9789,-1.9766,-1.9766,-1.9766,-1.9438,-1.8986,-1.8573,0.0,-1.8948,-1.9155,-2.0081,-2.0642,-2.0769,-2.1451,-2.188,-2.2031,-2.2069,-2.2172,-2.2333,-2.236,-2.2371,-2.2397,-2.3191,-2.3522,-2.3607,-2.4407,-2.4969,-2.5381,-2.5381,-2.6061,-2.703,-2.703,-2.7262,-2.762,-2.762,-2.7809,-2.8025,-2.7775,-2.7708,-2.7646,-2.6966,0.0,0.0,0.0,0.0,0.0,0.0,0.0,0.0,0.0,0.0,0.0,0.0,0.0,0.0,0.0,0.0,0.0,0.0,0.0,0.0,-2.5186,-2.5532,-2.5946,-2.6667,-2.6658,-2.6692,-2.6905,-2.685,-2.685,-2.6973,-2.7451,-2.7749,-2.7749,-2.8214,-2.8492,-2.8492,-2.8492,-2.8492,-2.8492,-2.8492,-2.8427,-2.8279,-2.8279,-2.8214,-2.8117,-2.8051,0.0,-2.7795,-2.7762,-2.7677,-2.7537,-2.7537,-2.7537,-2.7517,-2.7517,-2.7149,-2.6676,-2.7404,-2.7703,-2.767,-2.7537,-2.7517,-2.7417,0.0,0.0,0.0,0.0,0.0,0.0,0.0,-2.0772,-2.0058,-1.9046,-1.8909,-1.8835,-1.8718,-1.8715,-1.8715,-1.8715,-1.8408,-1.817,0.0,-1.8219,-1.8497,-1.8704,-1.9289,-1.9578,-1.9578,-2.004,-2.0459,-2.0865,-2.0865,-2.1058,-2.1469,-2.1469,-2.1469,-2.1469,-2.1849,-2.2048,-2.2086,-2.2585,-2.2947,-2.322,-2.3342,-2.4024,-2.5051,-2.6042,-2.6582,-2.6799,-2.6799,-2.6879,-2.6955,-2.6827,-2.6941,-2.7078,-2.6437,-2.6543,-2.6756,0.0,0.0,0.0,0.0,0.0,0.0,0.0,0.0,0.0,0.0,0.0,0.0,0.0,0.0,-2.3289,-2.3181,0.0,-2.3893,-2.4241,-2.4608,-2.4981,-2.5346,-2.5687,-2.606,-2.6555,-2.6521,-2.6499,-2.6499,-2.6816,-2.7007,-2.7007,-2.7317,-2.7517,-2.7517,-2.7517,-2.7451,-2.7351,-2.7351,-2.725,-2.7048,-2.7048,-2.7015,-2.6947,-2.6833,-2.6765,-2.665,-2.6535,-2.6445,-2.6389,-2.6389,-2.6389,-2.6389,-2.6389,-2.6195,-2.5896,-2.6161,-2.6333,-2.6389,-2.6389,-2.6389,-2.6333,0.0,0.0,0.0,0.0,0.0,0.0,0.0,0.0,-1.9494,-1.8495,-1.8386,-1.8309,-1.8119,-1.8091,-1.8054,-1.7944,-1.7876,-1.7809,0.0,-1.8024,-1.8355,-1.8683,-1.87,-1.87,-1.87,-1.87,-1.9002,-1.9678,-1.9678,-2.0012,-2.0643,-2.0643,-2.0643,-2.0643,-2.0797,-2.0874,-2.0874,-2.1191,-2.1354,-2.1354,-2.1593,-2.2059,-2.282,-2.4516,-2.5381,-2.5721,-2.5721,-2.5718,-2.5761,-2.5859,-2.6111,-2.6316,-2.595,-2.6072,-2.6207,-2.5278,-2.5164,0.0,0.0,0.0,0.0,0.0,0.0,0.0,0.0,-2.3264,-2.3127,-2.295,-2.2897,-2.2863,-2.2695,-2.2972,-2.3245,-2.3292,-2.3644,-2.3938,-2.4084,-2.4671,-2.53,-2.5943,-2.6302,-2.6499,-2.6499,-2.6499,-2.6499,-2.6499,-2.6465,-2.643,-2.643,-2.6383,-2.6292,-2.6131,-2.6131,-2.6062,-2.5828,-2.5828,-2.5828,-2.5793,-2.5606,-2.5535,-2.5535,-2.5382,-2.5194,-2.5052,-2.4862,-2.4791,-2.4779,-2.4743,-2.4707,-2.4719,-2.4587,-2.4612,-2.4743,-2.5099,-2.5099,-2.4933,0.0,0.0,0.0,0.0,0.0,0.0,0.0,0.0,0.0,-1.7648,-1.7639,-1.7723,-1.8082,-1.8091,-1.7861,-1.7361,-1.7778,0.0,-1.7539,-1.8213,-1.8656,-1.87,-1.87,-1.87,-1.87,-1.87,-1.8732,-1.8812,-1.8812,-1.8891,-1.8962,-1.8962,-1.8962,-1.9002,-1.9717,-2.0051,-2.009,-2.0836,-2.1133,-2.1133,-2.1171,-2.1209,-2.141,-2.2226,-2.361,-2.5111,-2.5111,-2.5126,-2.5244,-2.5736,-2.561,-2.5358,-2.5778,-2.558,-2.5186,-2.5044,-2.4362,-2.3635,-2.3495,-2.33,-2.3152,-2.3221,-2.3216,-2.3105,0.0,-2.2771,-2.2726,-2.2593,-2.2548,-2.2536,-2.2536,-2.2367,-2.2499,-2.3186,-2.3198,-2.335,-2.4011,-2.4192,-2.4264,-2.4373,-2.5616,-2.6499,-2.6499,-2.6499,-2.6499,-2.6499,-2.6339,-2.6236,-2.6236,-2.605,-2.598,-2.5945,-2.5945,-2.5828,-2.5653,-2.5641,-2.5535,-2.5382,-2.5347,-2.5347,-2.5347,-2.5312,-2.4898,-2.4181,-2.3294,-2.2888,-2.2888,-2.2702,-2.2627,-2.2627,-2.2627,-2.2627,-2.2824,-2.4322,-2.4383,-2.3708,0.0,0.0,0.0,0.0,0.0,0.0,0.0,0.0,0.0,0.0,-1.6961,-1.6999,-1.7036,-1.7054,-1.6947,-1.6714,0.0,0.0,-1.6569,-1.6692,-1.6796,-1.6796,-1.7286,-1.7529,-1.7529,-1.8031,-1.8282,-1.8282,-1.8282,-1.8282,-1.8282,-1.8282,-1.8282,-1.8322,-1.8625,-1.8776,-1.8816,-1.9313,-1.9541,-1.9541,-1.9668,-1.9972,-2.042,-2.0701,-2.16,-2.2833,-2.3476,-2.3722,0.0,0.0,-2.4538,-2.4717,-2.5202,-2.5113,-2.4716,-2.4366,-2.3806,-2.3388,-2.368,-2.3358,-2.3032,-2.3382,-2.342,-2.319,-2.267,-2.2425,-2.2302,-2.2132,-2.2077,-2.2164,-2.2444,-2.2408,-2.2529,-2.3128,-2.3161,-2.3222,-2.3511,-2.3748,-2.3813,-2.3652,-2.4401,-2.4921,-2.4921,-2.4921,-2.4874,-2.4767,-2.4671,-2.4636,-2.4636,-2.4564,-2.4456,-2.4337,-2.4337,-2.4264,-2.4095,-2.4095,-2.4022,-2.395,-2.395,-2.395,-2.395,-2.3781,-2.3478,-2.3036,-2.2627,-2.244,-2.2403,-2.2328,-2.2291,-2.2291,-2.2178,-2.1849,-2.1583,-2.2872,-2.3132,-2.2776,0.0,0.0,0.0,0.0,0.0,0.0,0.0,0.0,0.0,0.0,0.0,-1.6473,-1.6307,-1.6272,-1.6237,-1.6237,0.0,0.0,0.0,-1.5511,-1.534,-1.5394,-1.6008,-1.6329,-1.6329,-1.696,-1.7294,-1.7294,-1.7538,-1.7619,-1.7659,-1.787,-1.8,-1.8,-1.8,-1.8,-1.7991,-1.8201,-1.8282,-1.8322,-1.8451,-1.8873,-1.9392,-1.9599,-1.9935,-2.0541,-2.1932,-2.2325,0.0,0.0,-2.3121,-2.3432,-2.3921,-2.3933,-2.3694,-2.3264,-2.2966,-2.2849,-2.3098,-2.2926,-2.2788,-2.3149,-2.3279,-2.3151,-2.2552,-2.2439,-2.2371,-2.2234,-2.219,-2.2294,-2.2625,-2.2687,-2.2791,-2.3051,-2.3103,-2.3062,-2.3022,-2.3221,-2.3303,-2.3097,-2.3172,-2.3207,-2.317,-2.3494,-2.3672,-2.3514,-2.3441,-2.3415,-2.3415,-2.3379,-2.3305,-2.3158,-2.3158,-2.3084,-2.2995,-2.2995,-2.2995,-2.2995,-2.2909,-2.2872,-2.2872,-2.2414,-2.2103,-2.1952,-2.1697,-2.1545,-2.1545,-2.1507,-2.1458,-2.1458,-2.1306,-2.074,-2.0119,-2.0836,-2.141,-2.1762,0.0,0.0,0.0,0.0,0.0,0.0,0.0,0.0,0.0,0.0,0.0,0.0,0.0,0.0,-1.6096,0.0,0.0,0.0,0.0,-1.5236,-1.5131,-1.5379,-1.5436,-1.5436,-1.5436,-1.5477,-1.5477,-1.5477,-1.6337,-1.6739,-1.6739,-1.7619,-1.8,-1.8,-1.8,-1.8,-1.8,-1.8,-1.7991,-1.7991,-1.804,-1.804,-1.8112,-1.8803,-1.8789,-1.8735,-2.073,0.0,0.0,0.0,-2.1368,-2.1082,-2.1543,-2.171,0.0,-2.1676,-2.1606,0.0,-2.1183,-2.136,-2.1686,-2.1814,-2.2195,-2.2527,-2.2488,-2.2841,-2.3162,-2.3143,-2.3143,-2.3153,-2.3163,-2.3163,-2.3093,-2.2839,-2.2798,-2.2717,-2.2564,-2.2513,-2.2544,-2.2544,-2.214,-2.1789,-2.16,-2.2767,-2.3526,-2.3514,-2.3331,-2.322,-2.322,-2.3095,-2.3032,-2.3032,-2.3032,-2.2995,-2.2995,-2.2995,-2.2995,-2.2995,-2.275,-2.2627,-2.259,-2.1583,-2.1135,-2.1096,-2.0128,-1.9676,-1.9676,-1.946,-1.9371,-1.9371,-1.9381,-1.8847,-1.8078,-1.8118,-1.9146,-2.0537,0.0,0.0,0.0,0.0,0.0,0.0,0.0,0.0,0.0,0.0,0.0,0.0,0.0,0.0,0.0,0.0,0.0,0.0,0.0,-1.3373,-1.3244,-1.3348,-1.3941,-1.4252,-1.4252,-1.4713,-1.4963,-1.4963,-1.5247,-1.5365,-1.5365,-1.5662,-1.6198,-1.6944,-1.6944,-1.7318,-1.8,-1.8,-1.8,-1.8,-1.8,-1.8,-1.8006,-1.7995,-1.7931,-1.7854,0.0,0.0,0.0,0.0,0.0,0.0,-2.135,0.0,0.0,-2.0475,0.0,0.0,-2.1392,-2.1653,-2.1869,-2.2571,-2.2842,-2.2956,-2.2956,-2.308,-2.3184,-2.3184,-2.2946,-2.2782,-2.297,-2.2981,-2.2951,-2.304,-2.3291,-2.344,-2.3355,-2.3146,-2.2924,-2.2767,-2.2327,-2.1868,-2.134,-2.1602,-2.1738,-2.1603,-2.1527,-2.1489,-2.1489,-2.1423,-2.1423,-2.1423,-2.1423,-2.1346,-2.1203,-2.1203,-2.1126,-2.0924,-2.0837,-2.0721,-2.0576,-1.965,-1.9167,-1.8979,-1.8069,-1.7674,-1.7674,-1.7594,-1.7553,-1.7553,-1.7553,-1.7391,-1.7147,-1.7147,-1.7496,-1.798,0.0,0.0,0.0,0.0,0.0,0.0,0.0,0.0,0.0,0.0,0.0,0.0,0.0,0.0,0.0,0.0,0.0,-1.2587,0.0,0.0,-1.1955,-1.2045,-1.2572,-1.2831,-1.2831,-1.3274,-1.348,-1.348,-1.3869,-1.4207,-1.4455,-1.4608,-1.5199,-1.615,-1.615,-1.6527,-1.7196,-1.7627,-1.7797,-1.7789,-1.7814,-1.7834,-1.7792,-1.7415,-1.7222,0.0,0.0,0.0,0.0,0.0,0.0,0.0,0.0,0.0,0.0,0.0,-2.0073,-2.0629,-2.1138,-2.1615,-2.2036,-2.2666,-2.3135,-2.3432,-2.3432,-2.3515,-2.3546,-2.3546,-2.3145,-2.2798,-2.2971,-2.2849,-2.2746,-2.2832,-2.307,-2.3258,-2.3332,-2.3113,-2.2951,-2.2982,-2.2574,-2.2158,-2.1719,-2.1282,-2.0909,-2.0615,-2.0605,-2.0605,-2.0605,-2.0605,-2.0566,-2.0489,-2.0489,-2.0255,-1.9696,-1.9696,-1.9411,-1.8877,-1.8877,-1.8767,-1.8536,-1.7989,-1.7666,-1.7513,-1.6944,-1.6698,-1.6698,-1.6698,-1.6698,-1.6698,-1.6698,-1.6494,-1.6247,-1.6247,-1.6049,-1.5842,0.0,0.0,0.0,0.0,0.0,0.0,0.0,0.0,0.0,0.0,0.0,0.0,0.0,0.0,0.0,0.0,0.0,0.0,0.0,0.0,0.0,-1.153,-1.1399,-1.1284,-1.1284,-1.1284,-1.1284,-1.1324,-1.2359,-1.3214,-1.3946,-1.4352,-1.4906,-1.561,-1.561,-1.5651,-1.5775,-1.6871,-1.7342,-1.735,-1.7429,-1.7441,-1.7437,-1.703,0.0,0.0,0.0,0.0,0.0,0.0,0.0,-1.7445,-1.7464,-1.8151,-1.9021,-1.9318,-2.0054,-2.0674,-2.051,-2.1245,-2.2091,-2.2079,-2.2947,-2.3783,-2.3741,-2.389,-2.4013,-2.3993,-2.3511,-2.302,-2.3,-2.268,-2.2328,-2.2071,-2.207,-2.2154,-2.2353,-2.2368,-2.2514,-2.2911,-2.2611,-2.2359,-2.2339,-2.1603,-2.0934,-2.0508,-2.0537,-2.0527,-2.0527,-2.0479,-2.0372,-2.0137,-2.0137,-1.9618,-1.8519,-1.8519,-1.798,-1.7001,-1.7001,-1.6887,-1.6698,-1.6657,-1.6617,-1.6617,-1.6576,-1.6576,-1.6576,-1.6576,-1.6576,-1.6576,-1.6591,-1.6072,-1.534,-1.5354,-1.4874,-1.4375,0.0,0.0,0.0,0.0,0.0,0.0,0.0,0.0,0.0,0.0,0.0,0.0,0.0,0.0,0.0,0.0,0.0,0.0,0.0,0.0,0.0,0.0,0.0,0.0,0.0,0.0,0.0,-1.1439,-1.13,-1.1768,-1.2814,-1.2475,-1.3106,-1.4497,-1.4497,-1.4978,-1.5787,-1.6069,-1.6342,-1.6597,0.0,-1.6779,-1.7013,0.0,0.0,0.0,0.0,0.0,0.0,-1.6577,-1.7257,-1.7882,-1.8203,-1.8872,-1.9583,-1.9688,-2.0326,-2.1037,-2.131,-2.1575,-2.1821,-2.1789,-2.2036,-2.2155,-2.1776,-2.1717,-2.1664,-2.15,-2.1025,-2.053,-2.0145,-2.0171,-2.0129,-1.9927,-2.0331,-2.074,-2.0802,-2.0766,-2.0802,-2.0944,-2.0828,-2.066,-2.0377,-2.0121,-1.9724,-1.9085,-1.9417,-1.9569,-1.9402,-1.8789,-1.8301,-1.8069,-1.8069,-1.7859,-1.7407,-1.7261,-1.7058,-1.6772,-1.6772,-1.6731,-1.6698,-1.6049,-1.5718,-1.5718,-1.5026,-1.4741,-1.4741,-1.4741,-1.4741,-1.4762,-1.4986,-1.4912,-1.4767,-1.5,-1.4957,-1.4825,0.0,0.0,0.0,0.0,0.0,0.0,0.0,0.0,0.0,0.0,0.0,0.0,0.0,0.0,0.0,0.0,0.0,0.0,0.0,0.0,0.0,0.0,0.0,0.0,0.0,0.0,0.0,0.0,0.0,0.0,-1.2329,-1.2019,-1.2579,-1.3789,-1.3789,-1.4148,-1.4786,-1.5266,0.0,0.0,0.0,0.0,0.0,0.0,0.0,0.0,0.0,0.0,-1.6098,-1.6578,-1.7062,-1.7651,-1.8275,-1.8913,-1.9524,-1.9795,-2.0398,-2.0946,-2.108,-2.1136,-2.1235,-2.1239,-2.1284,-2.1221,-2.0811,-2.0642,-2.0439,-2.019,-1.9673,-1.9162,-1.8878,-1.8925,-1.8946,-1.8879,-1.9324,-1.9724,-1.9922,-1.9947,-2.0007,-2.0169,-2.0187,-2.011,-1.9896,-1.969,-1.9425,-1.8999,-1.8976,-1.8833,-1.8567,-1.802,-1.7577,-1.7302,-1.7212,-1.6887,-1.6322,-1.5801,-1.556,-1.556,-1.556,-1.556,-1.5553,-1.5068,-1.4824,-1.4783,-1.4292,-1.4088,-1.4088,-1.3659,-1.3483,-1.3466,-1.3299,-1.3223,-1.3259,-1.3534,-1.3631,-1.3631,0.0,0.0,0.0,0.0,0.0,0.0,0.0,0.0,0.0,0.0,0.0,0.0,0.0,0.0,0.0,0.0,0.0,0.0,0.0,0.0,0.0,0.0,0.0,0.0,0.0,0.0,0.0,0.0,0.0,0.0,0.0,0.0,0.0,0.0,0.0,0.0,0.0,0.0,0.0,0.0,0.0,0.0,0.0,0.0,0.0,0.0,0.0,-1.6069,-1.6354,-1.6761,-1.6953,-1.714,-1.8029,-1.8673,-1.9138,-1.9778,-2.0224,-2.0518,-2.0288,-2.0283,-2.0365,-2.0266,-2.0376,-2.0435,-2.0105,-1.9842,-1.9591,-1.9196,-1.865,-1.8246,-1.8195,-1.8188,-1.8221,-1.8221,-1.853,-1.8914,-1.9268,-1.9265,-1.9427,-1.979,-1.9824,-1.9824,-1.9824,-1.9502,-1.9248,-1.9207,-1.8521,-1.8012,-1.7808,-1.7489,-1.7172,-1.6887,-1.6723,-1.6157,-1.5235,-1.4496,-1.4088,-1.4088,-1.4088,-1.4088,-1.4088,-1.4088,-1.4088,-1.4088,-1.3962,-1.3913,-1.3828,-1.2918,-1.2528,-1.2472,-1.1877,-1.1665,-1.1702,-1.1884,-1.1939,-1.1939,0.0,0.0,0.0,0.0,0.0,0.0,0.0,0.0,0.0,0.0,-1.5805,-1.5805,0.0,0.0,0.0,0.0,0.0,0.0,0.0,0.0,0.0,0.0,0.0,0.0,0.0,-1.1149,-1.1409,-1.1409,-1.1534,0.0,0.0,0.0,0.0,0.0,0.0,0.0,0.0,0.0,0.0,0.0,0.0,0.0,0.0,0.0,0.0,0.0,-1.6186,-1.6314,-1.6342,-1.6741,-1.7124,-1.7531,-1.8299,-1.8832,-1.9238,-1.9635,-1.9764,-1.9782,-1.9712,-1.9417,-1.9004,-1.8635,-1.8535,-1.8395,-1.7682,-1.7477,-1.7258,-1.666,-1.645,-1.6279,-1.6008,-1.64,-1.6754,-1.6754,-1.7221,-1.7634,-1.7695,-1.7702,-1.7717,-1.7777,-1.7785,-1.7785,-1.7785,-1.7608,-1.7335,-1.7054,-1.6499,-1.635,-1.673,-1.5777,-1.5061,-1.4657,-1.4615,-1.4496,-1.4334,-1.4173,-1.4088,-1.4088,-1.4088,-1.4088,-1.4088,-1.4088,-1.4088,-1.4046,-1.3264,-1.2918,-1.2875,-1.1929,-1.1542,-1.1581,-1.1835,-1.1951,-1.196,-1.2162,-1.2224,-1.2219,0.0,0.0,0.0,0.0,0.0,0.0,0.0,0.0,-1.5805,-1.5805,-1.5805,-1.5805,-1.5805,-1.5805,0.0,0.0,0.0,0.0,0.0,0.0,0.0,0.0,0.0,0.0,0.0,-1.1558,-1.1706,-1.1706,0.0,-1.2452,-1.3046,-1.3046,-1.3229,-1.3492,-1.3492,-1.3492,-1.3492,0.0,0.0,-1.3811,-1.4021,-1.4201,0.0,0.0,0.0,0.0,0.0,-1.6087,-1.6304,-1.664,-1.7023,-1.754,-1.8591,-1.9162,-1.9503,-1.9603,-1.9649,-1.9546,-1.9279,-1.8827,-1.8365,-1.8179,-1.7893,-1.7479,-1.6801,-1.6646,-1.647,-1.5789,-1.5622,-1.5622,-1.5679,-1.606,-1.647,-1.6639,-1.7018,-1.7279,-1.7279,-1.7279,-1.7279,-1.7279,-1.7279,-1.7239,-1.7153,-1.7066,-1.6868,-1.6565,-1.6169,-1.5871,-1.582,-1.5029,-1.4405,-1.413,-1.4088,-1.4088,-1.4088,-1.4088,-1.387,-1.3398,-1.387,-1.3568,-1.2662,-1.3137,-1.3088,-1.2619,-1.2186,-1.1972,-1.1886,-1.0982,-1.0549,-1.0551,-1.0486,-1.0417,-1.032,-1.0593,-1.0592,-1.0485,0.0,0.0,0.0,0.0,0.0,0.0,0.0,-1.6132,-1.5938,-1.5841,-1.5805,-1.5805,-1.5805,-1.5805,-1.5805,0.0,0.0,0.0,0.0,0.0,0.0,0.0,0.0,0.0,0.0,0.0,0.0,-1.1892,-1.2489,0.0,0.0,0.0,0.0,0.0,-1.3492,-1.3492,-1.3492,-1.3492,-1.3492,0.0,0.0,-1.3985,0.0,0.0,0.0,0.0,0.0,-1.5866,-1.6086,-1.6394,-1.6773,-1.726,-1.8437,-1.9004,-1.9287,-1.9331,-1.9248,-1.909,-1.8758,-1.8319,-1.7939,-1.7939,-1.7613,-1.7157,-1.6558,-1.6411,-1.6191,-1.5562,-1.5447,-1.5571,-1.587,-1.6221,-1.6602,-1.6859,-1.7121,-1.7279,-1.7279,-1.7279,-1.7279,-1.7279,-1.7239,-1.7153,-1.7026,-1.6885,-1.6744,-1.6541,-1.6156,-1.5718,-1.5151,-1.4612,-1.4237,-1.4088,-1.4088,-1.4004,-1.3786,-1.3786,-1.3307,-1.24,-1.3137,-1.2747,-1.1322,-1.2057,-1.2015,-1.1278,-1.1111,-1.0982,-1.0939,-0.999,-0.9625,-0.961,-0.9196,-0.8925,-0.8804,-0.8969,-0.8882,-0.8726,0.0,0.0,0.0,0.0,0.0,0.0,0.0,-1.6837,-1.6342,-1.5867,-1.5805,-1.5805,-1.5805,-1.5805,-1.5805,0.0,0.0,0.0,0.0,0.0,0.0,0.0,0.0,0.0,0.0,0.0,0.0,-1.2526,-1.3119,0.0,0.0,0.0,0.0,0.0,0.0,-1.3492,-1.3492,-1.3492,0.0,0.0,0.0,0.0,0.0,0.0,0.0,0.0,0.0,-1.5896,-1.5608,-1.6078,-1.6404,-1.6738,-1.7278,-1.7704,-1.8021,-1.8329,-1.8118,-1.7826,-1.8095,-1.78,-1.7372,-1.7372,-1.7333,-1.7157,-1.6558,-1.6411,-1.6191,-1.5562,-1.5622,-1.5877,-1.5913,-1.6404,-1.6866,-1.6895,-1.7121,-1.7279,-1.7279,-1.7279,-1.7279,-1.7279,-1.716,-1.7026,-1.6979,-1.6555,-1.6265,-1.6224,-1.5751,-1.5325,-1.4955,-1.4419,-1.413,-1.4088,-1.4088,-1.3701,-1.2833,-1.2833,-1.2357,-1.1408,-1.1542,-1.1451,-1.1284,-1.1408,-1.137,-1.1235,-1.0419,-1.0028,-0.9946,-0.9087,-0.8787,-0.8906,-0.8776,-0.8855,-0.8923,-0.8618,-0.8482,-0.8382,0.0,0.0,0.0,0.0,0.0,0.0,0.0,-1.7628,-1.7148,-1.6368,-1.6272,-1.6175,-1.5841,-1.5805,-1.5805,0.0,0.0,0.0,0.0,0.0,0.0,0.0,0.0,0.0,0.0,0.0,-1.3382,-1.3119,-1.3382,0.0,0.0,0.0,0.0,0.0,0.0,-1.3492,-1.3492,-1.3492,0.0,0.0,0.0,0.0,0.0,0.0,0.0,0.0,0.0,0.0,-1.5502,-1.5869,-1.6067,-1.6199,-1.6413,-1.6546,-1.6802,-1.7646,-1.7756,-1.7606,-1.7617,-1.7473,-1.7279,-1.7279,-1.7186,-1.6923,-1.6514,-1.6228,-1.6023,-1.5774,-1.5826,-1.603,-1.6411,-1.6734,-1.6961,-1.7106,-1.7245,-1.7279,-1.7279,-1.7279,-1.7239,-1.7106,-1.7073,-1.6885,-1.6555,-1.5778,-1.4956,-1.413,-1.375,-1.3467,-1.3352,-1.3975,-1.4005,-1.327,-1.3264,-1.279,-1.1886,-1.1843,-1.137,-1.0463,-1.1025,-1.0722,-0.9689,-1.0202,-1.0164,-0.9646,-0.9301,-0.913,-0.9087,-0.874,-0.8581,-0.8568,-0.8644,-0.863,-0.8516,-0.8424,-0.8287,-0.8038,0.0,0.0,0.0,0.0,0.0,-1.9683,-1.8677,-1.824,-1.7662,-1.6707,-1.6473,-1.6202,-1.5832,-1.5805,-1.5805,-1.5805,0.0,0.0,0.0,0.0,0.0,0.0,0.0,0.0,0.0,0.0,-1.3819,-1.3819,-1.3819,-1.3819,0.0,0.0,-1.3746,-1.3819,0.0,0.0,0.0,0.0,0.0,0.0,0.0,0.0,0.0,0.0,0.0,0.0,0.0,0.0,0.0,0.0,0.0,-1.5732,-1.5732,0.0,0.0,-1.6816,-1.7175,-1.7229,-1.7191,-1.726,-1.7279,-1.7279,-1.7091,-1.6815,-1.6485,-1.6133,-1.5913,-1.5913,-1.5987,-1.6213,-1.68,-1.6976,-1.7069,-1.7296,-1.7279,-1.7232,-1.6998,-1.685,-1.6709,-1.6643,-1.6157,-1.5818,-1.5778,-1.4758,-1.374,-1.2775,-1.2528,-1.2357,-1.2288,-1.3304,-1.3396,-1.2394,-1.2312,-1.1843,-1.0895,-1.0895,-1.0419,-0.9515,-1.0207,-0.982,-0.8612,-0.9257,-0.917,-0.8612,-0.8612,-0.8564,-0.8476,-0.8476,-0.843,-0.8364,-0.8432,-0.8182,-0.7798,-0.7796,-0.7484,-0.6933,0.0,0.0,0.0,0.0,0.0,0.0,0.0,-1.8566,-1.7662,-1.6707,-1.614,-1.5805,-1.5805,-1.5805,-1.5805,-1.5805,0.0,0.0,0.0,0.0,0.0,0.0,0.0,0.0,0.0,0.0,-1.4605,-1.4605,-1.4605,-1.4605,-1.4569,-1.4238,-1.4274,-1.4569,0.0,0.0,0.0,0.0,0.0,0.0,0.0,0.0,0.0,0.0,0.0,0.0,0.0,0.0,0.0,0.0,0.0,0.0,0.0,0.0,0.0,0.0,-1.614,-1.6492,-1.6815,-1.7091,-1.7279,-1.7279,-1.7091,-1.6815,-1.6485,-1.6133,-1.5913,-1.5913,-1.6155,-1.6507,-1.6837,-1.7113,-1.7279,-1.7279,-1.7279,-1.7044,-1.6332,-1.5744,-1.5507,-1.5778,-1.4232,-1.3553,-1.4609,-1.3499,-1.2732,-1.2678,-1.2678,-1.2576,-1.2299,-1.233,-1.211,-1.1632,-1.1396,-1.0847,-0.9946,-0.9903,-0.9471,-0.8612,-0.8612,-0.8612,-0.8612,-0.8612,-0.8612,-0.8612,-0.8612,-0.8428,-0.8201,-0.8201,-0.8219,-0.8286,-0.8013,-0.7478,-0.6778,-0.6534,-0.5729,-0.4824,0.0,0.0,0.0,0.0,0.0,0.0,0.0,-1.9595,-1.9034,-1.791,-1.7235,-1.6751,-1.6377,-1.6035,-1.5805,-1.5805,0.0,0.0,0.0,0.0,0.0,0.0,0.0,0.0,0.0,0.0,0.0,-1.4605,-1.4605,-1.4605,-1.4605,-1.4489,-1.4497,-1.4605,-1.4489,-1.4453,0.0,0.0,0.0,0.0,0.0,0.0,-1.3506,0.0,0.0,0.0,0.0,0.0,0.0,0.0,0.0,0.0,0.0,0.0,0.0,0.0,0.0,0.0,-1.6485,-1.6639,-1.6674,-1.6674,-1.644,-1.6184,-1.6082,-1.5811,-1.5709,-1.6133,-1.6345,-1.6394,-1.6422,-1.6504,-1.6379,-1.5859,-1.5812,-1.5568,-1.4991,-1.4746,-1.4459,-1.3986,-1.3312,-1.2678,-1.2334,-1.1901,-1.137,-1.065,-1.06,-1.052,-1.0462,-1.0377,-1.0398,-1.0657,-1.0583,-1.0044,-0.8999,-0.8999,-0.8872,-0.8612,-0.8612,-0.8612,-0.8612,-0.8612,-0.8612,-0.8612,-0.8428,-0.8288,-0.8208,-0.8154,-0.8101,-0.7976,-0.7263,-0.6829,-0.6434,-0.5629,-0.5074,-0.4674,0.0,0.0,0.0,0.0,0.0,0.0,0.0,-1.9835,-1.9276,-1.8395,-1.775,-1.727,-1.6959,-1.6586,-1.6316,-1.6105,0.0,0.0,0.0,0.0,0.0,0.0,0.0,0.0,0.0,-1.5185,-1.5043,-1.5043,-1.5043,-1.5043,-1.5043,-1.4892,-1.4927,-1.5043,-1.4883,-1.482,0.0,0.0,0.0,0.0,0.0,0.0,-1.3506,0.0,0.0,0.0,0.0,0.0,0.0,0.0,0.0,0.0,0.0,0.0,0.0,0.0,0.0,0.0,0.0,-1.6279,-1.6411,-1.6411,-1.614,-1.5913,-1.5913,-1.576,-1.5752,-1.6309,-1.6284,-1.6154,-1.6195,-1.5954,-1.5622,-1.5146,-1.4949,-1.4561,-1.3932,-1.3499,-1.2915,-1.1907,-1.2004,-1.1712,-1.069,-1.0596,-1.0306,-0.9624,-0.9579,-0.9579,-0.9579,-0.9518,-0.9606,-0.9896,-0.9745,-0.9347,-0.8666,-0.8645,-0.8612,-0.8612,-0.8612,-0.8612,-0.8612,-0.8612,-0.8612,-0.8568,-0.8336,-0.7967,0.0,-0.7413,-0.7065,-0.6581,-0.6074,-0.5586,-0.5131,-0.4425,-0.3924,-0.3473,0.0,0.0,0.0,0.0,0.0,0.0,0.0,0.0,0.0,-1.8405,-1.7828,-1.7442,-1.7442,-1.7373,-1.7132,-1.6638,0.0,0.0,0.0,0.0,0.0,0.0,0.0,0.0,0.0,-1.5867,-1.5911,-1.5867,-1.5867,-1.5867,-1.5832,-1.5426,-1.5426,-1.577,-1.5426,-1.524,0.0,0.0,0.0,0.0,0.0,0.0,0.0,0.0,0.0,0.0,0.0,0.0,0.0,0.0,0.0,0.0,0.0,0.0,0.0,0.0,0.0,0.0,0.0,-1.6082,-1.6345,-1.6345,-1.6089,-1.5877,-1.5877,-1.5856,0.0,-1.6264,-1.5941,-1.5689,-1.5994,-1.548,-1.501,-1.4885,-1.4496,-1.3865,-1.305,-1.2063,-1.0984,-0.9723,-1.0498,-1.069,-0.9673,-0.9579,-0.9579,-0.9579,-0.9579,-0.9579,-0.9579,-0.9579,-0.9551,-0.9429,-0.9039,-0.8844,-0.882,-0.8666,-0.8624,-0.8612,-0.8612,-0.8612,-0.8612,-0.8612,-0.8568,-0.8476,-0.8216,-0.7447,-0.6344,-0.6093,-0.544,-0.46,-0.4508,-0.3966,-0.3173,-0.3123,-0.2471,-0.1617,0.0,0.0,0.0,0.0,0.0,0.0,0.0,0.0,0.0,0.0,-1.8438,-1.81,-1.81,-1.7304,-1.6742,0.0,0.0,0.0,0.0,0.0,0.0,0.0,0.0,0.0,0.0,-1.6586,-1.6821,-1.6403,-1.6403,-1.6403,-1.6403,-1.5894,-1.5726,-1.5805,-1.5691,0.0,0.0,0.0,0.0,0.0,0.0,0.0,0.0,0.0,0.0,0.0,-1.4761,-1.5061,0.0,0.0,0.0,0.0,0.0,0.0,0.0,0.0,-1.5389,0.0,-1.5484,0.0,-1.565,-1.565,-1.5599,-1.5498,0.0,0.0,0.0,0.0,0.0,-1.4761,-1.4476,-1.4286,-1.3924,-1.304,-1.2775,-1.2377,-1.1385,-1.0555,-0.9965,-0.9628,-0.9821,-0.9867,-0.9628,-0.9579,-0.9579,-0.9579,-0.9579,-0.9579,-0.9579,-0.9579,-0.9608,-0.9563,-0.9348,-0.9096,-0.8824,-0.8779,-0.8694,-0.8612,-0.8612,-0.8612,-0.8612,-0.8612,-0.8076,-0.7231,-0.6982,-0.6224,-0.5117,-0.5,-0.4804,-0.4508,-0.3829,-0.3412,-0.3123,-0.227,-0.1818,-0.1617,0.0,0.0,0.0,0.0,0.0,0.0,0.0,0.0,0.0,0.0,0.0,0.0,0.0,0.0,0.0,0.0,0.0,0.0,0.0,0.0,0.0,0.0,0.0,0.0,-1.6551,-1.7107,-1.7132,-1.6603,-1.6603,-1.6473,-1.6237,-1.5938,-1.5805,-1.5805,-1.5805,0.0,0.0,0.0,0.0,0.0,-1.5204,0.0,0.0,0.0,0.0,0.0,-1.5355,-1.5565,0.0,-1.5472,-1.5389,-1.5389,0.0,0.0,0.0,0.0,-1.5389,-1.5389,-1.5389,-1.5389,-1.5389,-1.5389,-1.5389,-1.5298,-1.4999,0.0,0.0,0.0,0.0,-1.4066,-1.3951,-1.3619,-1.3121,-1.2329,-1.1929,-1.1401,-1.0487,-1.0008,-0.9746,-0.9746,-0.9673,-0.9579,-0.9579,-0.9579,-0.9579,-0.9579,-0.9579,-0.9579,-0.9579,-0.9579,-0.9579,-0.9579,-0.9184,-0.8921,-0.895,-0.8542,-0.8237,-0.8072,-0.7764,-0.7764,-0.8072,-0.7764,-0.7404,-0.7098,-0.6563,-0.5736,-0.4729,-0.4638,-0.4181,-0.3527,-0.3012,-0.2671,-0.2422,-0.1818,-0.1617,-0.1617,0.0,0.0,0.0,0.0,0.0,0.0,0.0,0.0,0.0,0.0,0.0,0.0,0.0,0.0,0.0,0.0,0.0,0.0,0.0,0.0,0.0,0.0,0.0,-1.7476,-1.7407,-1.7476,-1.727,-1.6707,-1.6638,-1.6377,-1.5938,-1.5841,-1.5805,-1.5805,-1.5805,0.0,0.0,0.0,0.0,0.0,-1.5275,0.0,0.0,0.0,0.0,0.0,0.0,0.0,0.0,-1.5555,-1.5389,-1.5389,-1.5389,0.0,0.0,0.0,0.0,0.0,-1.5389,-1.5376,-1.5314,-1.5271,-1.5257,-1.5082,-1.4398,0.0,0.0,0.0,0.0,-1.3473,-1.3669,-1.3175,-1.2599,-1.2179,-1.1506,-1.0794,-1.002,-0.986,-0.9847,-0.9847,-0.9717,-0.9529,-0.943,-0.9529,-0.9529,-0.943,-0.9426,-0.9426,-0.9426,-0.9278,-0.9229,-0.9229,-0.8581,-0.8391,-0.8761,-0.8029,-0.7549,-0.7347,-0.6704,-0.6738,-0.7312,-0.6694,-0.6659,-0.704,-0.6324,-0.5386,-0.4449,-0.4292,-0.3476,-0.227,-0.227,-0.2019,-0.1617,-0.1617,-0.1617,-0.1566,0.0,0.0,0.0,0.0,0.0,0.0,0.0,0.0,0.0,0.0,0.0,0.0,0.0,0.0,0.0,0.0,0.0,0.0,0.0,0.0,0.0,0.0,-1.8134,-1.793,-1.7407,-1.7896,-1.7862,-1.727,-1.6811,-1.6577,-1.6473,-1.6,-1.5805,-1.5805,-1.5805,-1.5805,-1.5805,0.0,0.0,0.0,-1.5726,0.0,0.0,0.0,0.0,0.0,0.0,0.0,0.0,-1.5555,-1.5389,-1.5389,-1.5389,0.0,0.0,0.0,0.0,0.0,-1.5389,-1.5149,-1.4841,-1.4628,-1.4566,-1.4398,-1.373,-1.3293,0.0,0.0,0.0,-1.2674,-1.2909,-1.2581,-1.2184,-1.1835,-1.097,-1.0236,-0.9955,-0.9758,-0.9665,-0.9665,-0.9595,-0.9327,-0.863,-0.9179,-0.9327,-0.863,-0.8581,-0.8581,-0.8581,-0.7935,-0.7587,-0.7587,-0.7437,-0.7359,-0.734,-0.7054,-0.687,-0.6739,-0.6528,-0.6473,-0.6561,-0.6473,-0.5953,-0.5189,-0.5064,-0.4164,-0.2785,-0.2739,-0.2315,-0.1717,-0.1717,-0.1667,-0.1617,-0.1617,-0.1617,-0.1516,0.0,0.0,0.0,0.0,0.0,0.0,0.0,0.0,0.0,0.0,0.0,0.0,0.0,0.0,0.0,0.0,0.0,0.0,0.0,0.0,0.0,-1.8731,-1.8741,-1.8472,-1.7896,-1.8428,-1.8148,-1.6959,-1.7019,-1.6751,-1.6167,-1.5903,-1.5805,-1.5805,-1.5805,-1.5805,-1.5805,-1.5805,0.0,0.0,0.0,0.0,0.0,0.0,0.0,0.0,0.0,0.0,0.0,0.0,-1.5597,-1.5389,-1.5389,0.0,0.0,0.0,0.0,0.0,-1.5389,-1.5014,-1.4475,-1.4117,-1.4149,-1.4049,-1.3404,-1.3052,-1.2856,0.0,-1.2475,-1.2447,-1.2554,-1.2327,-1.187,-1.1112,-1.0544,-1.0151,-0.9908,-0.9458,-0.911,-0.911,-0.8631,-0.8134,-0.7786,-0.8084,-0.8134,-0.7783,-0.7736,-0.7736,-0.7736,-0.7388,-0.7188,-0.7188,-0.6789,-0.6512,-0.6454,-0.5945,-0.58,-0.5987,-0.5507,-0.5455,-0.5861,-0.5475,-0.5256,-0.5172,-0.4864,-0.4179,-0.3189,-0.3252,-0.2774,-0.2019,-0.2019,-0.1869,-0.1617,-0.1617,-0.1314,-0.0909,0.0,0.0,0.0,0.0,0.0,0.0,0.0,0.0,0.0,0.0,0.0,0.0,0.0,0.0,0.0,0.0,0.0,0.0,0.0,0.0,-1.9108,-1.9108,-1.9108,-1.8841,-1.8303,-1.8707,-1.8148,-1.6603,-1.7019,-1.6726,-1.5805,-1.5805,-1.5805,-1.5805,-1.5805,-1.5805,-1.5805,-1.5805,-1.5805,0.0,0.0,0.0,0.0,0.0,0.0,0.0,0.0,0.0,0.0,0.0,0.0,0.0,0.0,0.0,0.0,-1.5389,-1.5389,-1.5389,-1.5215,-1.4713,-1.4123,-1.3611,0.0,-1.3562,-1.2973,-1.2825,-1.2677,0.0,-1.2285,-1.2383,-1.2342,-1.1958,-1.1387,-1.049,-1.0251,-0.9983,-0.9595,-0.9011,-0.8552,-0.8349,-0.7648,-0.7138,-0.6939,-0.7089,-0.7138,-0.6939,-0.6939,-0.6939,-0.6939,-0.6736,-0.6637,-0.6637,-0.6039,-0.5739,-0.5739,-0.5049,-0.4914,-0.5293,-0.4645,-0.4602,-0.5143,-0.4632,-0.4686,-0.5106,-0.4693,-0.4128,-0.3555,-0.3609,-0.3077,-0.222,-0.222,-0.1868,-0.1314,-0.1314,-0.0808,-0.0101,0.0,0.0,0.0,0.0,0.0,0.0,0.0,0.0,0.0,0.0,0.0,0.0,0.0,0.0,0.0,0.0,0.0,0.0,0.0,0.0,-1.9108,-1.9108,-1.9108,-1.8841,-1.8303,-1.8337,-1.7784,-1.6603,-1.6638,-1.6368,-1.5805,-1.5805,-1.5805,-1.5805,-1.5805,-1.5805,-1.5805,-1.5805,-1.5805,-1.5831,0.0,0.0,0.0,0.0,0.0,0.0,0.0,0.0,0.0,0.0,0.0,0.0,0.0,0.0,-1.5389,-1.5389,-1.5389,-1.5257,-1.4657,-1.4127,-1.3592,-1.2953,-1.2661,-1.2458,-1.2218,-1.1972,0.0,-1.2296,-1.2404,-1.2337,-1.2065,-1.135,-1.0645,-1.0302,-1.0053,-0.9587,-0.8621,-0.845,-0.8148,-0.74,-0.7244,-0.6889,-0.6142,-0.6739,-0.6889,-0.6142,-0.6092,-0.6092,-0.6092,-0.5386,-0.4985,-0.4985,-0.4935,-0.4885,-0.4885,-0.4751,-0.4707,-0.4656,-0.4469,-0.4424,-0.4472,-0.4432,-0.4242,-0.4001,-0.3964,-0.3415,-0.2517,-0.252,-0.217,-0.1667,-0.1667,-0.1162,-0.0505,-0.0505,0.0,0.0806,0.0,0.0,0.0,0.0,0.0,0.0,0.0,0.0,0.0,0.0,0.0,0.0,0.0,0.0,0.0,0.0,0.0,0.0,0.0,0.0,-1.9108,-1.9108,-1.9108,-1.8664,-1.7759,-1.81,-1.775,-1.6603,-1.6272,-1.6008,-1.5805,-1.5805,-1.5805,-1.5805,-1.5805,-1.5805,-1.5805,-1.5805,-1.5805,-1.5831,-1.6191,0.0,0.0,0.0,0.0,0.0,0.0,0.0,0.0,0.0,-1.6004,-1.5389,-1.5389,-1.5389,-1.5298,-1.4915,-1.4783,-1.4615,-1.3977,-1.3453,-1.2997,-1.2777,-1.2323,0.0,0.0,-1.2204,-1.2194,-1.2377,-1.2289,-1.1928,-1.113,-1.0722,-1.0349,-0.992,-0.9365,-0.8849,-0.8439,-0.7534,-0.6789,-0.6489,-0.5987,-0.5586,-0.5288,-0.5536,-0.5586,-0.5288,-0.5236,-0.5236,-0.5236,-0.4985,-0.4784,-0.4784,-0.4784,-0.4784,-0.4784,-0.4754,-0.4743,-0.4657,-0.4563,-0.4489,-0.4392,-0.4171,-0.401,-0.3873,-0.3575,-0.3057,-0.2422,-0.2422,-0.207,-0.1566,-0.1061,-0.0657,-0.0353,0.0151,0.0857,0.1613,0.0,0.0,0.0,0.0,0.0,0.0,0.0,0.0,0.0,0.0,0.0,0.0,0.0,0.0,0.0,0.0,0.0,0.0,0.0,-1.9108,-1.9108,-1.9108,-1.9108,-1.8664,-1.7681,-1.81,-1.775,-1.6603,-1.6412,-1.6211,-1.6035,-1.6035,-1.5973,-1.5805,-1.5805,-1.5805,-1.5805,-1.5805,-1.5805,-1.5831,-1.6154,-1.653,0.0,0.0,0.0,0.0,0.0,0.0,0.0,0.0,-1.6121,-1.5389,-1.5389,-1.5257,-1.4999,-1.4524,-1.4272,-1.3935,-1.3264,-1.2837,-1.2552,-1.2413,0.0,0.0,-1.2307,-1.2355,-1.2344,-1.2495,-1.2116,-1.1511,-1.0645,-1.0106,-0.969,-0.9348,-0.8564,-0.7935,-0.7686,-0.6689,-0.5892,-0.5639,-0.5135,-0.4784,-0.4784,-0.4784,-0.4784,-0.4784,-0.4784,-0.4784,-0.4784,-0.4784,-0.4784,-0.4784,-0.4784,-0.4784,-0.4784,-0.4784,-0.4742,-0.4708,-0.4528,-0.4369,-0.424,-0.4017,-0.3736,-0.3415,-0.311,-0.2624,-0.217,-0.217,-0.1767,-0.1162,-0.0606,-0.0101,0.0404,0.0958,0.1664,0.2371,0.0,0.0,0.0,0.0,0.0,0.0,0.0,0.0,0.0,0.0,0.0,0.0,0.0,0.0,0.0,0.0,0.0,0.0,-1.9108,-1.9108,-1.9108,-1.9108,-1.9108,-1.8841,-1.8303,-1.8303,-1.775,-1.6603,-1.7132,-1.7132,-1.6603,-1.6603,-1.6307,-1.5805,-1.5805,-1.5805,-1.5805,-1.5805,-1.5805,-1.5831,-1.6154,-1.653,0.0,0.0,0.0,0.0,0.0,0.0,0.0,0.0,-1.6121,-1.5389,-1.5389,-1.4915,-1.4398,-1.4398,-1.3893,-1.3222,-1.2577,-1.2412,-1.2261,-1.1816,-1.1704,-1.1833,-1.2307,-1.2272,-1.2235,-1.271,-1.1932,-1.1112,-1.0722,-0.9442,-0.8482,-0.8631,-0.7824,-0.6889,-0.6092,-0.5992,-0.5691,-0.4885,-0.4784,-0.4784,-0.4784,-0.4784,-0.4784,-0.4784,-0.4784,-0.4784,-0.4784,-0.4784,-0.4784,-0.4784,-0.4784,-0.4784,-0.4784,-0.4784,-0.4742,-0.471,-0.4198,-0.3944,-0.3919,-0.3871,-0.3319,-0.2422,-0.2371,-0.207,-0.1617,-0.1617,-0.1111,-0.0404,-0.0404,0.0606,0.2017,0.2017,0.2522,0.318,0.0,0.0,0.0,0.0,0.0,0.0,0.0,0.0,0.0,0.0,0.0,0.0,0.0,0.0,0.0,0.0,0.0,0.0,-1.9108,-1.9108,-1.9108,-1.9108,-1.9108,-1.8841,-1.8303,-1.7886,-1.7304,-1.6603,-1.6742,-1.6542,-1.6035,-1.6035,-1.5929,-1.5805,-1.5805,-1.5805,-1.5805,-1.5805,-1.5805,-1.5831,-1.6154,-1.653,-1.6961,0.0,0.0,0.0,0.0,0.0,0.0,0.0,0.0,0.0,-1.4873,-1.4566,-1.4223,-1.3252,-1.2833,-1.254,-1.1817,-1.1894,-1.2126,-1.1765,-1.1951,-1.2242,-1.2382,-1.2361,0.0,-1.1774,-1.1438,-1.077,-0.9341,-0.8713,-0.8247,-0.7738,-0.6912,-0.6289,-0.6042,-0.5489,-0.5085,-0.4834,-0.4784,-0.4784,-0.4784,-0.4784,-0.4784,-0.4784,-0.4784,-0.4784,-0.4784,-0.4784,-0.4784,-0.4784,-0.4784,-0.4784,-0.4784,-0.4784,-0.4622,-0.4202,-0.4073,-0.3944,-0.3871,-0.318,-0.2659,-0.2371,-0.2019,-0.1768,-0.1566,-0.101,-0.0303,0.0504,0.1059,0.1564,0.2068,0.2623,0.2977,0.318,0.0,0.0,0.0,0.0,0.0,0.0,0.0,0.0,0.0,0.0,0.0,0.0,0.0,0.0,0.0,0.0,0.0,0.0,0.0,0.0,-1.9308,-1.9308,-1.9175,-1.8931,-1.8607,-1.8056,-1.7613,-1.726,-1.7028,-1.6647,-1.6105,-1.6105,-1.6,-1.5805,-1.5805,-1.5805,-1.5805,-1.5805,-1.5805,-1.5822,-1.6036,-1.6317,-1.6693,0.0,0.0,0.0,0.0,0.0,0.0,0.0,0.0,0.0,-1.4524,-1.4013,-1.3464,-1.2619,-1.2198,-1.1877,-1.1549,-1.1693,-1.197,-1.1973,-1.2199,-1.2341,-1.1992,-1.1821,-1.1568,-1.0867,-1.0301,-0.9509,-0.818,-0.7683,-0.7288,-0.6789,-0.6039,-0.5539,-0.5539,-0.5085,-0.4784,-0.4784,-0.4784,-0.4784,-0.4784,-0.4784,-0.4784,-0.4784,-0.4784,-0.4784,-0.4784,-0.4784,-0.4784,-0.4784,-0.4784,-0.4784,-0.4784,-0.4583,-0.4334,-0.3982,-0.3226,-0.2856,-0.2825,-0.2509,-0.2118,-0.1564,-0.0908,-0.0656,-0.0606,-0.0101,0.0555,0.131,0.1815,0.2219,0.2522,0.3027,0.318,0.318,0.0,0.0,0.0,0.0,0.0,0.0,0.0,0.0,0.0,0.0,0.0,0.0,0.0,0.0,0.0,0.0,0.0,0.0,0.0,0.0,-1.9605,-1.9605,-1.9274,-1.9108,-1.9108,-1.8573,-1.8269,-1.8202,-1.7691,-1.7132,-1.6603,-1.6533,-1.6272,-1.5805,-1.5805,-1.5805,-1.5805,-1.5805,-1.5805,-1.5805,-1.5805,-1.6011,-1.6334,-1.6693,0.0,0.0,0.0,0.0,0.0,0.0,0.0,0.0,-1.4265,-1.3379,-1.2406,-1.232,-1.1828,-1.1386,-1.1639,-1.1731,-1.1871,-1.2307,-1.2336,-1.2114,-1.1376,-1.0828,-1.0337,-0.9948,-0.8863,-0.7826,-0.7185,-0.6489,-0.5992,-0.5892,-0.5288,-0.4784,-0.4784,-0.4784,-0.4784,-0.4784,-0.4784,-0.4784,-0.4784,-0.4784,-0.4784,-0.4784,-0.4784,-0.4784,-0.4784,-0.4784,-0.4784,-0.4784,-0.4784,-0.4784,-0.4784,-0.4284,-0.3932,-0.378,-0.2016,-0.1159,-0.1058,-0.1765,-0.1463,-0.0252,0.0504,0.0857,0.0907,0.0907,0.1361,0.2118,0.2118,0.2573,0.318,0.318,0.318,0.318,0.0,0.0,0.0,0.0,0.0,0.0,0.0,0.0,0.0,0.0,0.0,0.0,0.0,0.0,0.0,0.0,0.0,0.0,0.0,0.0,-1.9605,-1.9605,-1.9274,-1.9108,-1.9108,-1.8573,-1.8066,-1.7579,-1.7442,-1.7132,-1.6603,-1.6167,-1.5903,-1.5805,-1.5805,-1.5805,-1.5805,-1.5805,-1.5805,-1.5805,-1.5805,-1.6011,-1.6308,-1.6439,-1.6922,0.0,0.0,0.0,0.0,0.0,0.0,0.0,-1.3167,-1.2619,-1.2277,-1.1731,-1.1565,-1.1634,-1.1682,-1.1973,-1.2285,-1.2388,-1.1917,-1.1414,-1.1258,-0.9542,-0.8113,-0.8662,-0.8513,-0.7872,-0.6489,-0.6142,-0.5792,-0.5135,-0.4935,-0.4784,-0.4784,-0.4784,-0.4784,-0.4784,-0.4784,-0.4784,-0.4784,-0.4784,-0.4784,-0.4784,-0.4784,-0.4784,-0.4784,-0.4784,-0.4784,-0.4784,-0.4784,-0.4784,-0.4784,-0.4284,-0.3476,-0.2416,-0.1612,-0.0655,0.0353,0.0202,0.0252,0.0555,0.0706,0.1159,0.1765,0.1765,0.2219,0.2927,0.2927,0.3029,0.318,0.318,0.318,0.318,0.0,0.0,0.0,0.0,0.0,0.0,0.0,0.0,0.0,0.0,0.0,0.0,0.0,0.0,0.0,0.0,0.0,0.0,0.0,0.0,0.0,-1.9374,-1.9198,-1.8975,-1.8707,-1.8438,-1.7988,-1.7407,-1.7407,0.0,0.0,0.0,0.0,-1.5805,0.0,-1.5805,-1.5805,-1.5805,-1.5805,-1.5805,-1.5805,-1.5908,-1.6096,-1.6321,-1.663,0.0,0.0,0.0,0.0,0.0,0.0,0.0,0.0,0.0,-1.1817,-1.1392,-1.1396,-1.158,-1.1806,-1.2048,-1.2197,-1.1886,-1.1099,-1.0293,-0.9649,-0.8414,-0.7276,-0.693,-0.6778,-0.6429,-0.5586,-0.5438,-0.5288,-0.4885,-0.4784,-0.4784,-0.4784,-0.4784,-0.4784,-0.4784,-0.4784,-0.4784,-0.4784,-0.4784,-0.4784,-0.4784,-0.4784,-0.4784,-0.4784,-0.4784,-0.4784,-0.4784,-0.428,-0.3979,-0.3827,-0.282,-0.1864,-0.1007,-0.0101,0.0907,0.1917,0.1563,0.1361,0.1412,0.1765,0.2169,0.2573,0.2573,0.2826,0.318,0.318,0.318,0.318,0.318,0.318,0.318,0.0,0.0,0.0,0.0,0.0,0.0,0.0,0.0,0.0,0.0,0.0,0.0,0.0,0.0,0.0,0.0,0.0,0.0,0.0,0.0,0.0,0.0,-1.9108,-1.8908,-1.8438,-1.8438,-1.8168,-1.7545,0.0,0.0,0.0,0.0,0.0,-1.5805,0.0,-1.5805,-1.5805,-1.5805,-1.5805,-1.5805,-1.5805,-1.5805,-1.584,0.0,0.0,0.0,0.0,0.0,0.0,0.0,0.0,0.0,0.0,0.0,-1.1305,-1.1305,-1.1337,-1.145,-1.1927,-1.1951,-1.1739,-1.1075,-1.0096,-0.8966,-0.7879,-0.7381,-0.6783,-0.5489,-0.5037,-0.4834,-0.4784,-0.4784,-0.4784,-0.4784,-0.4784,-0.4784,-0.4784,-0.4784,-0.4784,-0.4784,-0.4784,-0.4784,-0.4784,-0.4784,-0.4784,-0.4784,-0.4784,-0.4734,-0.4533,-0.4533,-0.4431,-0.4178,-0.3323,-0.2718,-0.2467,-0.1058,-0.0151,0.0202,0.1563,0.2573,0.318,0.2522,0.2219,0.2219,0.2927,0.318,0.318,0.318,0.318,0.318,0.318,0.318,0.318,0.318,0.318,0.318,0.0,0.0,0.0,0.0,0.0,0.0,0.0,0.0,0.0,0.0,0.0,0.0,0.0,0.0,0.0,0.0,0.0,0.0,0.0,0.0,0.0,-1.9098,-1.9108,-1.9075,-1.9008,-1.9008,-1.8741,-1.8168,0.0,0.0,0.0,0.0,0.0,-1.5805,0.0,0.0,-1.5805,-1.5805,-1.5805,-1.5805,-1.5805,-1.5805,0.0,0.0,0.0,0.0,0.0,0.0,0.0,0.0,-1.2619,0.0,0.0,0.0,-1.1305,-1.1305,-1.145,-1.1666,-1.1731,-1.139,-1.0786,-0.9996,-0.8817,-0.7829,-0.763,-0.6537,-0.5441,-0.524,-0.519,-0.5087,-0.4834,-0.4784,-0.4784,-0.4784,-0.4784,-0.4784,-0.4784,-0.4784,-0.4784,-0.4784,-0.4784,-0.4784,-0.4784,-0.4784,-0.4784,-0.4784,-0.4784,-0.4381,-0.3475,-0.3425,-0.2869,-0.171,-0.156,-0.1358,-0.1056,-0.0403,0.0302,0.1058,0.2422,0.3079,0.318,0.3079,0.3029,0.3029,0.313,0.318,0.318,0.318,0.318,0.318,0.318,0.318,0.318,0.318,0.318,0.318,0.0,0.0,0.0,0.0,0.0,0.0,0.0,0.0,0.0,0.0,0.0,0.0,0.0,0.0,0.0,0.0,0.0,0.0,0.0,0.0,0.0,-1.9108,-1.9108,-1.8975,-1.8674,-1.864,-1.8226,0.0,0.0,0.0,0.0,-1.6473,-1.6307,0.0,0.0,0.0,0.0,-1.5805,-1.5805,-1.5805,-1.5805,-1.5783,0.0,0.0,0.0,0.0,0.0,0.0,0.0,0.0,-1.2112,-1.1731,-1.1392,0.0,0.0,0.0,-1.138,-1.1426,-1.1096,-1.0077,-0.9039,-0.8576,-0.758,-0.6637,-0.6337,-0.5689,-0.514,-0.4987,-0.4987,-0.4937,-0.4834,-0.4784,-0.4784,-0.4784,-0.4784,-0.4784,-0.4784,-0.4784,-0.4784,-0.4784,-0.4784,-0.4784,-0.4784,-0.4784,-0.4784,-0.4784,-0.423,-0.3676,-0.3224,-0.262,-0.1964,-0.1207,-0.0604,-0.0101,0.0302,0.1159,0.1815,0.232,0.2927,0.318,0.318,0.318,0.318,0.318,0.318,0.318,0.318,0.318,0.318,0.318,0.318,0.318,0.318,0.318,0.318,0.3281,0.0,0.0,0.0,0.0,0.0,0.0,0.0,0.0,0.0,0.0,0.0,0.0,0.0,0.0,0.0,0.0,0.0,0.0,0.0,0.0,0.0,-1.9108,-1.9108,-1.8908,-1.8506,-1.8371,-1.7886,0.0,0.0,0.0,-1.6,-1.6272,-1.6167,0.0,-1.5805,0.0,0.0,0.0,0.0,0.0,0.0,0.0,0.0,0.0,0.0,0.0,0.0,0.0,0.0,0.0,0.0,-1.1305,-1.1305,-1.1305,0.0,0.0,0.0,-1.0683,-0.9839,-0.8582,-0.7442,-0.7137,-0.6393,-0.5658,-0.5286,-0.514,-0.5037,-0.4834,-0.4784,-0.4784,-0.4784,-0.4784,-0.4784,-0.4784,-0.4784,-0.4784,-0.4784,-0.4784,-0.4784,-0.4784,-0.4784,-0.4784,-0.4784,-0.4533,-0.4381,-0.4381,-0.3425,-0.267,-0.2417,-0.1562,-0.0857,-0.0302,0.0554,0.121,0.1714,0.2522,0.2977,0.318,0.318,0.318,0.318,0.318,0.318,0.318,0.318,0.318,0.318,0.318,0.318,0.318,0.318,0.318,0.318,0.318,0.3381,0.3732,0.0,0.0,0.0,0.0,0.0,0.0,0.0,0.0,0.0,0.0,0.0,0.0,0.0,0.0,0.0,-2.119,0.0,0.0,0.0,0.0,0.0,-1.9098,-1.9108,0.0,-1.9075,-1.8573,0.0,0.0,0.0,0.0,-1.6533,-1.607,-1.5832,-1.5805,-1.5805,-1.5805,-1.5805,0.0,0.0,0.0,0.0,0.0,0.0,0.0,0.0,0.0,0.0,0.0,0.0,0.0,0.0,0.0,-1.1305,-1.1305,-1.1305,0.0,0.0,0.0,-0.7639,-0.6913,-0.6475,-0.5779,-0.5396,-0.5174,-0.5168,-0.4987,-0.4834,-0.4784,-0.4784,-0.4784,-0.4784,-0.4784,-0.4784,-0.4784,-0.4784,-0.4784,-0.4784,-0.4784,-0.4784,-0.4784,-0.4784,-0.4784,-0.4784,-0.3879,-0.3274,-0.3274,-0.2267,-0.126,-0.0202,0.0151,0.0907,0.2169,0.2522,0.2826,0.3079,0.313,0.318,0.318,0.318,0.318,0.318,0.318,0.318,0.318,0.318,0.318,0.318,0.318,0.318,0.318,0.318,0.318,0.318,0.318,0.3833,0.4734,0.0,0.0,0.0,0.0,0.0,0.0,0.0,0.0,0.0,0.0,0.0,0.0,0.0,-2.1639,-2.1526,-2.1221,-2.0839,0.0,0.0,0.0,0.0,-1.9098,-1.9108,-1.8942,-1.8607,-1.8405,0.0,0.0,0.0,-1.6403,-1.607,-1.5903,-1.5805,-1.5805,-1.5805,-1.5805,-1.5805,-1.5805,0.0,0.0,0.0,0.0,0.0,0.0,0.0,0.0,0.0,0.0,0.0,0.0,0.0,0.0,0.0,0.0,0.0,0.0,-0.9056,-0.7646,-0.6947,-0.6213,-0.5614,-0.5251,-0.5144,-0.5054,-0.4894,-0.4845,-0.4784,-0.4784,-0.4784,-0.4784,-0.4784,-0.4784,-0.4784,-0.4784,-0.4784,-0.4784,-0.4784,-0.4784,-0.4784,-0.4784,-0.418,-0.3776,-0.3776,-0.2821,-0.2167,-0.2167,-0.1159,-0.0403,0.0,0.0908,0.1716,0.2371,0.2674,0.2927,0.318,0.318,0.318,0.318,0.318,0.318,0.318,0.318,0.318,0.318,0.318,0.318,0.318,0.318,0.318,0.3281,0.3934,0.4234,0.4334,0.4981,0.5477,0.5929,0.0,0.0,0.0,0.0,0.0,0.0,0.0,0.0,0.0,0.0,0.0,0.0,0.0,0.0,-2.1494,-2.1031,-2.0732,-2.041,-1.9944,-1.9726,-1.944,-1.9098,-1.9108,-1.8841,-1.8303,0.0,0.0,0.0,0.0,0.0,0.0,-1.5805,-1.5805,-1.5805,-1.5805,-1.5805,0.0,0.0,0.0,-1.561,0.0,0.0,-1.4339,0.0,0.0,0.0,0.0,0.0,0.0,0.0,0.0,0.0,0.0,0.0,0.0,0.0,0.0,0.0,-0.6082,-0.5431,-0.4867,-0.4826,-0.4851,-0.4822,-0.4742,-0.4751,-0.475,-0.4778,-0.4784,-0.4784,-0.4784,-0.4784,-0.4784,-0.4784,-0.4784,-0.4784,-0.4784,-0.4784,-0.4684,-0.4331,-0.3626,-0.3073,-0.272,-0.1713,-0.1058,-0.1058,0.0,0.0656,0.0656,0.1666,0.2373,0.2674,0.2826,0.3027,0.318,0.318,0.318,0.318,0.318,0.318,0.318,0.318,0.318,0.318,0.318,0.318,0.318,0.318,0.343,0.3831,0.4533,0.5033,0.5429,0.6124,0.6623,0.7021,0.0,0.0,0.0,0.0,0.0,0.0,0.0,0.0,0.0,0.0,0.0,0.0,0.0,0.0,0.0,-2.0646,-2.0603,-2.0313,-1.9638,-1.9605,-1.944,-1.9098,0.0,0.0,0.0,0.0,0.0,0.0,0.0,0.0,0.0,0.0,-1.5805,-1.5805,-1.5797,-1.577,-1.5778,0.0,-1.5383,-1.5568,0.0,-1.4158,-1.4314,0.0,0.0,0.0,-1.1564,-1.1262,0.0,-1.0346,0.0,0.0,0.0,0.0,0.0,0.0,0.0,0.0,0.0,0.0,0.0,-0.4364,-0.4386,-0.4437,-0.4663,-0.4706,-0.4732,-0.4766,-0.4784,-0.4784,-0.4784,-0.4784,-0.4734,-0.4734,-0.4734,-0.4734,-0.4734,-0.4734,-0.4331,-0.3274,-0.3123,-0.272,-0.1663,-0.0605,0.005,0.005,0.1262,0.2022,0.2022,0.2524,0.2927,0.318,0.318,0.318,0.318,0.318,0.318,0.318,0.318,0.318,0.318,0.318,0.318,0.318,0.323,0.323,0.323,0.323,0.3883,0.4784,0.4885,0.5532,0.6473,0.6473,0.7173,0.8071,0.0,0.0,0.0,0.0,0.0,0.0,0.0,0.0,0.0,0.0,0.0,0.0,0.0,0.0,0.0,-2.0646,-2.0603,-2.0313,-1.9638,-1.9605,-1.944,-1.9098,-1.8741,-1.8269,-1.7647,0.0,0.0,0.0,0.0,0.0,0.0,0.0,0.0,0.0,-1.5505,-1.5505,-1.5702,-1.5356,0.0,-1.5073,-1.3793,-1.3433,0.0,0.0,0.0,0.0,0.0,-1.0868,-1.026,0.0,-0.9939,-0.9939,0.0,0.0,0.0,0.0,0.0,0.0,-0.4567,0.0,0.0,0.0,0.0,0.0,-0.4583,-0.4661,-0.4732,-0.4766,-0.4784,-0.4784,-0.4784,-0.418,-0.3626,-0.3626,-0.3626,-0.3626,-0.3626,-0.2972,-0.2368,-0.2066,-0.136,-0.0756,-0.0454,0.0504,0.1262,0.1414,0.1768,0.2071,0.2271,0.2624,0.2927,0.318,0.318,0.318,0.318,0.318,0.318,0.318,0.318,0.318,0.318,0.318,0.318,0.323,0.4033,0.4334,0.4334,0.4334,0.4533,0.4935,0.6528,0.7273,0.767,0.8425,0.8924,0.9175,0.0,0.0,0.0,0.0,0.0,0.0,0.0,0.0,0.0,0.0,0.0,0.0,0.0,0.0,0.0,-2.0431,-2.041,-2.0118,-1.944,-1.9175,-1.8975,-1.8764,-1.8236,-1.7647,-1.7097,-1.6742,-1.6333,-1.5805,-1.5805,-1.5805,-1.5805,0.0,0.0,0.0,0.0,0.0,0.0,0.0,0.0,0.0,-1.3553,-1.3149,-1.3264,-1.1817,-1.1305,-1.1305,-1.1305,-1.0959,-1.0352,-0.9645,-0.9137,0.0,0.0,0.0,0.0,0.0,0.0,0.0,0.0,0.0,0.0,0.0,0.0,0.0,-0.4542,-0.4614,-0.4687,-0.476,-0.4784,-0.4684,-0.423,-0.3626,-0.3073,-0.262,-0.2166,-0.2015,-0.2469,-0.2017,-0.1412,-0.1008,-0.0403,0.0151,0.0605,0.1313,0.1819,0.1971,0.2223,0.2474,0.2725,0.2876,0.3029,0.318,0.318,0.318,0.318,0.318,0.318,0.318,0.318,0.318,0.318,0.318,0.343,0.3882,0.4533,0.5033,0.5479,0.5929,0.6129,0.6279,0.7524,0.8273,0.8726,0.9377,0.9579,0.9579,0.0,0.0,0.0,0.0,0.0,0.0,0.0,0.0,0.0,0.0,0.0,0.0,0.0,0.0,0.0,0.0,-2.0249,-1.9921,-1.9281,-1.866,-1.8303,-1.8303,-1.7647,-1.7097,-1.6603,-1.6542,-1.6289,-1.5857,-1.5822,-1.5848,-1.5925,-1.5882,0.0,0.0,0.0,0.0,0.0,0.0,0.0,-1.5212,-1.347,-1.2977,-1.3137,-1.1817,-1.1305,-1.1305,-1.1176,-1.1089,-1.0725,-0.9052,-0.7936,0.0,0.0,0.0,0.0,0.0,-0.5329,0.0,0.0,0.0,0.0,0.0,-0.43,0.0,-0.4387,-0.4429,-0.4428,-0.4447,-0.4431,-0.413,-0.3173,-0.2922,-0.2518,-0.1562,-0.0504,-0.0202,-0.126,-0.1311,-0.0907,0.005,0.0202,0.0555,0.1515,0.1819,0.1971,0.2021,0.2524,0.2927,0.318,0.318,0.318,0.318,0.318,0.318,0.318,0.318,0.318,0.318,0.318,0.318,0.318,0.3331,0.3882,0.4834,0.5033,0.5679,0.6672,0.7723,0.8124,0.8021,0.812,0.8772,0.9579,0.9579,0.9579,0.9579,0.0,0.0,0.0,0.0,0.0,0.0,0.0,0.0,0.0,0.0,0.0,0.0,0.0,0.0,0.0,0.0,-2.114,-2.0573,-2.0169,-1.9002,-1.8303,-1.8303,-1.7304,-1.6716,-1.6603,-1.6167,-1.6049,-1.6197,-1.5942,-1.6114,-1.6696,-1.6424,0.0,0.0,0.0,0.0,0.0,0.0,-1.4192,-1.4455,-1.2765,-1.2296,-1.2497,-1.1645,-1.1305,-1.1219,-1.0429,-0.9685,-0.8876,-0.7663,-0.7129,-0.695,0.0,0.0,0.0,-0.524,0.0,0.0,0.0,0.0,0.0,0.0,-0.43,0.0,-0.344,-0.3328,-0.3126,-0.24,-0.2217,-0.2167,-0.1966,-0.1209,-0.0504,-0.005,0.0706,0.0908,-0.0151,0.0454,0.106,0.1262,0.1313,0.1364,0.1566,0.1667,0.1869,0.227,0.2826,0.313,0.318,0.318,0.318,0.318,0.318,0.318,0.318,0.318,0.318,0.318,0.318,0.318,0.323,0.4083,0.4583,0.4883,0.6628,0.7475,0.7773,0.8825,0.8775,0.8074,0.8973,0.9426,0.9579,0.9579,0.9579,0.9579,0.0,0.0,0.0,0.0,0.0,0.0,0.0,0.0,0.0,0.0,0.0,0.0,0.0,0.0,0.0,0.0,0.0,0.0,0.0,-1.873,-1.7986,-1.7986,-1.7,-1.6439,-1.6439,-1.6024,-1.5977,-1.6291,-1.6165,-1.6362,-1.6918,-1.6721,-1.6346,0.0,0.0,0.0,0.0,0.0,-1.3252,-1.3324,-1.2475,-1.2246,-1.232,-1.1564,-1.0997,-1.0559,-1.0077,-0.8982,-0.7701,-0.7165,-0.6642,-0.6113,-0.5925,-0.5704,-0.5408,0.0,-0.4491,-0.437,0.0,0.0,0.0,-0.43,-0.3941,0.0,0.0,-0.2615,-0.2116,-0.17,-0.1613,-0.1462,-0.0907,-0.0252,0.0403,0.111,0.1515,0.1667,0.1261,0.1414,0.1617,0.1617,0.1617,0.1667,0.1768,0.1919,0.2221,0.2775,0.3029,0.318,0.318,0.318,0.318,0.318,0.318,0.318,0.318,0.318,0.318,0.323,0.3732,0.3982,0.4033,0.5131,0.5879,0.6484,0.7651,0.8438,0.8998,0.9649,0.9583,0.9154,0.9444,0.9579,0.9591,0.9726,0.9758,0.977,0.0,0.0,0.0,0.0,0.0,0.0,0.0,0.0,0.0,0.0,0.0,0.0,0.0,0.0,0.0,0.0,0.0,0.0,0.0,-1.849,-1.7791,-1.771,-1.6861,-1.6411,-1.6411,-1.6165,-1.6191,-1.6513,-1.6527,-1.6696,-1.7094,-1.6941,-1.6311,-1.5303,0.0,0.0,0.0,0.0,-1.2406,-1.2406,-1.224,-1.2198,-1.2112,-1.1521,-1.0733,-0.9859,-0.9506,-0.8281,-0.6828,-0.6759,-0.6101,-0.5315,-0.5059,-0.4862,-0.4714,-0.4472,0.0,0.0,0.0,0.0,-0.4253,-0.4074,-0.3449,-0.2805,0.0,0.0,0.0,-0.0996,-0.1006,-0.0706,0.0151,0.0504,0.1008,0.191,0.2066,0.2169,0.2409,0.2065,0.1768,0.1768,0.1718,0.1768,0.2071,0.2322,0.2674,0.3079,0.318,0.318,0.318,0.318,0.318,0.318,0.318,0.318,0.318,0.318,0.318,0.323,0.4349,0.4859,0.4909,0.6231,0.7299,0.8116,0.8496,0.917,0.9949,1.0151,1.0212,1.0188,0.9843,0.973,0.9746,0.9888,0.9937,0.9961,-2.42,-2.42,0.0,0.0,0.0,0.0,0.0,0.0,0.0,0.0,0.0,0.0,0.0,0.0,0.0,0.0,0.0,0.0,-2.0323,-1.9008,-1.8049,-1.7719,-1.7122,-1.6812,-1.6812,-1.6778,-1.697,-1.7377,-1.7013,-1.7218,-1.7863,-1.7158,-1.6405,-1.5632,-1.5265,-1.4462,0.0,-1.2693,-1.2406,-1.232,-1.1688,-1.1435,-1.1435,-1.1348,-1.0733,-0.9685,-0.8017,-0.6745,-0.5796,-0.5469,-0.5262,-0.5064,-0.464,-0.4563,-0.4678,-0.4385,-0.443,-0.4518,-0.4346,-0.43,-0.4119,-0.3269,-0.3001,-0.2434,-0.0738,0.0,0.0192,0.103,0.0,0.1263,0.1414,0.0,0.0,0.222,0.2295,0.2407,0.2614,0.2446,0.2321,0.2321,0.2121,0.2071,0.2321,0.2573,0.2775,0.2826,0.3079,0.318,0.318,0.318,0.318,0.318,0.318,0.318,0.318,0.318,0.318,0.3232,0.4455,0.5049,0.5156,0.7367,0.8414,0.8574,0.9544,1.0024,1.0184,1.0204,1.0212,1.0208,1.0167,1.0155,1.0155,1.0175,1.0184,1.0188,0.0,0.0,0.0,0.0,0.0,0.0,0.0,0.0,0.0,0.0,0.0,0.0,0.0,0.0,0.0,0.0,0.0,-2.0734,-1.9913,0.0,0.0,-1.7883,-1.7463,-1.7235,-1.7235,-1.703,-1.7098,-1.7505,-1.7312,-1.7518,-1.7991,-1.7,-1.606,-1.5074,-1.4238,-1.3245,-1.216,-1.186,-1.1774,-1.1731,-1.1435,-1.1305,-1.1219,-1.0694,-0.955,-0.8105,-0.6745,-0.5952,-0.5489,-0.5298,-0.5044,-0.4849,-0.4697,-0.4564,-0.4538,-0.4475,-0.4475,-0.4465,-0.4334,-0.3886,-0.3366,-0.3011,-0.2035,-0.1006,-0.0185,0.047,0.1055,0.1516,0.0,0.0,0.0,0.0,0.0,0.0,0.261,0.2717,0.2946,0.2661,0.2422,0.2422,0.2321,0.2322,0.2623,0.2876,0.3029,0.3029,0.313,0.318,0.318,0.318,0.318,0.318,0.3213,0.3588,0.4298,0.4345,0.4731,0.5404,0.6583,0.7122,0.7177,0.8807,0.9526,0.9582,1.0112,1.0318,1.0327,1.0428,1.0469,1.0469,1.0469,1.0343,1.0228,1.0282,1.0318,1.0335,0.0,0.0,0.0,0.0,0.0,0.0,0.0,0.0,0.0,0.0,0.0,0.0,-2.325,-2.3107,0.0,0.0,-2.1113,-2.0449,-1.9493,-1.8993,-1.8579,-1.8162,-1.7826,-1.7672,-1.7814,-1.7415,-1.7355,-1.7629,-1.7415,-1.7391,-1.7619,-1.6404,-1.5323,-1.428,-1.3275,-1.2307,-1.1402,-1.1402,-1.1439,-1.1498,-1.1498,-1.1193,-1.0557,-0.9791,-0.85,-0.6966,-0.6041,-0.5573,-0.5398,-0.5281,-0.5018,-0.4741,-0.473,-0.4647,-0.4518,-0.4559,-0.4352,-0.4062,-0.4276,-0.3562,-0.2759,-0.2521,-0.145,-0.0229,0.0275,0.0983,0.1532,0.1554,0.164,0.0,0.0,0.0,0.2568,0.0,0.0,0.2972,0.3158,0.2867,0.2623,0.2623,0.2623,0.2674,0.2876,0.3079,0.318,0.318,0.318,0.318,0.318,0.3196,0.3205,0.3205,0.3315,0.3915,0.5104,0.517,0.5785,0.7004,0.8144,0.8635,0.8691,0.9803,1.0363,1.0314,1.0448,1.0505,1.0513,1.0639,1.0692,1.0692,1.0692,1.0534,1.0375,1.0456,1.0505,1.0521,-2.42,-2.42,0.0,0.0,0.0,0.0,0.0,0.0,-2.42,-2.42,-2.3861,-2.325,0.0,0.0,0.0,0.0,0.0,-2.0021,-1.9247,-1.9196,-1.9024,-1.8588,0.0,-1.8186,-1.8545,-1.8186,-1.7965,-1.7974,-1.7139,-1.6731,-1.6698,-1.5179,-1.409,-1.3408,-1.2741,-1.2163,-1.1688,-1.1688,-1.1817,-1.2073,-1.2073,-1.0828,-0.896,-0.8649,-0.7929,-0.6966,-0.6041,-0.5626,-0.5445,-0.5172,-0.5004,-0.4843,-0.4672,-0.4634,-0.4683,-0.4598,-0.3905,-0.3344,-0.4152,-0.3602,-0.2574,-0.1664,-0.1387,-0.0896,0.0942,0.1437,0.1478,0.148,0.1772,0.1971,0.2022,0.0,0.0,0.0,0.0,0.0,0.0,0.3144,0.318,0.318,0.318,0.318,0.318,0.318,0.318,0.318,0.318,0.318,0.318,0.3286,0.3319,0.3319,0.3377,0.399,0.5199,0.5204,0.5785,0.7004,0.8245,0.8797,0.8854,1.0101,1.0676,1.0676,1.068,1.0684,1.0684,1.0688,1.0692,1.0692,1.0692,1.0684,1.0676,1.068,1.0684,1.0684,0.0,0.0,0.0,0.0,0.0,-2.4303,-2.4625,-2.4671,-2.4524,-2.4106,-2.3957,-2.3324,-2.193,-2.1672,-2.1309,-2.0578,-2.0544,-2.0175,-1.9247,-1.9213,-1.9041,-1.8605,-1.8188,-1.817,0.0,-1.8228,-1.7708,-1.7155,-1.6821,-1.6412,-1.5801,-1.442,-1.362,-1.3366,-1.2192,-1.1696,-1.1698,-1.1698,-1.1833,-1.2032,-1.1237,-1.0084,-0.8886,-0.869,-0.7683,-0.6261,-0.6029,-0.5712,-0.538,-0.5358,-0.507,-0.4685,-0.4708,-0.4687,-0.4624,-0.4655,-0.3912,-0.3112,-0.3402,-0.2187,-0.081,-0.0553,0.0046,0.0695,0.1264,0.1436,0.1478,0.1478,0.1771,0.2071,0.2221,0.0,0.0,0.0,0.0,0.0,0.0,0.3616,0.318,0.318,0.318,0.318,0.318,0.318,0.318,0.318,0.318,0.318,0.318,0.3289,0.3322,0.3322,0.4161,0.5244,0.6473,0.7254,0.8279,0.9479,0.986,1.005,1.0054,1.0499,1.0692,1.0692,1.0692,1.0692,1.0692,1.0692,1.0692,1.0692,1.0692,1.0692,1.0692,1.0692,1.0692,1.0692,-2.5716,0.0,0.0,0.0,-2.474,-2.4843,-2.5153,-2.4835,-2.4493,-2.4215,-2.3816,-2.3186,-2.213,-2.1801,-2.1446,-2.0941,-2.0669,-2.0184,-1.9247,-1.9299,-1.9204,-1.8811,-1.8221,-1.8054,-1.8462,-1.7646,-1.693,-1.6383,-1.5971,-1.5455,-1.4887,-1.3542,-1.2912,-1.2869,-1.1768,-1.1482,-1.1822,-1.1822,-1.2056,-1.2228,-1.0933,-0.9813,-0.8901,-0.8436,-0.7305,-0.592,-0.5949,-0.5686,-0.5348,-0.5366,-0.5028,-0.4685,-0.475,-0.4757,-0.4677,-0.4736,-0.3679,-0.257,-0.2935,-0.1503,0.0097,0.0047,0.0519,0.1087,0.1371,0.1498,0.1539,0.1528,0.182,0.2171,0.2371,0.2674,0.0,0.0,0.0,0.0,0.0,0.3982,0.3632,0.323,0.318,0.318,0.318,0.318,0.318,0.318,0.318,0.3189,0.3211,0.332,0.352,0.4014,0.4884,0.6101,0.7735,0.8485,0.953,1.0692,1.0692,1.0692,1.0692,1.0692,1.0692,1.0692,1.0692,1.0692,1.0692,1.0692,1.0692,1.0692,1.0692,1.0692,1.0692,1.0692,1.0692,1.0692,-2.5853,-2.5865,-2.5814,-2.5787,-2.5734,-2.5688,-2.5695,-2.473,-2.4127,-2.4395,-2.3471,-2.2784,-2.2721,-2.2141,-2.1616,-2.123,-2.0706,-2.0026,-1.9316,-1.9573,-1.9554,-1.917,-1.8205,-1.7834,-1.8137,0.0,0.0,0.0,-1.457,-1.3957,-1.3873,-1.2583,-1.2,-1.1957,-1.1537,-1.1612,-1.2078,-1.2089,-1.2312,-1.2539,-1.1091,-0.9908,-0.8889,-0.7868,-0.6808,-0.5891,-0.5782,-0.5653,-0.5447,-0.5198,-0.4963,-0.4784,-0.4784,-0.4784,-0.4784,-0.4734,-0.3224,-0.1808,-0.271,-0.1421,0.0195,0.0192,0.0191,0.0427,0.1303,0.1529,0.1563,0.1534,0.1967,0.2422,0.2422,0.2826,0.323,0.0,0.0,0.0,0.0,0.4083,0.4334,0.3331,0.318,0.318,0.318,0.318,0.318,0.318,0.318,0.3207,0.3318,0.3432,0.4025,0.5287,0.5488,0.6647,0.8865,0.8978,0.9585,1.0692,1.0692,1.0692,1.0692,1.0692,1.0692,1.0692,1.0692,1.0692,1.0692,1.0692,1.0692,1.0692,1.0692,1.0692,1.0692,1.0692,1.0692,1.0692,-2.7862,-2.7931,-2.7668,-2.6936,-2.6208,-2.5633,-2.5431,-2.4908,-2.4263,-2.3641,-2.3002,-2.2433,-2.1813,-2.1623,-2.1444,-2.1358,-2.1217,-2.0805,-2.0052,-2.0095,-1.9662,-1.8523,-1.7986,-1.7518,-1.7093,-1.6242,-1.5476,-1.4779,-1.4273,-1.3578,-1.2784,-1.2246,-1.1914,-1.1748,-1.1663,-1.1677,-1.1801,-1.2019,-1.1739,-1.1081,-0.9948,-0.8889,-0.7973,-0.6996,-0.6441,-0.6189,-0.6208,-0.5921,-0.5549,-0.5497,-0.5164,-0.4784,-0.4784,-0.4784,-0.4634,-0.3827,-0.267,-0.146,-0.0952,0.02,0.1198,0.1224,0.1219,0.1261,0.1474,0.1544,0.1618,0.1562,0.2035,0.2422,0.2422,0.2826,0.3482,0.0,0.0,0.0,0.0,0.343,0.3531,0.323,0.318,0.318,0.318,0.318,0.318,0.318,0.318,0.3207,0.3318,0.4215,0.4929,0.5287,0.7084,0.8312,0.892,0.9805,1.0414,1.0692,1.0692,1.0692,1.0692,1.0692,1.0692,1.0692,1.0692,1.0692,1.0692,1.0692,1.0692,1.0692,1.0692,1.0692,1.0692,1.0692,1.0692,1.0692,-2.7983,-2.7667,-2.7172,-2.6496,-2.5894,-2.5484,-2.5312,-2.4612,-2.3871,-2.3448,-2.2771,-2.223,-2.1956,-2.1764,-2.1662,-2.1662,-2.1508,-2.1165,-2.0583,-2.0694,-2.0071,-1.8526,-1.8054,-1.7317,-1.6341,-1.5323,0.0,-1.4027,-1.361,-1.3133,-1.2539,-1.229,-1.2129,-1.2015,-1.1924,-1.1914,-1.1981,-1.1781,-1.1296,-1.0548,-0.9138,-0.8197,0.0,-0.6677,-0.6298,-0.635,-0.6266,-0.5937,-0.5584,-0.5334,-0.5035,-0.4784,-0.4784,-0.4784,-0.4582,-0.3525,-0.2418,-0.1361,-0.0302,0.0807,0.1613,0.1596,0.1592,0.1583,0.1553,0.1569,0.1588,0.1624,0.1944,0.2271,0.2371,0.2725,0.3279,0.3982,0.0,0.0,0.3281,0.3581,0.3732,0.3281,0.3632,0.3732,0.323,0.318,0.318,0.318,0.3632,0.3712,0.3318,0.4476,0.5194,0.5287,0.7089,0.8304,0.892,1.0011,1.0615,1.0692,1.0692,1.0692,1.0692,1.0692,1.0692,1.0692,1.0692,1.0692,1.0692,1.0692,1.0692,1.0692,1.0692,1.0692,1.0692,1.0692,1.0692,1.0692,-2.7224,-2.6507,-2.5772,-2.5351,-2.5249,-2.5203,-2.5019,-2.397,-2.3288,-2.354,-2.2624,-2.2133,-2.256,-2.2311,-2.2064,-2.2064,-2.1756,-2.1405,-2.1054,-2.1168,-2.0483,-1.8815,-1.8043,-1.7033,-1.5675,-1.4233,-1.3507,-1.3568,-1.3028,-1.2727,-1.2727,-1.2549,-1.244,-1.2369,-1.2218,-1.2169,-1.2136,-1.1419,-1.0841,-1.0208,-0.8461,-0.7656,-0.7424,-0.6623,-0.6303,-0.6287,-0.6039,-0.5789,-0.5536,-0.5035,-0.4834,-0.4784,-0.4784,-0.4684,-0.4381,-0.3324,-0.2217,-0.1159,-0.0101,0.0908,0.1617,0.1617,0.1617,0.161,0.1583,0.1598,0.1609,0.1583,0.1798,0.2071,0.2371,0.2623,0.2927,0.318,0.318,0.318,0.318,0.3982,0.4234,0.3331,0.4033,0.0,0.3281,0.318,0.318,0.318,0.4183,0.4374,0.3382,0.4534,0.5252,0.5303,0.6503,0.7689,0.8838,0.9931,1.0534,1.066,1.068,1.0692,1.0692,1.0692,1.0692,1.0692,1.0692,1.0692,1.0692,1.0692,1.0692,1.0692,1.0692,1.0692,1.0692,1.0692,1.0692,1.0692,-2.73,-2.7045,-2.6574,-2.5487,-2.5102,-2.4618,-2.3561,-2.3279,-2.3114,-2.2836,-2.2324,-2.2133,-2.256,-2.2534,-2.25,-2.25,-2.2439,-2.2242,-2.1824,-2.0999,-1.9844,-1.8458,-1.7176,-1.5996,-1.4931,-1.3963,-1.3596,-1.3839,-1.3294,-1.2944,-1.2762,-1.2762,-1.2512,-1.2145,-1.2305,-1.189,-1.1053,-1.0731,-0.9618,-0.8048,-0.7801,-0.723,-0.652,-0.6421,-0.6271,-0.6039,-0.5789,-0.5636,-0.5536,-0.5238,-0.4987,-0.4784,-0.4784,-0.418,-0.3274,-0.2217,-0.1109,-0.005,0.101,0.1465,0.1617,0.1617,0.1617,0.1615,0.161,0.1613,0.1615,0.161,0.1815,0.2071,0.2371,0.2775,0.313,0.318,0.318,0.318,0.318,0.3381,0.343,0.323,0.3381,0.343,0.323,0.318,0.318,0.318,0.4183,0.4398,0.3443,0.5356,0.6139,0.5398,0.7448,0.8616,0.8733,0.9984,1.059,1.0427,1.0623,1.0692,1.0692,1.0692,1.0692,1.0692,1.0692,1.0692,1.0692,1.0692,1.0692,1.0692,1.0692,1.0692,1.0692,1.0692,1.0692,1.0692,-2.5102,-2.49,-2.4735,-2.4177,-2.4026,-2.3678,-2.2896,-2.2862,-2.2805,-2.2652,-2.2439,-2.2397,-2.2577,-2.2594,-2.2594,-2.2594,-2.2594,-2.2525,-2.2345,-2.1252,-1.9977,-1.8633,-1.7375,-1.6019,-1.4523,-1.3969,-1.3653,-1.3479,-1.313,-1.2887,0.0,-1.28,-1.2681,-1.2425,-1.2002,-1.1515,-1.0922,-0.9721,-0.8627,-0.7717,-0.7208,-0.6747,-0.6361,-0.6365,-0.6239,-0.5942,-0.5687,-0.5486,-0.5338,-0.5087,-0.4887,-0.4784,-0.4784,-0.4079,-0.2972,-0.1915,-0.0857,0.0252,0.1313,0.1617,0.1617,0.1617,0.1617,0.1617,0.1617,0.1617,0.1617,0.1617,0.1718,0.1869,0.2121,0.2624,0.2977,0.2977,0.313,0.318,0.318,0.318,0.318,0.318,0.318,0.318,0.318,0.318,0.318,0.318,0.4183,0.4385,0.3412,0.497,0.5694,0.5351,0.6999,0.815,0.8811,0.9957,1.0562,1.057,1.0651,1.0692,1.0692,1.0692,1.0692,1.0692,1.0692,1.0692,1.0692,1.0692,1.0692,1.0692,1.0692,1.0692,1.0692,1.0692,1.1067,1.15,-2.3139,-2.2952,-2.2943,-2.2994,-2.2996,-2.2896,-2.2644,-2.2594,-2.2594,-2.2594,-2.2594,-2.2594,-2.2594,-2.2594,-2.2493,-2.2283,-2.2232,-2.2131,-2.1869,-2.0834,-1.9684,-1.8563,-1.7411,-1.6049,-1.4483,-1.4061,-1.3662,-1.3258,-1.2987,-1.2847,-1.2797,-1.2847,-1.273,-1.2414,-1.157,-1.0925,-1.0431,-0.8711,-0.7872,-0.7577,-0.6734,-0.6387,-0.6387,-0.6337,-0.6139,-0.5889,-0.5589,-0.5338,-0.509,-0.4885,-0.4784,-0.4784,-0.4784,-0.3929,-0.267,-0.1865,-0.0655,0.0504,0.1364,0.1617,0.1617,0.1617,0.1617,0.1617,0.1617,0.1617,0.1617,0.1617,0.1667,0.1768,0.1971,0.2373,0.2725,0.2725,0.2927,0.313,0.313,0.318,0.318,0.318,0.318,0.318,0.318,0.318,0.318,0.318,0.4198,0.4395,0.3389,0.459,0.5299,0.5285,0.6588,0.7762,0.8774,0.9919,1.0542,1.0639,1.0676,1.0692,1.0692,1.0692,1.0692,1.0692,1.0692,1.0692,1.0692,1.0692,1.0692,1.0692,1.0692,1.0692,1.0692,1.0692,1.1391,1.2254,-2.3393,-2.3343,-2.3253,-2.3038,-2.2996,-2.2896,-2.2644,-2.2594,-2.2594,-2.2594,-2.2594,-2.2594,-2.2594,-2.2594,-2.2182,-2.114,-2.1038,-2.0629,-1.9591,-1.8513,-1.7825,-1.7693,-1.6137,-1.5203,-1.5006,-1.4038,-1.3634,-1.3842,-1.3322,-1.2955,-1.2803,-1.2966,-1.2436,-1.137,-1.1219,-1.0141,-0.8269,-0.8071,-0.7428,-0.6534,-0.6437,-0.6387,-0.6387,-0.6139,-0.5889,-0.5586,-0.5338,-0.5087,-0.4834,-0.4784,-0.4784,-0.4784,-0.4784,-0.3374,-0.1714,-0.1613,-0.0151,0.1465,0.1566,0.1617,0.1617,0.1617,0.1617,0.1617,0.1617,0.1617,0.1617,0.1617,0.1768,0.1971,0.1971,0.2222,0.2422,0.2422,0.2674,0.2826,0.2826,0.3029,0.318,0.318,0.318,0.318,0.318,0.318,0.318,0.318,0.4244,0.4473,0.3454,0.536,0.6042,0.5122,0.7342,0.8478,0.847,0.9915,1.0599,1.0407,1.0615,1.0692,1.0692,1.0692,1.0692,1.0692,1.0692,1.0692,1.0692,1.0692,1.0692,1.0692,1.0692,1.0692,1.0692,1.0692,1.1391,1.2358,-2.2615,-2.2565,-2.2585,-2.2761,-2.2745,-2.2695,-2.2594,-2.2594,-2.2594,-2.2594,-2.2594,-2.2594,-2.2594,-2.1971,-2.1404,-2.0936,-2.0261,-1.9694,-1.9228,-1.8035,-1.7305,-1.7305,-1.583,-1.4918,-1.4618,-1.4206,-1.3807,-1.3408,-1.321,-1.2997,-1.2774,-1.2216,-1.1321,-1.0194,-0.955,-0.881,-0.7971,-0.7329,-0.6783,-0.6387,-0.6387,-0.6387,-0.6387,-0.6089,-0.5839,-0.5586,-0.529,-0.5037,-0.4784,-0.4784,-0.4784,-0.4784,-0.4784,-0.3324,-0.1613,-0.1613,-0.0101,0.1617,0.1617,0.1617,0.1617,0.1617,0.1617,0.1617,0.1617,0.1617,0.1617,0.1617,0.1667,0.1768,0.1768,0.197,0.2171,0.2171,0.2372,0.2623,0.2775,0.2876,0.3027,0.318,0.318,0.318,0.318,0.318,0.318,0.318,0.3604,0.4005,0.4287,0.5227,0.6174,0.7071,0.8196,0.9089,0.958,1.0349,1.066,1.059,1.066,1.0692,1.0692,1.0692,1.0692,1.0692,1.0692,1.0692,1.0692,1.0692,1.0692,1.0692,1.0692,1.0692,1.0692,1.0692,1.1391,1.2521,-2.2208,-2.2158,-2.2294,-2.2551,-2.2594,-2.2594,-2.2594,-2.2594,-2.2493,-2.2131,-2.208,-2.208,-2.208,-2.1404,-2.0629,-2.0012,-1.9176,-1.861,-1.8237,-1.7246,-1.6617,-1.6617,-1.5512,-1.4742,-1.4409,-1.4231,-1.3833,-1.3211,-1.3141,-1.2953,-1.2662,-1.1574,-1.0382,-0.911,-0.8319,-0.7822,-0.7478,-0.6734,-0.6387,-0.6387,-0.6387,-0.6387,-0.6387,-0.6039,-0.5789,-0.5536,-0.5188,-0.4937,-0.4784,-0.4784,-0.4582,-0.4331,-0.4331,-0.3073,-0.1563,-0.121,0.0151,0.1617,0.1617,0.1617,0.1617,0.1617,0.1617,0.1617,0.1617,0.1617,0.1617,0.1617,0.1617,0.1617,0.1617,0.1768,0.187,0.187,0.2121,0.2372,0.2524,0.2725,0.2876,0.3079,0.313,0.318,0.318,0.318,0.3188,0.3205,0.3207,0.374,0.4946,0.5431,0.654,0.8434,0.9017,0.9686,1.0383,1.0607,1.0692,1.0692,1.0692,1.0692,1.0692,1.0692,1.0692,1.0692,1.0692,1.0692,1.0692,1.0692,1.0692,1.0692,1.0692,1.0692,1.0692,1.0692,1.161,1.3004,-2.2594,-2.2594,-2.2594,-2.2594,-2.2594,-2.2594,-2.2594,-2.2594,-2.2182,-2.1089,-2.0936,-2.0936,-2.0936,-2.0885,-2.0004,-1.7838,-1.7635,-1.716,-1.5998,-1.569,-1.5535,-1.5535,-1.4928,-1.46,-1.46,-1.4097,-1.3706,-1.3526,-1.3227,-1.2867,-1.2373,-1.1305,-0.982,-0.8024,-0.8021,-0.7428,-0.6437,-0.6387,-0.6387,-0.6387,-0.6387,-0.6387,-0.6337,-0.5784,-0.5586,-0.5536,-0.4985,-0.4784,-0.4784,-0.4784,-0.4079,-0.3224,-0.3224,-0.2469,-0.1412,-0.0353,0.0757,0.1617,0.1617,0.1617,0.1617,0.1617,0.1617,0.1617,0.1617,0.1617,0.1617,0.1617,0.1617,0.1617,0.1617,0.1617,0.1617,0.1617,0.1819,0.2022,0.2022,0.2474,0.2826,0.2826,0.3029,0.318,0.318,0.318,0.3205,0.3316,0.332,0.3865,0.5145,0.6207,0.7372,0.8632,0.9781,1.0383,1.0383,1.0607,1.0692,1.0692,1.0692,1.0692,1.0692,1.0692,1.0692,1.0692,1.0692,1.0692,1.0692,1.0692,1.0692,1.0692,1.0692,1.0692,1.0692,1.0692,1.2146,1.4083,-2.1607,-2.1454,-2.12,-2.0416,-2.0261,-2.0261,-2.0261,-2.0261,-2.0158,-1.9797,-1.9746,-1.9435,-1.8715,-1.8662,-1.8356,-1.7687,-1.6895,-1.6211,-1.5636,-1.5315,-1.5095,-1.4874,-1.4504,-1.4353,-1.4353,-1.4169,-1.3879,-1.348,-1.34,-1.2404,-1.0453,-0.9372,-0.8171,-0.693,-0.693,-0.6734,-0.6387,-0.6387,-0.6387,-0.6387,-0.6387,-0.6287,-0.6089,-0.5737,-0.5486,-0.5288,-0.4935,-0.4784,-0.4684,-0.3977,-0.3475,-0.2922,-0.146,-0.0806,-0.0454,-0.0101,0.0757,0.1617,0.1617,0.1617,0.1617,0.1617,0.1617,0.1617,0.1617,0.1617,0.1617,0.1617,0.1617,0.1617,0.1617,0.1617,0.1617,0.1617,0.1667,0.1768,0.1971,0.2122,0.2323,0.2522,0.2623,0.2674,0.2674,0.2859,0.2975,0.2955,0.3194,0.4177,0.6202,0.6754,0.7849,0.9662,1.0319,1.0554,1.0383,1.0607,1.0692,1.0692,1.0692,1.0692,1.0692,1.0692,1.0692,1.0692,1.0692,1.0692,1.0692,1.0692,1.0692,1.0692,1.0692,1.0692,1.0692,1.0692,1.1664,1.3058,-2.1038,-2.057,-2.0055,-1.9332,-1.9176,-1.9176,-1.9176,-1.9176,-1.9072,-1.8662,-1.861,-1.8192,-1.7107,-1.6849,-1.6796,-1.6796,-1.6158,-1.563,-1.5315,-1.5041,-1.4767,-1.4606,-1.4347,-1.4196,-1.4196,-1.4196,-1.4003,-1.3604,-1.3012,-1.1671,-0.9558,-0.8517,-0.7428,-0.6387,-0.6387,-0.6387,-0.6387,-0.6387,-0.6387,-0.6387,-0.6287,-0.6139,-0.5942,-0.5589,-0.5338,-0.519,-0.4887,-0.4784,-0.4684,-0.4029,-0.3274,-0.2367,-0.1008,-0.005,0.0605,0.0605,0.106,0.1617,0.1617,0.1617,0.1617,0.1617,0.1617,0.1617,0.1617,0.1617,0.1617,0.1617,0.1617,0.1617,0.1617,0.1617,0.1617,0.1617,0.1617,0.1667,0.1819,0.1921,0.2071,0.2221,0.2321,0.2428,0.2445,0.2731,0.2908,0.2915,0.3209,0.4418,0.6805,0.7011,0.8081,1.0306,1.0574,1.0639,1.0534,1.0639,1.0692,1.0692,1.0692,1.0692,1.0692,1.0692,1.0692,1.0692,1.0692,1.0692,1.0692,1.0692,1.0692,1.0692,1.0692,1.0962,1.1341,1.1341,1.2363,1.3814,-2.068,-1.9797,-1.9072,-1.8968,-1.8968,-1.8968,-1.8968,-1.8968,-1.861,-1.7628,-1.7477,-1.7054,-1.5998,-1.5636,-1.5482,-1.5428,-1.5428,-1.5315,-1.4982,-1.4713,-1.46,-1.4552,-1.4347,-1.4196,-1.4196,-1.4196,-1.4008,-1.3688,-1.2149,-1.0734,-0.946,-0.8368,-0.7378,-0.6387,-0.6387,-0.6387,-0.6387,-0.6387,-0.6387,-0.6387,-0.6089,-0.5992,-0.5892,-0.5391,-0.519,-0.514,-0.4885,-0.4784,-0.4784,-0.4634,-0.3274,-0.1563,-0.1412,0.0,0.1617,0.1617,0.1617,0.1617,0.1617,0.1617,0.1617,0.1617,0.1617,0.1617,0.1617,0.1617,0.1617,0.1617,0.1617,0.1617,0.1617,0.1617,0.1617,0.1617,0.1617,0.1617,0.1617,0.1819,0.1971,0.1971,0.217,0.2388,0.2485,0.2701,0.2951,0.3106,0.3332,0.4558,0.6953,0.7028,0.8141,1.0625,1.0692,1.0692,1.0692,1.0692,1.0692,1.0692,1.0692,1.0692,1.0692,1.0692,1.0692,1.0692,1.0692,1.0692,1.0692,1.0692,1.0692,1.0692,1.0692,1.1396,1.2417,1.2417,1.3868,1.5914,-1.8722,-1.8146,-1.7674,-1.6829,-1.667,-1.667,-1.667,-1.667,-1.6571,-1.6365,-1.6111,-1.5903,-1.5636,-1.5315,-1.5041,-1.4821,-1.4987,-1.4987,-1.4713,-1.4659,-1.4504,-1.4299,-1.4245,-1.4196,-1.4196,-1.4196,-1.3603,-1.2341,-1.1003,-0.9678,-0.8368,-0.7279,-0.6634,-0.6387,-0.6387,-0.6387,-0.6387,-0.6387,-0.6387,-0.6387,-0.6089,-0.5889,-0.5636,-0.5338,-0.5087,-0.4885,-0.4834,-0.4784,-0.4533,-0.2922,-0.2016,-0.1311,0.0303,0.1212,0.1617,0.1617,0.1617,0.1617,0.1617,0.1617,0.1617,0.1617,0.1617,0.1617,0.1617,0.1617,0.1617,0.1617,0.1617,0.1617,0.1617,0.1617,0.1617,0.1617,0.1617,0.1617,0.1617,0.1667,0.1718,0.1718,0.1768,0.1882,0.2174,0.2468,0.2763,0.3002,0.3309,0.4535,0.6945,0.7112,0.818,1.0629,1.0692,1.0692,1.0692,1.0692,1.0692,1.0692,1.0692,1.0692,1.0692,1.0692,1.0692,1.0692,1.0692,1.0692,1.0692,1.0692,1.0692,1.0692,1.0692,1.1396,1.2417,1.2417,1.3868,1.5914,-1.7838,-1.716,-1.663,-1.5998,-1.5891,-1.5891,-1.5891,-1.5791,-1.5737,-1.5737,-1.5476,-1.5261,-1.5261,-1.4987,-1.4767,-1.4606,-1.4713,-1.4713,-1.445,-1.4396,-1.4347,-1.4196,-1.4196,-1.4196,-1.4196,-1.4196,-1.3464,-1.1997,-1.0234,-0.8933,-0.8076,-0.6909,-0.6387,-0.6387,-0.6387,-0.6387,-0.6387,-0.6387,-0.6387,-0.6387,-0.5987,-0.5737,-0.5536,-0.5186,-0.4937,-0.4784,-0.4784,-0.4481,-0.3879,-0.272,-0.1662,-0.0655,0.0504,0.1212,0.1617,0.1617,0.1617,0.1617,0.1617,0.1617,0.1617,0.1617,0.1617,0.1617,0.1617,0.1617,0.1617,0.1617,0.1617,0.1617,0.1617,0.1617,0.1617,0.1617,0.1617,0.1617,0.1617,0.1617,0.1617,0.1617,0.1629,0.1752,0.2097,0.2402,0.2705,0.2999,0.3847,0.5184,0.6988,0.7647,0.8777,1.0633,1.0692,1.0692,1.0692,1.0692,1.0692,1.0692,1.0692,1.0692,1.0692,1.0692,1.0692,1.0692,1.0692,1.0692,1.0692,1.0692,1.0692,1.0692,1.0692,1.1714,1.3166,1.3166,1.4674,1.6717,-1.7378,-1.6577,-1.5891,-1.5891,-1.5891,-1.5891,-1.5838,-1.5636,-1.5482,-1.5428,-1.5148,-1.4934,-1.4934,-1.4713,-1.4552,-1.4552,-1.4552,-1.445,-1.4191,-1.4196,-1.4196,-1.4196,-1.4196,-1.4196,-1.4196,-1.4029,-1.3252,-1.185,-0.967,-0.8414,-0.7942,-0.6914,-0.6403,-0.6387,-0.6387,-0.6387,-0.6387,-0.6387,-0.6387,-0.6287,-0.5787,-0.5586,-0.5486,-0.4985,-0.4784,-0.4784,-0.4784,-0.413,-0.3173,-0.3022,-0.1662,0.005,0.0202,0.0858,0.1617,0.1617,0.1617,0.1617,0.1617,0.1617,0.1617,0.1617,0.1617,0.1617,0.1617,0.1617,0.1617,0.1617,0.1617,0.1617,0.1617,0.1617,0.1617,0.1617,0.1617,0.1617,0.1617,0.1617,0.1619,0.1623,0.1698,0.1884,0.2242,0.2494,0.2808,0.3134,0.4534,0.5924,0.7027,0.8251,0.9475,1.0637,1.0692,1.0692,1.0692,1.0692,1.0692,1.0692,1.0692,1.0692,1.0692,1.0692,1.0692,1.0692,1.0692,1.0692,1.0692,1.0692,1.0802,1.0962,1.0962,1.2363,1.4347,1.4347,1.5749,1.7687,-1.6408,-1.5998,-1.5891,-1.5891,-1.5891,-1.5838,-1.5583,-1.5535,-1.5428,-1.5095,-1.4821,-1.4654,-1.4654,-1.4396,-1.4245,-1.4245,-1.4245,-1.4245,-1.4196,-1.4196,-1.4196,-1.4196,-1.4196,-1.4196,-1.4196,-1.3192,-1.2044,-1.0773,-0.9361,-0.8045,-0.6821,-0.6651,-0.6487,-0.6387,-0.6387,-0.6387,-0.6387,-0.6387,-0.6287,-0.6042,-0.5737,-0.5486,-0.524,-0.4937,-0.4784,-0.4784,-0.4784,-0.413,-0.3073,-0.2167,-0.1008,0.0151,0.106,0.1465,0.1617,0.1617,0.1617,0.1617,0.1617,0.1617,0.1617,0.1617,0.1617,0.1617,0.1617,0.1617,0.1617,0.1617,0.1617,0.1617,0.1617,0.1617,0.1617,0.1617,0.1617,0.1617,0.1617,0.1617,0.1626,0.1704,0.1917,0.2154,0.2498,0.284,0.314,0.3471,0.4702,0.5924,0.7027,0.8251,0.9475,1.0637,1.0692,1.0692,1.0692,1.0692,1.0692,1.0692,1.0692,1.0692,1.0692,1.0692,1.0692,1.0692,1.0692,1.0692,1.0692,1.0692,1.1286,1.2146,1.2146,1.3545,1.5642,1.5642,1.6452,1.7635,-1.6265,-1.6103,-1.6054,-1.5916,-1.5791,-1.5636,-1.5535,-1.5208,-1.4934,-1.4821,-1.4557,-1.4401,-1.4401,-1.4245,-1.4196,-1.4196,-1.4196,-1.4196,-1.4196,-1.4196,-1.4196,-1.4196,-1.4196,-1.3916,-1.3246,-1.1437,-1.0249,-0.9628,-0.8412,-0.7457,-0.6815,-0.6681,-0.6589,-0.6481,-0.6416,-0.6387,-0.6387,-0.6239,-0.6089,-0.5942,-0.5539,-0.5288,-0.519,-0.4887,-0.4784,-0.4734,-0.413,-0.3274,-0.2167,-0.1109,-0.005,0.0959,0.1465,0.1617,0.1617,0.1617,0.1617,0.1617,0.1617,0.1617,0.1617,0.1617,0.1617,0.1617,0.1617,0.1617,0.1617,0.1617,0.1617,0.1617,0.1617,0.1617,0.1617,0.1617,0.1617,0.1622,0.1639,0.1641,0.1652,0.1682,0.1964,0.2257,0.2566,0.2922,0.3502,0.4477,0.5646,0.6811,0.8029,0.9196,1.0139,1.0692,1.0692,1.0692,1.0692,1.0692,1.0692,1.0692,1.0692,1.0692,1.0692,1.0692,1.0692,1.0692,1.0692,1.0692,1.0692,1.0692,1.1391,1.2417,1.2417,1.3814,1.5914,1.5914,1.6717,1.7852,-1.6435,-1.6271,-1.6169,-1.5964,-1.5618,-1.5374,-1.5315,-1.4874,-1.4606,-1.4498,-1.4353,-1.4196,-1.4196,-1.4196,-1.4196,-1.4196,-1.4196,-1.4196,-1.4196,-1.4196,-1.4196,-1.4196,-1.3916,-1.3197,-1.2037,-0.9959,-0.892,-0.892,-0.7667,-0.701,-0.698,-0.6793,-0.6673,-0.6616,-0.647,-0.6414,-0.6387,-0.6089,-0.5942,-0.5892,-0.5391,-0.514,-0.509,-0.4885,-0.4784,-0.4684,-0.3575,-0.2519,-0.1412,-0.0353,0.0706,0.1617,0.1617,0.1617,0.1617,0.1617,0.1617,0.1617,0.1617,0.1617,0.1617,0.1617,0.1617,0.1617,0.1617,0.1617,0.1617,0.1617,0.1617,0.1617,0.1617,0.1617,0.1617,0.1617,0.1623,0.1636,0.1711,0.172,0.1735,0.1818,0.2115,0.241,0.2694,0.3004,0.3808,0.5316,0.6475,0.7639,0.8809,1.0029,1.0692,1.0692,1.0692,1.0692,1.0692,1.0692,1.0692,1.0692,1.0692,1.0692,1.0692,1.0692,1.0692,1.0692,1.0962,1.1122,1.1126,1.1391,1.2146,1.3226,1.3226,1.446,1.6287,1.6287,1.7047,1.8016,-1.6718,-1.6249,-1.5912,-1.5895,-1.5412,-1.4928,-1.4713,-1.4654,-1.4498,-1.4245,-1.4191,-1.4196,-1.4196,-1.4196,-1.4196,-1.4196,-1.4196,-1.4196,-1.4196,-1.4196,-1.4196,-1.4196,-1.3137,-1.1982,-1.0836,-0.9578,-0.892,-0.892,-0.7753,-0.7144,-0.6986,-0.6967,-0.6836,-0.6619,-0.6608,-0.6492,-0.6387,-0.6089,-0.5839,-0.5586,-0.5338,-0.5037,-0.4834,-0.4784,-0.4784,-0.4684,-0.3575,-0.2519,-0.1412,-0.0353,0.0706,0.1617,0.1617,0.1617,0.1617,0.1617,0.1617,0.1617,0.1617,0.1617,0.1617,0.1617,0.1617,0.1617,0.1617,0.1617,0.1617,0.1617,0.1617,0.1617,0.1617,0.1617,0.1617,0.1617,0.1641,0.1712,0.1714,0.1684,0.1819,0.2124,0.2405,0.2696,0.3016,0.3361,0.4089,0.5316,0.6475,0.7639,0.8809,1.0029,1.0692,1.0692,1.0692,1.0692,1.0692,1.0692,1.0692,1.0692,1.0692,1.0692,1.0692,1.0692,1.0692,1.0747,1.1823,1.2254,1.2363,1.3437,1.4567,1.5642,1.5642,1.6393,1.7477,1.7477,1.7694,1.8016,-1.6361,-1.6177,-1.5952,-1.5635,-1.5283,-1.4898,-1.4628,-1.445,-1.4293,-1.4191,-1.4196,-1.4196,-1.4196,-1.4196,-1.4196,-1.4196,-1.4196,-1.4196,-1.4196,-1.3527,-1.3083,-1.3083,-1.1273,-1.0014,-0.9578,-0.8423,-0.7873,-0.7873,-0.7432,-0.7188,-0.7144,-0.7018,-0.6937,-0.6839,-0.6687,-0.6492,-0.6243,-0.5919,-0.5589,-0.5338,-0.5037,-0.4885,-0.4784,-0.4784,-0.4381,-0.3676,-0.2569,-0.1512,-0.0454,0.0605,0.1262,0.1617,0.1617,0.1617,0.1617,0.1617,0.1617,0.1617,0.1617,0.1617,0.1617,0.1617,0.1617,0.1617,0.1617,0.1617,0.1617,0.1617,0.1617,0.1617,0.1617,0.1617,0.1623,0.1642,0.1706,0.1727,0.1764,0.1779,0.1853,0.2162,0.2446,0.2785,0.308,0.4088,0.5202,0.6366,0.7531,0.8751,0.997,1.0468,1.0692,1.0692,1.0692,1.0692,1.0692,1.0692,1.0692,1.0692,1.0692,1.0692,1.0692,1.0692,1.0692,1.0747,1.1932,1.2417,1.2467,1.3652,1.4835,1.5914,1.5914,1.6611,1.7635,1.7799,1.801,1.8272,-1.6262,-1.6102,-1.5857,-1.5495,-1.5083,-1.4735,-1.4488,-1.4293,-1.4196,-1.4196,-1.3856,-1.3635,-1.3635,-1.331,-1.3093,-1.3093,-1.3093,-1.3093,-1.3093,-1.1987,-1.1324,-1.1324,-0.9739,-0.8758,-0.8371,-0.7595,-0.721,-0.721,-0.721,-0.721,-0.721,-0.713,-0.7018,-0.6978,-0.6701,-0.6453,-0.6207,-0.5734,-0.5436,-0.5234,-0.4947,-0.4784,-0.4784,-0.4431,-0.3827,-0.3022,-0.1613,-0.0605,0.0151,0.1262,0.1617,0.1617,0.1617,0.1617,0.1617,0.1617,0.1617,0.1617,0.1617,0.1617,0.1617,0.1617,0.1617,0.1617,0.1617,0.1617,0.1617,0.1617,0.1617,0.1617,0.1617,0.1624,0.1638,0.1711,0.173,0.1757,0.1799,0.1868,0.2048,0.2297,0.2636,0.3083,0.3752,0.4756,0.6035,0.7531,0.842,0.942,1.0637,1.0692,1.0692,1.0692,1.0692,1.0692,1.0692,1.0692,1.0692,1.0692,1.0692,1.0692,1.0692,1.0692,1.0907,1.1286,1.2417,1.3166,1.3599,1.4728,1.5695,1.6452,1.6452,1.6935,1.7635,1.7905,1.8174,1.8422,-1.6478,-1.604,-1.5632,-1.545,-1.4921,-1.446,-1.4229,-1.4196,-1.4196,-1.4191,-1.3137,-1.2417,-1.2413,-1.1378,-1.0726,-1.0726,-1.0726,-1.0726,-1.0672,-0.9578,-0.892,-0.8865,-0.8865,-0.8371,-0.721,-0.721,-0.721,-0.721,-0.721,-0.721,-0.721,-0.721,-0.715,-0.6986,-0.6653,-0.6486,-0.6378,-0.5692,-0.539,-0.5382,-0.4974,-0.4786,-0.4684,-0.3627,-0.3173,-0.2922,-0.0756,0.0,0.0151,0.1262,0.1617,0.1617,0.1617,0.1617,0.1617,0.1617,0.1617,0.1617,0.1617,0.1617,0.1617,0.1617,0.1617,0.1617,0.1617,0.1617,0.1617,0.1617,0.1617,0.1617,0.1617,0.1642,0.1714,0.1715,0.1765,0.1804,0.1804,0.2054,0.23,0.2637,0.2915,0.3696,0.526,0.5427,0.6371,0.8699,0.8923,0.942,1.0637,1.0692,1.0692,1.0692,1.0692,1.0692,1.0692,1.0692,1.0692,1.0692,1.0692,1.0692,1.0692,1.0692,1.1341,1.2467,1.3599,1.4781,1.5968,1.7153,1.7582,1.7582,1.7582,1.7582,1.7635,1.7905,1.8167,1.8422,-1.5893,-1.5714,-1.5536,-1.5297,-1.4996,-1.4702,-1.4466,-1.4299,-1.3916,-1.3024,-1.2635,-1.2087,-1.1269,-1.0891,-1.0726,-1.0726,-1.0726,-1.0343,-0.9467,-0.9085,-0.8533,-0.7762,-0.7706,-0.7543,-0.721,-0.721,-0.721,-0.721,-0.721,-0.721,-0.721,-0.721,-0.7191,-0.71,-0.6686,-0.6364,-0.617,-0.5693,-0.5387,-0.5166,-0.5019,-0.493,-0.482,-0.3644,-0.272,-0.1915,-0.0504,0.0504,0.1161,0.1515,0.1617,0.1617,0.1617,0.1617,0.1617,0.1617,0.1617,0.1617,0.1617,0.1617,0.1617,0.1617,0.1617,0.1617,0.1617,0.1617,0.1617,0.1617,0.1634,0.1649,0.1649,0.1672,0.1699,0.1773,0.1792,0.1867,0.2057,0.2125,0.2412,0.2915,0.3026,0.3696,0.526,0.6144,0.7254,0.8809,0.9695,1.0304,1.0692,1.0692,1.0692,1.0692,1.0692,1.0692,1.0692,1.0692,1.0692,1.0692,1.0692,1.0692,1.0692,1.0692,1.1341,1.2467,1.3599,1.4781,1.5968,1.7153,1.7582,1.7582,1.7582,1.7582,1.7635,1.8108,1.8318,1.8475,-1.5601,-1.5601,-1.5526,-1.5231,-1.5128,-1.4918,-1.4528,-1.4028,-1.3351,-1.2481,-1.1596,-1.0726,-1.0069,-0.9574,-0.9299,-0.9299,-0.9299,-0.9027,-0.826,-0.8205,-0.7928,-0.721,-0.721,-0.721,-0.721,-0.721,-0.721,-0.721,-0.721,-0.721,-0.721,-0.721,-0.721,-0.7152,-0.6641,-0.6341,-0.617,-0.5636,-0.527,-0.5155,-0.5063,-0.4763,-0.4182,-0.3049,-0.1905,-0.0772,0.0307,0.1072,0.1633,0.1621,0.1617,0.1617,0.1617,0.1617,0.1617,0.1617,0.1617,0.1617,0.1617,0.1617,0.1617,0.1617,0.1617,0.1617,0.1617,0.1617,0.162,0.1633,0.165,0.1718,0.1677,0.1703,0.1728,0.1801,0.187,0.1996,0.2185,0.2412,0.2691,0.3081,0.364,0.4533,0.5924,0.7141,0.8306,0.953,1.0304,1.0692,1.0692,1.0692,1.0692,1.0692,1.0692,1.0692,1.0692,1.0692,1.0692,1.0692,1.0692,1.0692,1.0692,1.1177,1.1987,1.3112,1.4298,1.5482,1.6611,1.7312,1.7582,1.7582,1.7582,1.7635,1.7799,1.8265,1.8475,1.8646,-1.5601,-1.5601,-1.5531,-1.5263,-1.5146,-1.486,-1.4465,-1.3371,-1.2497,-1.2114,-1.0233,-0.8868,-0.8754,-0.7817,-0.721,-0.721,-0.721,-0.721,-0.721,-0.721,-0.721,-0.721,-0.721,-0.721,-0.721,-0.721,-0.721,-0.721,-0.721,-0.721,-0.721,-0.721,-0.721,-0.7154,-0.655,-0.6274,-0.6212,-0.5511,-0.5148,-0.5029,-0.4994,-0.4213,-0.3039,-0.1968,-0.0851,0.0266,0.1309,0.1718,0.1714,0.1634,0.1624,0.1624,0.1624,0.1624,0.1624,0.1624,0.1624,0.1624,0.1624,0.1624,0.1624,0.1624,0.1624,0.1624,0.1622,0.1621,0.1629,0.1712,0.172,0.1731,0.1703,0.1733,0.1809,0.1809,0.2055,0.2244,0.23,0.2858,0.3249,0.3305,0.4644,0.598,0.7141,0.8364,0.953,1.0637,1.0692,1.0692,1.0692,1.0692,1.0692,1.0692,1.0692,1.0692,1.0692,1.0692,1.0692,1.0692,1.0692,1.0692,1.0747,1.1878,1.3009,1.4186,1.5375,1.6558,1.7582,1.7582,1.7582,1.7582,1.7582,1.7747,1.8016,1.8325,1.8593,1.8921,-1.5601,-1.5601,-1.558,-1.5531,-1.4534,-1.3626,-1.3416,-1.2163,-1.0879,-0.9816,-0.9196,-0.8537,-0.7651,-0.7376,-0.721,-0.721,-0.721,-0.721,-0.721,-0.721,-0.721,-0.721,-0.721,-0.721,-0.721,-0.721,-0.721,-0.721,-0.721,-0.721,-0.721,-0.721,-0.7046,-0.6768,-0.6439,-0.6161,-0.5877,-0.5526,-0.4792,-0.3946,-0.3878,-0.3146,-0.1897,-0.0749,-0.0106,0.0266,0.1326,0.1695,0.1694,0.1687,0.1685,0.1685,0.1685,0.1685,0.1685,0.1685,0.1685,0.1685,0.1685,0.1685,0.1685,0.1685,0.1685,0.168,0.1657,0.1652,0.166,0.1689,0.1767,0.1787,0.1793,0.1765,0.1897,0.2065,0.2183,0.2355,0.2858,0.3807,0.4587,0.4868,0.5977,0.7196,0.842,0.9581,1.0417,1.0692,1.0692,1.0692,1.0692,1.0692,1.0692,1.0692,1.0692,1.0692,1.0692,1.0692,1.0692,1.0692,1.0692,1.0692,1.0747,1.1878,1.3009,1.4186,1.5375,1.6558,1.7582,1.7582,1.7582,1.7582,1.7582,1.7747,1.8016,1.8325,1.8593,1.8921,-1.5601,-1.5116,-1.4689,-1.4689,-1.3516,-1.2487,-1.2293,-1.1069,-0.9873,-0.9098,-0.8464,-0.7873,-0.7265,-0.721,-0.721,-0.721,-0.721,-0.721,-0.721,-0.721,-0.721,-0.721,-0.721,-0.721,-0.721,-0.721,-0.721,-0.721,-0.721,-0.721,-0.721,-0.7043,-0.6879,-0.6659,-0.627,-0.5991,-0.5766,-0.4927,-0.4198,-0.3522,-0.2936,-0.1988,-0.0828,-0.0164,0.0437,0.0982,0.1568,0.1716,0.1704,0.1704,0.1704,0.1704,0.1704,0.1704,0.1704,0.1704,0.1704,0.1704,0.1704,0.1704,0.1704,0.1704,0.1704,0.17,0.1686,0.1682,0.169,0.172,0.1792,0.1809,0.1823,0.1784,0.1907,0.2132,0.2356,0.2803,0.3807,0.4643,0.5423,0.6144,0.7254,0.8416,0.964,1.0304,1.0692,1.0692,1.0692,1.0692,1.0692,1.0692,1.0692,1.0692,1.0692,1.0692,1.0692,1.0692,1.0692,1.0692,1.0692,1.0692,1.0747,1.2417,1.3545,1.4186,1.5968,1.7041,1.7582,1.7582,1.7582,1.7582,1.7582,1.7747,1.8016,1.8325,1.8698,1.9123,-1.5299,-1.4391,-1.3605,-1.3421,-1.2277,-1.1315,-1.1146,-0.9948,-0.9051,-0.8817,-0.7859,-0.7235,-0.7213,-0.721,-0.721,-0.721,-0.721,-0.721,-0.721,-0.721,-0.721,-0.721,-0.721,-0.721,-0.721,-0.721,-0.721,-0.721,-0.721,-0.7154,-0.7099,-0.6824,-0.6659,-0.649,-0.5822,-0.5485,-0.5318,-0.3917,-0.3188,-0.291,-0.1903,-0.0784,0.028,0.028,0.0953,0.1792,0.1821,0.1741,0.172,0.172,0.172,0.172,0.172,0.172,0.172,0.172,0.172,0.172,0.172,0.172,0.172,0.172,0.172,0.172,0.172,0.1716,0.172,0.1806,0.1812,0.182,0.1847,0.1851,0.1964,0.2299,0.2747,0.353,0.481,0.559,0.6369,0.7307,0.8475,0.9585,1.0582,1.0692,1.0692,1.0692,1.0692,1.0692,1.0692,1.0692,1.0692,1.0692,1.0692,1.0692,1.0692,1.0692,1.0692,1.0692,1.0907,1.1017,1.1067,1.3383,1.44,1.4513,1.6664,1.7582,1.7582,1.7582,1.7582,1.7582,1.7582,1.7747,1.8016,1.8377,1.8848,1.9279,-1.4147,-1.3849,-1.3301,-1.2157,-1.0887,-0.9995,-0.9849,-0.875,-0.7828,-0.7592,-0.7377,-0.7271,-0.7221,-0.721,-0.721,-0.721,-0.721,-0.721,-0.721,-0.721,-0.721,-0.721,-0.721,-0.721,-0.721,-0.721,-0.721,-0.721,-0.721,-0.7043,-0.6771,-0.6715,-0.6434,-0.5877,-0.4758,-0.414,-0.3804,-0.2574,-0.1456,-0.0448,-0.0336,0.0504,0.157,0.157,0.1683,0.1794,0.1791,0.1786,0.1782,0.1782,0.1782,0.1782,0.1782,0.1782,0.1782,0.1782,0.1782,0.1782,0.1782,0.1782,0.1782,0.1782,0.1782,0.1782,0.1782,0.1763,0.1807,0.1782,0.1789,0.1846,0.2131,0.2132,0.2355,0.2914,0.3918,0.4754,0.5258,0.7091,0.8478,0.8644,0.9695,1.0527,1.0692,1.0692,1.0692,1.0692,1.0692,1.0692,1.0692,1.0692,1.0692,1.0692,1.0692,1.0692,1.0692,1.0692,1.0692,1.0692,1.1719,1.2146,1.2254,1.4567,1.5642,1.5755,1.7041,1.7582,1.7582,1.7582,1.7582,1.7582,1.7582,1.7747,1.8076,1.8653,1.9018,1.9279,-1.2817,-1.2032,-1.131,-1.0767,-0.9562,-0.8699,-0.8642,-0.8099,-0.7638,-0.7462,-0.732,-0.729,-0.7224,-0.721,-0.721,-0.721,-0.721,-0.721,-0.721,-0.721,-0.721,-0.721,-0.721,-0.721,-0.721,-0.721,-0.7099,-0.6935,-0.6935,-0.6824,-0.6715,-0.6379,-0.5708,-0.4758,-0.4085,-0.3357,-0.2519,-0.1288,-0.0504,0.0056,0.0729,0.1346,0.1795,0.1795,0.1795,0.1795,0.1795,0.1795,0.1795,0.1795,0.1795,0.1795,0.1795,0.1795,0.1795,0.1795,0.1795,0.1795,0.1795,0.1795,0.1795,0.1795,0.1795,0.1795,0.1795,0.1785,0.1779,0.1792,0.1795,0.1907,0.2132,0.2188,0.2635,0.3918,0.4531,0.5477,0.7146,0.8254,0.9144,0.9809,1.0359,1.0692,1.0692,1.0692,1.0692,1.0692,1.0692,1.0692,1.0692,1.0692,1.0692,1.0692,1.0692,1.0692,1.0692,1.0692,1.0692,1.0692,1.1878,1.2417,1.2472,1.484,1.5914,1.5968,1.71,1.7582,1.7582,1.7582,1.7582,1.7582,1.7582,1.7845,1.8272,1.8712,1.9078,1.9279]},{"header":{"parameterUnit":"m.s-1","parameterCategory":1,"la1":30.6,"la2":28.766,"lo1":-90.7593,"lo2":-88.6598,"dy":0.0162,"dx":0.0183,"nx":116,"ny":114,"refTime":"2023-03-10T06:00:00:Z","depth":0,"parameterNumber":3,"parameterNumberName":"V-component_of_WINDS"},"data":[0.0,0.0,0.0,0.0,0.0,0.0,0.0,0.0,0.0,0.0,0.0,0.0,0.0,0.0,0.0,0.0,0.0,0.0,0.0,0.0,0.0,0.0,0.0,0.0,0.0,0.0,0.0,0.0,0.0,0.0,0.0,0.0,0.0,0.0,0.0,0.0,0.0,0.0,0.0,0.0,0.0,0.0,0.0,0.0,0.0,0.0,0.0,0.0,0.0,0.0,0.0,0.0,0.0,0.0,0.0,0.0,0.0,0.0,0.0,0.0,0.0,0.0,0.0,0.0,0.0,0.0,0.0,0.0,0.0,0.0,0.0,0.0,0.0,0.0,0.0,0.0,0.0,0.0,0.0,0.0,0.0,0.0,0.0,0.0,0.0,0.0,0.0,0.0,0.0,0.0,0.0,0.0,0.0,0.0,0.0,0.0,0.0,0.0,0.0,0.0,0.0,0.0,0.0,0.0,0.0,0.0,0.0,0.0,0.0,0.0,0.0,0.0,0.0,0.0,0.0,0.0,0.0,0.0,0.0,0.0,0.0,0.0,0.0,0.0,0.0,0.0,0.0,0.0,0.0,0.0,0.0,0.0,0.0,0.0,0.0,0.0,0.0,0.0,0.0,0.0,0.0,0.0,0.0,0.0,0.0,0.0,0.0,0.0,0.0,0.0,0.0,0.0,0.0,0.0,0.0,0.0,0.0,0.0,0.0,0.0,0.0,0.0,0.0,0.0,0.0,0.0,0.0,0.0,0.0,0.0,0.0,0.0,0.0,0.0,0.0,0.0,0.0,0.0,0.0,0.0,0.0,0.0,0.0,0.0,0.0,0.0,0.0,0.0,0.0,0.0,0.0,0.0,0.0,0.0,0.0,0.0,0.0,0.0,0.0,0.0,0.0,0.0,0.0,0.0,0.0,0.0,0.0,0.0,0.0,0.0,0.0,0.0,0.0,0.0,0.0,0.0,0.0,0.0,0.0,0.0,0.0,0.0,0.0,0.0,0.0,0.0,0.0,0.0,0.0,0.0,0.0,0.0,0.0,0.0,0.0,0.0,0.0,0.0,0.0,0.0,0.0,0.0,0.0,0.0,0.0,0.0,0.0,0.0,0.0,0.0,0.0,0.0,0.0,0.0,0.0,0.0,0.0,0.0,0.0,0.0,0.0,0.0,0.0,0.0,0.0,0.0,0.0,0.0,0.0,0.0,0.0,0.0,0.0,0.0,0.0,0.0,0.0,0.0,0.0,0.0,0.0,0.0,0.0,0.0,0.0,0.0,0.0,0.0,0.0,0.0,0.0,0.0,0.0,0.0,0.0,0.0,0.0,0.0,0.0,0.0,0.0,0.0,0.0,0.0,0.0,0.0,0.0,0.0,0.0,0.0,0.0,0.0,0.0,0.0,0.0,0.0,0.0,0.0,0.0,0.0,0.0,0.0,0.0,0.0,0.0,0.0,0.0,0.0,0.0,0.0,0.0,0.0,0.0,0.0,0.0,0.0,0.0,0.0,0.0,0.0,0.0,0.0,0.0,0.0,0.0,0.0,0.0,0.0,0.0,0.0,0.0,0.0,0.0,0.0,0.0,0.0,0.0,0.0,0.0,0.0,0.0,0.0,0.0,0.0,0.0,0.0,0.0,0.0,0.0,0.0,0.0,0.0,0.0,0.0,0.0,0.0,0.0,0.0,0.0,0.0,0.0,0.0,0.0,0.0,0.0,0.0,0.0,0.0,0.0,0.0,0.0,0.0,0.0,0.0,0.0,0.0,0.0,0.0,0.0,0.0,0.0,0.0,0.0,0.0,0.0,0.0,0.0,0.0,0.0,0.0,0.0,0.0,0.0,0.0,0.0,0.0,0.0,0.0,0.0,0.0,0.0,0.0,0.0,0.0,0.0,0.0,0.0,0.0,0.0,0.0,0.0,0.0,0.0,0.0,0.0,0.0,0.0,0.0,0.0,0.0,0.0,0.0,0.0,0.0,0.0,0.0,0.0,0.0,0.0,0.0,0.0,0.0,0.0,0.0,0.0,0.0,0.0,0.0,0.0,0.0,0.0,0.0,0.0,0.0,0.0,0.0,0.0,0.0,0.0,0.0,0.0,0.0,0.0,0.0,0.0,0.0,0.0,0.0,0.0,0.0,0.0,0.0,0.0,0.0,0.0,0.0,0.0,0.0,0.0,0.0,0.0,0.0,0.0,0.0,0.0,0.0,0.0,0.0,0.0,0.0,0.0,0.0,0.0,0.0,0.0,0.0,0.0,0.0,0.0,0.0,0.0,0.0,0.0,0.0,0.0,0.0,0.0,0.0,0.0,0.0,0.0,0.0,0.0,0.0,0.0,0.0,0.0,0.0,0.0,0.0,0.0,0.0,0.0,0.0,0.0,0.0,0.0,0.0,0.0,0.0,0.0,0.0,0.0,0.0,0.0,0.0,0.0,0.0,0.0,0.0,0.0,0.0,0.0,0.0,0.0,0.0,0.0,0.0,0.0,0.0,0.0,0.0,0.0,0.0,0.0,0.0,0.0,0.0,0.0,0.0,0.0,0.0,0.0,0.0,0.0,0.0,0.0,0.0,0.0,0.0,0.0,0.0,0.0,0.0,0.0,0.0,0.0,0.0,0.0,0.0,0.0,0.0,0.0,0.0,0.0,0.0,0.0,0.0,0.0,0.0,0.0,0.0,0.0,0.0,0.0,0.0,0.0,0.0,0.0,0.0,0.0,0.0,0.0,0.0,0.0,0.0,0.0,0.0,0.0,0.0,0.0,0.0,0.0,0.0,0.0,0.0,0.0,0.0,0.0,0.0,0.0,0.0,0.0,0.0,0.0,0.0,0.0,0.0,0.0,0.0,0.0,0.0,0.0,0.0,0.0,0.0,0.0,0.0,0.0,0.0,0.0,0.0,0.0,0.0,0.0,0.0,0.0,0.0,0.0,0.0,0.0,0.0,0.0,0.0,0.0,0.0,0.0,0.0,0.0,0.0,0.0,0.0,0.0,0.0,0.0,0.0,0.0,0.0,0.0,0.0,0.0,0.0,0.0,0.0,0.0,0.0,0.0,0.0,0.0,0.0,0.0,0.0,0.0,0.0,0.0,0.0,0.0,0.0,0.0,0.0,0.0,0.0,0.0,0.0,0.0,0.0,0.0,0.0,0.0,0.0,0.0,0.0,0.0,0.0,0.0,0.0,0.0,0.0,0.0,0.0,0.0,0.0,0.0,0.0,0.0,0.0,0.0,0.0,0.0,0.0,0.0,0.0,0.0,0.0,0.0,0.0,0.0,0.0,0.0,0.0,0.0,0.0,0.0,0.0,0.0,0.0,0.0,0.0,0.0,0.0,0.0,0.0,0.0,0.0,0.0,0.0,0.0,0.0,0.0,0.0,0.0,0.0,0.0,0.0,0.0,0.0,0.0,0.0,0.0,0.0,0.0,0.0,0.0,0.0,0.0,0.0,0.0,0.0,0.0,0.0,0.0,0.0,0.0,0.0,0.0,0.0,0.0,0.0,0.0,0.0,0.0,0.0,0.0,0.0,0.0,0.0,0.0,0.0,0.0,0.0,0.0,0.0,0.0,0.0,0.0,0.0,0.0,0.0,0.0,0.0,0.0,0.0,0.0,0.0,0.0,0.0,0.0,0.0,0.0,0.0,0.0,0.0,0.0,0.0,0.0,0.0,0.0,0.0,0.0,0.0,0.0,0.0,0.0,0.0,0.0,0.0,0.0,0.0,0.0,0.0,0.0,0.0,0.0,0.0,0.0,0.0,0.0,0.0,0.0,0.0,0.0,0.0,0.0,0.0,0.0,0.0,0.0,0.0,0.0,0.0,0.0,0.0,0.0,0.0,0.0,0.0,0.0,0.0,0.0,0.0,0.0,0.0,0.0,0.0,0.0,0.0,0.0,0.0,0.0,0.0,0.0,0.0,0.0,0.0,0.0,0.0,0.0,0.0,0.0,0.0,0.0,0.0,0.0,0.0,0.0,0.0,0.0,0.0,0.0,0.0,0.0,0.0,0.0,0.0,0.0,0.0,0.0,0.0,0.0,0.0,0.0,0.0,0.0,0.0,0.0,0.0,0.0,0.0,0.0,0.0,0.0,0.0,0.0,0.0,0.0,0.0,0.0,0.0,0.0,0.0,0.0,0.0,0.0,0.0,0.0,0.0,0.0,0.0,0.0,0.0,0.0,0.0,0.0,0.0,0.0,0.0,0.0,0.0,0.0,0.0,0.0,0.0,0.0,0.0,0.0,0.0,0.0,0.0,0.0,0.0,0.0,0.0,0.0,0.0,0.0,0.0,0.0,0.0,0.0,0.0,0.0,0.0,0.0,0.0,0.0,0.0,0.0,0.0,0.0,0.0,0.0,0.0,0.0,0.0,0.0,0.0,0.0,0.0,0.0,0.0,0.0,0.0,0.0,0.0,0.0,0.0,0.0,0.0,0.0,0.0,0.0,0.0,0.0,0.0,0.0,0.0,0.0,0.0,0.0,0.0,0.0,0.0,0.0,0.0,0.0,0.0,0.0,0.0,0.0,0.0,0.0,0.0,0.0,0.0,0.0,0.0,0.0,0.0,0.0,0.0,0.0,0.0,0.0,0.0,0.0,0.0,0.0,0.0,0.0,0.0,0.0,0.0,0.0,0.0,0.0,0.0,0.0,0.0,0.0,0.0,0.0,0.0,0.0,0.0,0.0,0.0,0.0,0.0,0.0,0.0,0.0,0.0,0.0,0.0,0.0,0.0,0.0,0.0,0.0,0.0,0.0,0.0,0.0,0.0,0.0,0.0,0.0,0.0,0.0,0.0,0.0,0.0,0.0,0.0,0.0,0.0,0.0,0.0,0.0,0.0,0.0,0.0,0.0,0.0,0.0,0.0,0.0,0.0,0.0,0.0,0.0,0.0,0.0,0.0,0.0,0.0,0.0,0.0,0.0,0.0,0.0,0.0,0.0,0.0,0.0,0.0,0.0,0.0,0.0,0.0,0.0,0.0,0.0,0.0,0.0,0.0,0.0,0.0,0.0,0.0,0.0,0.0,0.0,0.0,0.0,0.0,0.0,0.0,0.0,0.0,0.0,0.0,0.0,0.0,0.0,0.0,0.0,0.0,0.0,0.0,0.0,0.0,0.0,0.0,0.0,0.0,0.0,0.0,0.0,0.0,0.0,0.0,0.0,0.0,0.0,0.0,0.0,0.0,0.0,0.0,0.0,0.0,0.0,0.0,0.0,0.0,0.0,0.0,0.0,0.0,0.0,0.0,0.0,0.0,0.0,0.0,0.0,0.0,0.0,0.0,0.0,0.0,0.0,0.0,0.0,0.0,0.0,0.0,0.0,0.0,0.0,0.0,0.0,0.0,0.0,0.0,0.0,0.0,0.0,0.0,0.0,0.0,0.0,0.0,0.0,0.0,0.0,0.0,0.0,0.0,0.0,0.0,0.0,0.0,0.0,0.0,0.0,0.0,0.0,0.0,0.0,0.0,0.0,0.0,0.0,0.0,0.0,0.0,0.0,0.0,0.0,0.0,0.0,0.0,0.0,0.0,0.0,0.0,0.0,0.0,0.0,0.0,0.0,0.0,0.0,0.0,0.0,0.0,0.0,0.0,0.0,0.0,0.0,0.0,0.0,0.0,0.0,0.0,0.0,0.0,0.0,0.0,0.0,0.0,0.0,0.0,0.0,0.0,0.0,0.0,0.0,0.0,0.0,0.0,0.0,0.0,0.0,0.0,0.0,0.0,0.0,0.0,0.0,0.0,0.0,0.0,0.0,0.0,0.0,0.0,0.0,0.0,0.0,0.0,0.0,0.0,0.0,0.0,0.0,0.0,0.0,0.0,0.0,0.0,0.0,0.0,0.0,0.0,0.0,0.0,0.0,0.0,0.0,0.0,0.0,0.0,0.0,0.0,0.0,0.0,0.0,0.0,0.0,0.0,0.0,0.0,0.0,0.0,0.0,0.0,0.0,0.0,0.0,0.0,0.0,0.0,0.0,0.0,0.0,0.0,0.0,0.0,0.0,0.0,0.0,0.0,0.0,0.0,0.0,0.0,0.0,0.0,0.0,0.0,0.0,0.0,0.0,0.0,0.0,0.0,0.0,0.0,0.0,0.0,0.0,0.0,0.0,0.0,0.0,0.0,2.1255,2.1094,0.0,0.0,0.0,0.0,0.0,0.0,0.0,0.0,0.0,0.0,0.0,0.0,0.0,0.0,0.0,0.0,0.0,0.0,0.0,0.0,0.0,0.0,0.0,0.0,0.0,0.0,0.0,0.0,0.0,0.0,0.0,0.0,0.0,0.0,0.0,0.0,0.0,0.0,0.0,0.0,0.0,0.0,0.0,0.0,0.0,0.0,0.0,0.0,0.0,0.0,0.0,0.0,0.0,0.0,0.0,0.0,0.0,0.0,0.0,0.0,0.0,0.0,0.0,0.0,0.0,0.0,0.0,0.0,0.0,0.0,0.0,0.0,0.0,0.0,0.0,0.0,0.0,0.0,0.0,0.0,0.0,0.0,0.0,0.0,0.0,0.0,0.0,0.0,0.0,0.0,0.0,0.0,0.0,0.0,0.0,0.0,0.0,0.0,0.0,0.0,0.0,0.0,0.0,0.0,0.0,0.0,0.0,0.0,0.0,0.0,0.0,0.0,0.0,0.0,2.2078,2.1882,0.0,0.0,0.0,0.0,0.0,0.0,0.0,0.0,0.0,0.0,0.0,0.0,0.0,0.0,0.0,0.0,0.0,0.0,0.0,0.0,0.0,0.0,0.0,0.0,2.4906,2.5009,2.5762,0.0,0.0,0.0,0.0,0.0,0.0,0.0,0.0,0.0,0.0,0.0,0.0,0.0,0.0,0.0,0.0,0.0,0.0,0.0,0.0,0.0,0.0,0.0,0.0,0.0,0.0,0.0,0.0,0.0,0.0,0.0,0.0,0.0,0.0,0.0,0.0,0.0,0.0,0.0,0.0,0.0,0.0,0.0,0.0,0.0,0.0,0.0,0.0,0.0,0.0,0.0,0.0,0.0,0.0,0.0,0.0,0.0,0.0,0.0,0.0,0.0,0.0,0.0,0.0,0.0,0.0,0.0,0.0,0.0,0.0,0.0,0.0,0.0,0.0,0.0,0.0,0.0,0.0,0.0,0.0,0.0,2.1655,2.1818,2.2098,2.2499,2.2729,2.274,2.274,2.2553,2.2241,2.2054,0.0,0.0,0.0,0.0,0.0,0.0,0.0,0.0,0.0,0.0,0.0,0.0,0.0,0.0,0.0,0.0,0.0,0.0,0.0,0.0,0.0,2.6142,2.6167,2.6622,2.6506,2.6366,0.0,0.0,0.0,0.0,0.0,0.0,0.0,0.0,0.0,0.0,0.0,2.5837,2.6574,2.5523,2.5022,2.4881,2.2687,0.0,0.0,0.0,0.0,0.0,0.0,0.0,0.0,0.0,0.0,0.0,0.0,0.0,0.0,0.0,0.0,0.0,0.0,0.0,0.0,0.0,0.0,0.0,0.0,0.0,0.0,0.0,0.0,0.0,0.0,0.0,0.0,0.0,0.0,0.0,0.0,0.0,0.0,0.0,0.0,0.0,0.0,0.0,2.4671,2.46,0.0,0.0,0.0,0.0,0.0,0.0,0.0,0.0,0.0,0.0,0.0,0.0,0.0,2.0881,2.0488,2.0917,2.1011,2.0858,2.2108,2.246,2.2052,2.3321,2.3559,2.2964,2.2964,0.0,2.282,2.1893,0.0,0.0,0.0,0.0,0.0,0.0,0.0,0.0,0.0,0.0,0.0,0.0,0.0,0.0,0.0,0.0,0.0,0.0,0.0,0.0,0.0,2.748,2.7629,2.7894,2.7729,2.7472,2.7157,0.0,0.0,0.0,0.0,0.0,0.0,0.0,0.0,0.0,2.6087,2.6628,2.6994,2.6515,2.6299,2.6266,2.5261,2.3781,2.2,2.129,0.0,0.0,0.0,0.0,0.0,0.0,0.0,0.0,0.0,0.0,0.0,0.0,0.0,0.0,0.0,0.0,0.0,0.0,0.0,0.0,0.0,0.0,0.0,0.0,0.0,0.0,0.0,0.0,0.0,0.0,0.0,0.0,0.0,0.0,0.0,0.0,0.0,0.0,0.0,2.5025,2.4636,2.4969,2.4011,2.3191,0.0,0.0,0.0,0.0,0.0,0.0,0.0,0.0,0.0,2.1495,2.2088,2.2342,2.2262,2.2714,2.2713,2.2288,2.3028,2.3284,2.3053,2.3763,2.4168,2.4263,2.3815,2.3888,2.4204,2.2834,2.2434,2.2569,0.0,0.0,0.0,0.0,2.2824,2.294,0.0,0.0,0.0,0.0,0.0,0.0,0.0,0.0,0.0,0.0,0.0,0.0,2.8381,2.8809,2.9071,2.9071,2.9071,2.876,2.8013,2.7584,0.0,0.0,0.0,0.0,0.0,0.0,0.0,2.6596,2.7123,2.741,2.741,2.7276,2.7209,2.7209,2.7074,2.566,2.331,2.2285,2.1655,0.0,0.0,0.0,0.0,0.0,0.0,0.0,0.0,0.0,0.0,0.0,0.0,0.0,0.0,0.0,0.0,0.0,0.0,0.0,0.0,0.0,0.0,0.0,0.0,0.0,0.0,0.0,0.0,0.0,0.0,0.0,0.0,0.0,0.0,0.0,0.0,0.0,0.0,2.5314,2.504,2.5335,2.4671,2.4062,0.0,0.0,0.0,0.0,0.0,0.0,2.2982,2.2926,2.2937,2.2948,2.3421,2.3722,2.3874,2.4282,2.4253,2.3806,2.4205,2.4289,2.4133,2.4505,2.4921,2.5276,2.4671,2.4755,2.5158,2.352,2.3103,2.357,2.3227,2.3629,2.4409,2.4433,2.4469,2.4553,0.0,0.0,0.0,0.0,0.0,0.0,0.0,0.0,0.0,0.0,0.0,2.9711,3.0318,3.0389,3.0404,3.0404,3.0404,2.9889,2.875,2.8617,2.7788,2.5941,0.0,0.0,0.0,0.0,0.0,2.7611,2.8238,2.8522,2.8522,2.7987,2.7756,2.7743,2.7242,2.6337,2.5261,2.5202,2.4167,2.2547,0.0,0.0,0.0,0.0,0.0,0.0,0.0,0.0,0.0,0.0,0.0,0.0,0.0,0.0,0.0,0.0,0.0,0.0,0.0,0.0,0.0,0.0,0.0,0.0,0.0,0.0,0.0,0.0,0.0,0.0,0.0,0.0,0.0,0.0,0.0,0.0,0.0,0.0,0.0,2.6418,2.5699,0.0,0.0,0.0,0.0,2.342,2.3798,2.3867,2.3479,2.3823,2.3821,2.3363,2.4,2.4338,2.4374,2.4589,2.466,2.466,2.5533,2.5615,2.4957,2.5871,2.5931,2.5312,2.5276,2.5264,2.517,2.3161,2.3455,2.5075,2.3838,2.4155,2.5264,2.5392,2.5415,2.5517,0.0,0.0,0.0,0.0,0.0,0.0,0.0,0.0,0.0,2.8855,2.9769,3.0221,3.0017,3.0441,3.0763,3.0763,3.0763,3.0411,2.9595,2.9045,2.8282,2.7239,0.0,0.0,0.0,0.0,2.889,2.9499,2.9278,2.9188,2.917,2.8592,2.8314,2.8327,2.8118,2.7637,2.6906,2.6215,2.534,2.4384,2.3772,2.2959,0.0,0.0,0.0,0.0,0.0,0.0,0.0,0.0,0.0,0.0,0.0,0.0,0.0,0.0,0.0,0.0,0.0,0.0,0.0,0.0,0.0,0.0,0.0,0.0,0.0,0.0,0.0,0.0,0.0,0.0,0.0,0.0,0.0,0.0,0.0,0.0,0.0,2.6521,2.6245,0.0,2.5856,2.5716,2.5578,2.5406,2.5542,2.5566,2.5453,2.5589,2.5589,2.5532,2.575,2.5988,2.6264,2.6333,2.6183,2.5789,2.6126,2.6161,2.5906,2.6242,2.653,2.6701,2.6208,2.6346,2.6765,2.5059,2.4779,2.538,2.5059,2.5514,2.6355,2.6377,2.6399,2.6476,0.0,0.0,0.0,0.0,0.0,0.0,0.0,0.0,2.9243,2.9952,3.066,3.0987,3.0793,3.1266,3.1563,3.1563,3.1563,3.1131,3.0065,2.9508,2.8734,2.7689,2.7337,0.0,0.0,2.9505,3.0046,3.0644,3.0149,2.9891,2.9905,2.9453,2.9261,2.923,2.9008,2.8707,2.8312,2.7386,2.662,2.5904,2.535,2.4539,2.3582,0.0,0.0,0.0,0.0,0.0,0.0,0.0,0.0,0.0,0.0,0.0,0.0,0.0,0.0,0.0,0.0,0.0,0.0,0.0,0.0,0.0,0.0,0.0,0.0,0.0,0.0,0.0,0.0,0.0,0.0,0.0,0.0,0.0,0.0,2.7052,2.7451,2.6905,2.685,2.6748,2.6521,2.6521,2.6555,2.6555,2.6636,2.6671,2.6671,2.6671,2.6705,2.6794,2.6863,2.7032,2.7302,2.7335,2.7154,2.6769,2.6769,2.6769,2.6769,2.6769,2.7074,2.7556,2.7061,2.7276,2.7822,2.6854,2.6454,2.642,2.6227,2.6629,2.7317,2.7371,2.7371,2.7404,0.0,0.0,0.0,0.0,0.0,0.0,0.0,2.9811,3.0552,3.2594,3.2268,3.2112,3.2841,3.2935,3.2951,3.2951,3.2951,3.2155,3.0234,3.0101,2.9217,0.0,0.0,0.0,3.0051,3.0095,3.0392,3.0955,3.0793,3.0748,3.0719,3.0599,3.051,3.048,2.9813,2.9535,2.9518,2.8912,2.8072,2.7056,2.647,2.5697,2.4791,0.0,0.0,0.0,0.0,0.0,0.0,0.0,0.0,0.0,0.0,0.0,0.0,0.0,0.0,0.0,0.0,0.0,0.0,0.0,0.0,0.0,0.0,0.0,0.0,0.0,0.0,0.0,0.0,0.0,0.0,0.0,0.0,0.0,2.7723,2.8153,2.8298,2.7604,2.7537,2.7284,2.6658,2.6692,2.6748,2.6748,2.6909,2.699,2.699,2.699,2.699,2.7024,2.7214,2.7302,2.7302,2.7436,2.749,2.749,2.749,2.749,2.749,2.749,2.7623,2.7809,2.7809,2.7934,2.8112,2.8235,2.8287,2.8222,2.7304,2.743,2.8145,2.8268,2.832,2.832,0.0,0.0,0.0,0.0,0.0,0.0,0.0,3.0227,3.0865,3.1822,3.2274,3.2745,3.3332,3.3942,3.4276,3.4276,3.4276,3.382,3.2748,3.2134,3.1289,0.0,0.0,0.0,3.1893,3.2033,3.2185,3.2342,3.1821,3.1563,3.1563,3.1028,3.0793,3.0793,3.0601,3.0511,3.0497,3.0346,2.9922,2.9272,2.7904,2.6726,2.5806,0.0,0.0,0.0,0.0,0.0,0.0,0.0,0.0,0.0,0.0,0.0,0.0,0.0,0.0,0.0,0.0,0.0,0.0,0.0,0.0,0.0,0.0,0.0,0.0,0.0,0.0,0.0,0.0,0.0,0.0,0.0,2.9048,2.9736,2.842,2.8951,2.9188,2.8532,2.8538,2.8524,2.833,2.792,2.7637,2.7637,2.7255,2.699,2.699,2.699,2.7079,2.7214,2.7268,2.7335,2.7436,2.7503,2.749,2.749,2.749,2.759,2.7723,2.7723,2.7822,2.8,2.8,2.8085,2.8235,2.8287,2.8398,2.8476,2.8235,2.8281,2.8471,2.849,2.8509,2.8605,0.0,0.0,0.0,0.0,0.0,0.0,0.0,3.0632,3.1202,3.208,3.2345,3.2893,3.398,3.4521,3.4793,3.4793,3.4504,3.4024,3.328,3.2536,3.2183,0.0,0.0,3.3234,3.3519,3.3657,3.3617,3.3398,3.2922,3.261,3.2394,3.1962,3.1721,3.1721,3.1433,3.1318,3.1303,3.1013,3.0763,3.048,2.949,2.8361,2.726,2.726,2.676,2.61,2.61,2.61,2.603,2.5485,0.0,0.0,0.0,0.0,0.0,0.0,0.0,0.0,0.0,0.0,0.0,0.0,0.0,0.0,0.0,0.0,0.0,0.0,0.0,0.0,0.0,0.0,0.0,0.0,2.9508,3.0308,2.969,3.0023,3.0085,2.939,2.9362,2.9317,2.9034,2.873,2.8551,2.8551,2.8241,2.8045,2.8045,2.8045,2.8111,2.8208,2.8208,2.8274,2.8338,2.8338,2.8338,2.8338,2.8422,2.8519,2.8648,2.8712,2.8807,2.8967,2.8967,2.9062,2.9219,2.9219,2.9296,2.9373,0.0,0.0,0.0,0.0,2.9404,2.9435,0.0,0.0,0.0,0.0,0.0,0.0,0.0,3.1094,3.1619,3.2893,3.2532,3.2882,3.4761,3.4958,3.4958,3.4958,3.4286,3.3555,3.2818,3.2295,0.0,3.3895,3.3983,3.4286,3.4887,3.4816,3.4593,3.4184,3.4002,3.3713,3.3293,3.3176,3.3123,3.3096,3.2449,3.2155,3.2099,3.1447,3.113,3.1101,3.1101,3.0221,2.8942,2.8942,2.832,2.746,2.746,2.716,2.681,2.6712,0.0,0.0,0.0,0.0,0.0,0.0,0.0,0.0,0.0,0.0,0.0,0.0,0.0,0.0,0.0,0.0,0.0,0.0,0.0,0.0,0.0,0.0,0.0,0.0,2.9786,3.0524,3.1058,3.1146,3.091,3.0238,3.0178,2.995,2.9348,2.9376,2.9421,2.9421,2.9501,2.9504,2.9504,2.9504,0.0,0.0,0.0,2.9504,2.9535,2.9535,2.9535,2.9566,2.9735,2.9827,2.9844,2.9981,3.0088,3.0225,3.0225,3.033,3.0494,3.0494,3.0539,3.0539,2.9875,2.9597,2.9659,3.0269,3.0494,3.0524,0.0,0.0,0.0,0.0,0.0,0.0,0.0,3.1665,3.2545,3.3242,3.3206,3.3849,3.5792,3.6028,3.6028,3.6028,3.5339,3.4607,3.3853,0.0,3.4627,3.4915,3.5135,3.5307,3.5436,3.5005,3.4761,3.4666,3.4642,3.4553,3.4472,3.4431,3.4448,3.4407,3.3901,3.3672,3.3636,3.306,3.2614,3.2269,3.2269,3.1545,3.0485,3.0485,3.0145,2.9684,2.9684,2.9562,2.9275,2.8512,2.8196,2.801,2.7501,0.0,0.0,0.0,0.0,0.0,0.0,0.0,0.0,0.0,0.0,0.0,0.0,0.0,0.0,0.0,0.0,0.0,0.0,0.0,0.0,2.9165,3.0563,3.1615,3.1292,3.1351,3.1322,3.1087,3.1161,3.1161,3.1029,3.0554,3.0283,3.0283,2.9797,2.9504,2.9504,2.9504,2.9504,2.9504,2.9504,2.9566,2.9735,2.9735,2.9797,2.9889,2.995,0.0,3.0135,3.0165,3.027,3.045,3.045,3.045,3.0494,3.0494,3.0822,3.1233,3.0569,3.0299,3.0329,3.045,3.0494,3.0584,0.0,0.0,0.0,0.0,0.0,0.0,0.0,3.2062,3.2651,3.2823,3.2835,3.3461,3.5018,3.5197,3.5197,3.5197,3.4895,3.4535,0.0,3.4906,3.5532,3.5931,3.6086,3.6152,3.6152,3.5876,3.5616,3.5334,3.5334,3.522,3.4948,3.4948,3.4948,3.4948,3.4712,3.4609,3.4585,3.4284,3.402,3.3786,3.3726,3.3219,3.2427,3.1662,3.1261,3.1102,3.1102,3.1058,3.094,3.0456,3.0119,2.9811,2.9233,2.8339,2.7406,0.0,0.0,0.0,0.0,0.0,0.0,0.0,0.0,0.0,0.0,0.0,0.0,0.0,0.0,2.9017,2.9078,0.0,3.0928,3.0681,3.1782,3.2555,3.2296,3.2076,3.1824,3.1438,3.1467,3.1511,3.1511,3.119,3.0999,3.0999,3.0673,3.0494,3.0494,3.0494,3.0554,3.0644,3.0644,3.0733,3.0911,3.0911,3.094,3.0999,3.1072,3.1131,3.1203,3.1275,3.1377,3.145,3.145,3.145,3.145,3.145,3.1637,3.1908,3.1665,3.1522,3.145,3.145,3.145,3.1522,0.0,0.0,0.0,0.0,0.0,0.0,0.0,0.0,3.2605,3.2442,3.2414,3.2861,3.3987,3.4113,3.4044,3.3926,3.4248,3.4393,0.0,3.5183,3.6023,3.6667,3.6702,3.6702,3.6702,3.6702,3.6502,3.6054,3.6054,3.5825,3.5397,3.5397,3.5397,3.5397,3.5307,3.5261,3.5261,3.5094,3.5018,3.5018,3.4894,3.4625,3.4152,3.2906,3.2269,3.2048,3.2048,3.1901,3.1741,3.1862,3.1605,3.1154,3.0722,3.0258,2.9622,2.8384,2.838,0.0,0.0,0.0,0.0,0.0,0.0,0.0,0.0,2.9312,2.9668,3.0664,3.0873,3.0898,3.1022,3.169,3.2216,3.2206,3.2843,3.3329,3.3224,3.2815,3.2382,3.1894,3.1625,3.1511,3.1511,3.1511,3.1511,3.1511,3.1539,3.1568,3.1568,3.1582,3.1683,3.1841,3.1841,3.1898,3.2038,3.2038,3.2038,3.2066,3.2191,3.2247,3.2247,3.2342,3.2465,3.2574,3.2695,3.2749,3.2734,3.2761,3.2788,3.2803,3.2926,3.2884,3.2761,3.2563,3.2563,3.2641,0.0,0.0,0.0,0.0,0.0,0.0,0.0,0.0,0.0,3.2844,3.2827,3.3158,3.4007,3.4113,3.3859,3.3261,3.4519,0.0,3.4422,3.5745,3.6615,3.6702,3.6702,3.6702,3.6702,3.6702,3.6664,3.6623,3.6623,3.6582,3.6523,3.6523,3.6523,3.6502,3.6032,3.5803,3.5781,3.5284,3.5084,3.5084,3.5061,3.5038,3.4938,3.4471,3.3563,3.2504,3.2504,3.1873,3.1104,3.171,3.1485,3.1036,3.155,3.1308,3.0621,2.9518,2.9097,2.8736,2.7631,2.8328,2.95,3.0262,3.0462,3.0522,0.0,3.0773,3.0854,3.1097,3.1177,3.1162,3.1162,3.2167,3.2812,3.2282,3.3207,3.3815,3.3277,3.3145,3.3093,3.3013,3.2132,3.1511,3.1511,3.1511,3.1511,3.1511,3.167,3.1756,3.1756,3.1883,3.194,3.1968,3.1968,3.2038,3.2178,3.2163,3.2247,3.2342,3.237,3.237,3.237,3.2398,3.2668,3.313,3.3735,3.4012,3.4012,3.4137,3.4186,3.4186,3.4186,3.4186,3.4078,3.3171,3.3102,3.3469,0.0,0.0,0.0,0.0,0.0,0.0,0.0,0.0,0.0,0.0,3.2324,3.2481,3.2902,3.2936,3.2816,3.254,0.0,0.0,3.4835,3.6522,3.7504,3.7504,3.7281,3.7167,3.7167,3.697,3.6869,3.6869,3.6869,3.6869,3.6869,3.6869,3.6869,3.6849,3.6652,3.6553,3.6533,3.6228,3.6084,3.6084,3.6037,3.5847,3.5548,3.5408,3.4821,3.3931,3.2988,3.2352,0.0,0.0,3.1762,3.1424,3.2112,3.1784,3.1002,3.0156,2.9929,2.9935,2.9904,3.0032,3.0357,3.117,3.1434,3.1628,3.2003,3.2175,3.245,3.3202,3.3355,3.3486,3.3909,3.4423,3.4857,3.5026,3.5495,3.5758,3.5522,3.4797,3.4326,3.4414,3.3355,3.2625,3.2625,3.2625,3.2637,3.2718,3.2815,3.2841,3.2841,3.2895,3.2975,3.3039,3.3039,3.3093,3.324,3.324,3.3293,3.3345,3.3345,3.3345,3.3345,3.3417,3.3608,3.3912,3.4186,3.4309,3.4333,3.4382,3.4406,3.4406,3.4479,3.4712,3.4878,3.407,3.3894,3.4087,0.0,0.0,0.0,0.0,0.0,0.0,0.0,0.0,0.0,0.0,0.0,3.1984,3.209,3.2108,3.2126,3.2126,0.0,0.0,0.0,3.6764,3.7849,3.8101,3.7826,3.7667,3.7667,3.7431,3.7299,3.7299,3.7185,3.7147,3.7127,3.7048,3.7007,3.7007,3.7007,3.7007,3.6989,3.6908,3.6869,3.6849,3.6806,3.6547,3.6186,3.6097,3.5688,3.4959,3.3451,3.2789,0.0,0.0,3.1823,3.1522,3.2181,3.1977,3.1301,3.0524,3.0407,3.0738,3.1647,3.17,3.1654,3.2453,3.2864,3.3217,3.3673,3.3982,3.4448,3.5323,3.5512,3.5678,3.6208,3.6307,3.6473,3.707,3.7153,3.7178,3.7203,3.6362,3.5798,3.5908,3.4926,3.4244,3.427,3.3787,3.3495,3.3582,3.3633,3.3675,3.3675,3.37,3.3751,3.3853,3.3853,3.3903,3.4011,3.4011,3.4011,3.4011,3.4045,3.407,3.407,3.435,3.4528,3.4624,3.4807,3.4901,3.4901,3.4925,3.4931,3.4931,3.5025,3.5386,3.5742,3.5284,3.4938,3.4743,0.0,0.0,0.0,0.0,0.0,0.0,0.0,0.0,0.0,0.0,0.0,0.0,0.0,0.0,3.2197,0.0,0.0,0.0,0.0,3.6223,3.7217,3.8065,3.8085,3.8085,3.8085,3.8068,3.8068,3.8068,3.7685,3.7487,3.7487,3.7147,3.7007,3.7007,3.7007,3.7007,3.7007,3.7007,3.6989,3.6989,3.6987,3.6987,3.693,3.6606,3.5997,3.5142,3.3912,0.0,0.0,0.0,3.1456,3.1036,3.1715,3.1885,0.0,3.06,3.0291,0.0,3.2004,3.2892,3.3634,3.4572,3.5348,3.5877,3.5902,3.6464,3.6977,3.7036,3.7036,3.7052,3.7069,3.7069,3.7136,3.727,3.7295,3.7344,3.746,3.7467,3.7426,3.7426,3.6757,3.6353,3.6488,3.4725,3.3598,3.3582,3.371,3.3786,3.3786,3.3919,3.3986,3.3986,3.3986,3.4011,3.4011,3.4011,3.4011,3.4011,3.4128,3.4186,3.4211,3.4878,3.5174,3.5197,3.5849,3.6144,3.6144,3.6216,3.6241,3.6241,3.6259,3.6495,3.686,3.6841,3.6295,3.5571,0.0,0.0,0.0,0.0,0.0,0.0,0.0,0.0,0.0,0.0,0.0,0.0,0.0,0.0,0.0,0.0,0.0,0.0,0.0,3.6619,3.7661,3.7956,3.8303,3.8502,3.8502,3.8328,3.8231,3.8231,3.8097,3.8029,3.8029,3.7929,3.7703,3.7395,3.7395,3.7245,3.7007,3.7007,3.7007,3.7007,3.7007,3.7007,3.6917,3.6291,3.5865,3.5423,0.0,0.0,0.0,0.0,0.0,0.0,3.1727,0.0,0.0,3.123,0.0,0.0,3.366,3.4235,3.4745,3.6034,3.6555,3.6738,3.6738,3.6936,3.7102,3.7102,3.6721,3.6547,3.712,3.7228,3.7453,3.8062,3.8572,3.8915,3.8966,3.8522,3.8246,3.8362,3.7715,3.7124,3.6776,3.5599,3.4873,3.4911,3.4958,3.4981,3.4981,3.5045,3.5045,3.5045,3.5045,3.5091,3.5201,3.5201,3.5247,3.5345,3.5374,3.5442,3.5549,3.6002,3.6239,3.6361,3.6843,3.7055,3.7055,3.7094,3.7113,3.7113,3.7113,3.7189,3.7302,3.7302,3.7097,3.6865,0.0,0.0,0.0,0.0,0.0,0.0,0.0,0.0,0.0,0.0,0.0,0.0,0.0,0.0,0.0,0.0,0.0,3.4702,0.0,0.0,3.7208,3.7487,3.7849,3.8072,3.8072,3.7878,3.7805,3.7805,3.7976,3.7997,3.7904,3.818,3.8096,3.7702,3.7702,3.756,3.7301,3.7164,3.7105,3.7087,3.6728,3.6566,3.6478,3.5706,3.5213,0.0,0.0,0.0,0.0,0.0,0.0,0.0,0.0,0.0,0.0,0.0,3.2917,3.3996,3.5354,3.5796,3.6135,3.7078,3.7386,3.75,3.75,3.7724,3.7958,3.7958,3.7402,3.7112,3.767,3.7561,3.7577,3.8187,3.8682,3.9093,3.9412,3.9043,3.8866,3.9211,3.8612,3.7995,3.7618,3.6584,3.5852,3.5616,3.56,3.56,3.56,3.56,3.5622,3.5667,3.5667,3.58,3.6088,3.6088,3.622,3.6457,3.6457,3.6536,3.6676,3.6882,3.7038,3.7132,3.7395,3.7505,3.7505,3.7505,3.7505,3.7505,3.7505,3.7596,3.7703,3.7703,3.7809,3.7896,0.0,0.0,0.0,0.0,0.0,0.0,0.0,0.0,0.0,0.0,0.0,0.0,0.0,0.0,0.0,0.0,0.0,0.0,0.0,0.0,0.0,3.6708,3.6852,3.6907,3.6907,3.6907,3.6907,3.6895,3.7344,3.7444,3.7177,3.788,3.8085,3.7802,3.7802,3.7785,3.7734,3.7342,3.719,3.7101,3.6133,3.5759,3.5652,3.4916,0.0,0.0,0.0,0.0,0.0,0.0,0.0,3.1553,3.1587,3.1919,3.2454,3.3208,3.4474,3.5898,3.7,3.7551,3.7786,3.786,3.8095,3.8339,3.8365,3.8985,3.9573,3.954,3.9032,3.8598,3.8564,3.8027,3.7623,3.7752,3.7843,3.8179,3.9011,3.9137,3.9391,4.0086,3.9561,3.912,3.9086,3.7797,3.6627,3.5791,3.5661,3.5644,3.5644,3.565,3.5734,3.5866,3.5866,3.6131,3.6641,3.6641,3.6865,3.7305,3.7305,3.7378,3.7505,3.7523,3.7542,3.7542,3.756,3.756,3.756,3.756,3.756,3.756,3.7595,3.7863,3.8207,3.8244,3.8496,3.8706,0.0,0.0,0.0,0.0,0.0,0.0,0.0,0.0,0.0,0.0,0.0,0.0,0.0,0.0,0.0,0.0,0.0,0.0,0.0,0.0,0.0,0.0,0.0,0.0,0.0,0.0,0.0,3.6839,3.7106,3.7043,3.6694,3.7017,3.6881,3.6336,3.6336,3.6161,3.5879,3.5776,3.5652,3.5491,0.0,3.508,3.4881,0.0,0.0,0.0,0.0,0.0,0.0,3.193,3.2034,3.2427,3.3009,3.4045,3.5057,3.5245,3.6387,3.7757,3.8544,3.8822,3.9065,3.9819,4.0062,4.0175,4.0315,4.0524,4.053,3.9909,3.9233,3.8612,3.8087,3.8338,3.8668,3.8795,3.9795,4.0595,4.0826,4.0866,4.0936,4.1105,4.0988,4.0657,4.01,3.9704,3.892,3.7558,3.6615,3.6135,3.6203,3.6481,3.6706,3.6843,3.6843,3.6923,3.7117,3.7228,3.7322,3.7451,3.7451,3.7469,3.7505,3.7809,3.7948,3.7948,3.8269,3.8401,3.8401,3.8401,3.8401,3.8455,3.9039,3.936,3.9497,4.0119,4.0406,4.0455,0.0,0.0,0.0,0.0,0.0,0.0,0.0,0.0,0.0,0.0,0.0,0.0,0.0,0.0,0.0,0.0,0.0,0.0,0.0,0.0,0.0,0.0,0.0,0.0,0.0,0.0,0.0,0.0,0.0,0.0,3.5932,3.6448,3.6403,3.5921,3.5921,3.5802,3.5586,3.5425,0.0,0.0,0.0,0.0,0.0,0.0,0.0,0.0,0.0,0.0,3.2915,3.3069,3.3306,3.3638,3.428,3.5291,3.6337,3.7034,3.8062,3.9187,4.0066,4.028,4.036,4.0909,4.0995,4.0874,4.0624,4.0622,4.0441,3.9625,3.8924,3.8328,3.7968,3.8272,3.8631,3.8708,3.9729,4.0664,4.0959,4.1012,4.1135,4.1468,4.1503,4.1345,4.0906,4.0594,4.0049,3.9171,3.7853,3.6963,3.6638,3.6845,3.7058,3.7209,3.7229,3.7378,3.7649,3.7913,3.8034,3.8034,3.8034,3.8034,3.8016,3.8252,3.8368,3.8385,3.8611,3.8707,3.8707,3.884,3.8881,3.8969,3.9892,4.0247,4.0358,4.1193,4.149,4.149,0.0,0.0,0.0,0.0,0.0,0.0,0.0,0.0,0.0,0.0,0.0,0.0,0.0,0.0,0.0,0.0,0.0,0.0,0.0,0.0,0.0,0.0,0.0,0.0,0.0,0.0,0.0,0.0,0.0,0.0,0.0,0.0,0.0,0.0,0.0,0.0,0.0,0.0,0.0,0.0,0.0,0.0,0.0,0.0,0.0,0.0,0.0,3.3038,3.3811,3.446,3.4758,3.4949,3.5575,3.6255,3.7158,3.8608,3.9586,4.0379,4.1367,4.1587,4.1525,4.1552,4.1432,4.1098,4.0324,4.0237,4.0056,3.914,3.8558,3.8146,3.804,3.8239,3.8417,3.8417,3.9179,3.9991,4.0623,4.0732,4.0958,4.1607,4.1678,4.1678,4.1678,4.1117,4.0697,4.0609,3.927,3.8084,3.723,3.7186,3.7248,3.7378,3.7451,3.772,3.8186,3.8515,3.8707,3.8707,3.8707,3.8707,3.8707,3.8707,3.8707,3.8707,3.8753,3.875,3.878,3.9031,3.9137,3.9258,4.042,4.0848,4.0979,4.1963,4.2333,4.2333,0.0,0.0,0.0,0.0,0.0,0.0,0.0,0.0,0.0,0.0,3.2406,3.2406,0.0,0.0,0.0,0.0,0.0,0.0,0.0,0.0,0.0,0.0,0.0,0.0,0.0,3.4185,3.4099,3.4099,3.4222,0.0,0.0,0.0,0.0,0.0,0.0,0.0,0.0,0.0,0.0,0.0,0.0,0.0,0.0,0.0,0.0,0.0,3.3371,3.3917,3.4747,3.4708,3.5109,3.5845,3.7209,3.8187,3.901,3.9925,4.0862,4.159,4.1796,4.1998,4.2187,4.2351,4.2374,4.2179,4.1529,4.1425,4.103,3.9608,3.9229,3.8941,3.8292,3.9229,4.0076,4.0076,4.132,4.2312,4.2456,4.2474,4.251,4.2655,4.2673,4.2673,4.2673,4.264,4.2372,4.1685,4.0836,3.9842,3.8707,3.8325,3.8234,3.8433,3.8449,3.8515,3.8596,3.8676,3.8707,3.8707,3.8707,3.8707,3.8707,3.8707,3.8707,3.8723,3.8935,3.9031,3.9045,3.9324,3.9439,3.9571,4.1103,4.168,4.188,4.3487,4.4078,4.406,0.0,0.0,0.0,0.0,0.0,0.0,0.0,0.0,3.2406,3.2406,3.2406,3.2406,3.2406,3.2406,0.0,0.0,0.0,0.0,0.0,0.0,0.0,0.0,0.0,0.0,0.0,3.4049,3.3998,3.3998,0.0,3.3753,3.3549,3.3549,3.3477,3.3393,3.3393,3.3393,3.3393,0.0,0.0,3.3241,3.3132,3.3055,0.0,0.0,0.0,0.0,0.0,3.4995,3.5776,3.6095,3.6714,3.7508,3.8435,3.9287,4.0098,4.0983,4.1545,4.1917,4.2061,4.2287,4.249,4.257,4.267,4.2461,4.1324,4.1071,4.0637,3.9079,3.8788,3.8788,3.8808,3.9749,4.0637,4.1053,4.2122,4.2901,4.2901,4.2901,4.2901,4.2901,4.2901,4.2938,4.2994,4.3049,4.2959,4.2596,4.1848,4.0812,3.9404,3.8771,3.8528,3.8692,3.8707,3.8707,3.8707,3.8707,3.8765,3.891,3.8765,3.8851,3.9115,3.8979,3.8974,3.9129,3.9245,3.9311,3.9337,3.9599,3.9717,3.9898,4.167,4.2371,4.2576,4.4338,4.4981,4.4966,0.0,0.0,0.0,0.0,0.0,0.0,0.0,3.2179,3.2319,3.2388,3.2406,3.2406,3.2406,3.2406,3.2406,0.0,0.0,0.0,0.0,0.0,0.0,0.0,0.0,0.0,0.0,0.0,0.0,3.3934,3.3739,0.0,0.0,0.0,0.0,0.0,3.3393,3.3393,3.3393,3.3393,3.3393,0.0,0.0,3.3147,0.0,0.0,0.0,0.0,0.0,3.5952,3.6559,3.7149,3.8006,3.888,3.9093,3.9732,4.0549,4.1456,4.1753,4.189,4.2254,4.251,4.265,4.265,4.2786,4.2466,4.0854,4.0492,4.0075,3.8518,3.8354,3.8662,3.9278,4.0148,4.0963,4.1596,4.2375,4.2901,4.2901,4.2901,4.2901,4.2901,4.2938,4.2994,4.3086,4.3141,4.3196,4.3233,4.2502,4.1352,3.9728,3.8951,3.859,3.8707,3.8707,3.8738,3.8795,3.8795,3.8921,3.9178,3.8979,3.9087,3.9483,3.9285,3.9298,3.9495,3.9563,3.9599,3.9611,3.9881,4.0091,4.0416,4.2133,4.291,4.3274,4.4834,4.5429,4.5419,0.0,0.0,0.0,0.0,0.0,0.0,0.0,3.1749,3.2073,3.2354,3.2406,3.2406,3.2406,3.2406,3.2406,0.0,0.0,0.0,0.0,0.0,0.0,0.0,0.0,0.0,0.0,0.0,0.0,3.3726,3.352,0.0,0.0,0.0,0.0,0.0,0.0,3.3393,3.3393,3.3393,0.0,0.0,0.0,0.0,0.0,0.0,0.0,0.0,0.0,3.645,3.6659,3.6541,3.7614,3.8959,3.8808,3.9302,4.0123,4.0927,4.1298,4.1616,4.2372,4.2709,4.2863,4.2863,4.29,4.2466,4.0854,4.0492,4.0075,3.8518,3.8788,3.9297,3.9387,4.06,4.1614,4.1687,4.2375,4.2901,4.2901,4.2901,4.2901,4.2901,4.3012,4.3086,4.3104,4.3269,4.3358,4.3394,4.2695,4.1541,3.9865,3.9085,3.8692,3.8707,3.8707,3.8825,3.9059,3.9059,3.9192,3.9458,3.9439,3.9446,3.9514,3.9458,3.9489,3.9508,3.9751,3.9851,3.9892,4.0157,4.0683,4.1456,4.2422,4.3283,4.4106,4.5122,4.5485,4.5504,0.0,0.0,0.0,0.0,0.0,0.0,0.0,3.1317,3.1582,3.2037,3.2108,3.2179,3.2388,3.2406,3.2406,0.0,0.0,0.0,0.0,0.0,0.0,0.0,0.0,0.0,0.0,0.0,3.3437,3.352,3.3437,0.0,0.0,0.0,0.0,0.0,0.0,3.3393,3.3393,3.3393,0.0,0.0,0.0,0.0,0.0,0.0,0.0,0.0,0.0,0.0,3.7657,3.8075,3.867,3.9228,3.9139,3.9338,3.9823,4.0949,4.1328,4.1604,4.2531,4.2843,4.2901,4.2901,4.2538,4.1886,4.0745,4.0166,3.9659,3.9043,3.917,3.9677,4.0619,4.1288,4.185,4.2339,4.2683,4.2901,4.2901,4.2901,4.2938,4.3012,4.3067,4.3141,4.3269,4.3496,4.3744,4.3977,4.3278,4.2549,4.1868,4.0302,3.9277,3.8954,3.8935,3.9073,3.9337,3.935,3.9489,3.9739,3.9587,3.967,3.9975,3.9807,3.9837,3.9986,4.0087,4.0147,4.0157,4.0253,4.0807,4.1647,4.2489,4.3388,4.4326,4.5178,4.5541,4.5586,0.0,0.0,0.0,0.0,0.0,3.0021,3.0703,3.0965,3.1298,3.184,3.1984,3.2144,3.2371,3.2406,3.2406,3.2406,0.0,0.0,0.0,0.0,0.0,0.0,0.0,0.0,0.0,0.0,3.3259,3.3259,3.3259,3.3259,0.0,0.0,3.3289,3.3259,0.0,0.0,0.0,0.0,0.0,0.0,0.0,0.0,0.0,0.0,0.0,0.0,0.0,0.0,0.0,0.0,0.0,3.906,3.906,0.0,0.0,4.0473,4.0959,4.1339,4.2283,4.2719,4.2901,4.2901,4.2303,4.1488,4.0673,3.993,3.9387,3.9387,3.9568,4.013,4.1451,4.1886,4.2248,4.281,4.2901,4.292,4.3013,4.305,4.3105,4.3215,4.3357,4.3461,4.3496,4.3791,4.408,4.4369,4.3871,4.3453,4.3208,4.1719,4.0477,3.961,3.9349,3.935,3.9623,3.9623,3.9751,4.0017,3.9826,3.9943,4.0301,4.0098,4.0118,4.0301,4.0301,4.0291,4.031,4.031,4.0978,4.2047,4.2631,4.3614,4.4795,4.537,4.564,4.5708,0.0,0.0,0.0,0.0,0.0,0.0,0.0,3.0747,3.1298,3.184,3.2196,3.2406,3.2406,3.2406,3.2406,3.2406,0.0,0.0,0.0,0.0,0.0,0.0,0.0,0.0,0.0,0.0,3.29,3.29,3.29,3.29,3.2916,3.3039,3.3024,3.2916,0.0,0.0,0.0,0.0,0.0,0.0,0.0,0.0,0.0,0.0,0.0,0.0,0.0,0.0,0.0,0.0,0.0,0.0,0.0,0.0,0.0,0.0,3.9948,4.0691,4.1488,4.2303,4.2901,4.2901,4.2303,4.1488,4.0673,3.993,3.9387,3.9387,3.9985,4.0727,4.1542,4.2357,4.2901,4.2901,4.2901,4.2995,4.3249,4.3404,4.349,4.3496,4.3965,4.4158,4.382,4.4154,4.4402,4.4397,4.4397,4.404,4.3246,4.3176,4.2406,4.0735,3.9908,3.9616,3.9892,3.9903,4.0027,4.0301,4.0301,4.0301,4.0301,4.0301,4.0301,4.0301,4.0301,4.03,4.0307,4.0307,4.1319,4.2878,4.297,4.4097,4.5691,4.5766,4.5835,4.5899,0.0,0.0,0.0,0.0,0.0,0.0,0.0,3.0102,3.046,3.1179,3.1579,3.1839,3.2055,3.2249,3.2406,3.2406,0.0,0.0,0.0,0.0,0.0,0.0,0.0,0.0,0.0,0.0,0.0,3.29,3.29,3.29,3.29,3.293,3.2948,3.29,3.293,3.2945,0.0,0.0,0.0,0.0,0.0,0.0,3.3429,0.0,0.0,0.0,0.0,0.0,0.0,0.0,0.0,0.0,0.0,0.0,0.0,0.0,0.0,0.0,4.0673,4.1053,4.127,4.127,4.0691,4.0057,3.9804,3.9134,3.888,3.993,4.0329,4.0962,4.2504,4.2996,4.3232,4.3425,4.3442,4.351,4.3691,4.3754,4.3849,4.4023,4.4231,4.4397,4.4474,4.4612,4.477,4.5007,4.5019,4.4897,4.465,4.4068,4.2898,4.1021,4.0738,4.0471,4.0176,4.0176,4.0225,4.0301,4.0301,4.0301,4.0301,4.0301,4.0301,4.0301,4.03,4.0289,4.0345,4.0994,4.192,4.3037,4.3697,4.4696,4.578,4.5847,4.5872,4.5915,0.0,0.0,0.0,0.0,0.0,0.0,0.0,2.9968,3.033,3.0918,3.1293,3.156,3.1728,3.1947,3.2108,3.2214,0.0,0.0,0.0,0.0,0.0,0.0,0.0,0.0,0.0,3.2658,3.2724,3.2724,3.2724,3.2724,3.2724,3.2771,3.2755,3.2724,3.2753,3.2804,0.0,0.0,0.0,0.0,0.0,0.0,3.3429,0.0,0.0,0.0,0.0,0.0,0.0,0.0,0.0,0.0,0.0,0.0,0.0,0.0,0.0,0.0,0.0,4.0293,4.0492,4.0492,3.9948,3.9387,3.9387,3.9007,3.8989,4.0239,4.0817,4.154,4.303,4.339,4.3511,4.3679,4.3726,4.3836,4.402,4.4154,4.4308,4.463,4.4604,4.4682,4.4957,4.5,4.5087,4.5277,4.5307,4.5307,4.5307,4.4781,4.3783,4.2235,4.1588,4.1099,4.0769,4.0454,4.0301,4.0301,4.0301,4.0301,4.0301,4.0301,4.0301,4.031,4.0299,4.0513,0.0,4.1511,4.2503,4.3706,4.4273,4.5085,4.5925,4.5959,4.6005,4.6061,0.0,0.0,0.0,0.0,0.0,0.0,0.0,0.0,0.0,3.0935,3.1271,3.1466,3.1466,3.1504,3.1635,3.1876,0.0,0.0,0.0,0.0,0.0,0.0,0.0,0.0,0.0,3.2354,3.2354,3.2354,3.2354,3.2354,3.2371,3.2523,3.2523,3.2423,3.2523,3.2589,0.0,0.0,0.0,0.0,0.0,0.0,0.0,0.0,0.0,0.0,0.0,0.0,0.0,0.0,0.0,0.0,0.0,0.0,0.0,0.0,0.0,0.0,0.0,3.9804,4.0329,4.0329,3.9822,3.9297,3.9297,3.9368,0.0,4.0383,4.1392,4.2385,4.3209,4.3562,4.3747,4.3851,4.3961,4.4143,4.4411,4.4629,4.4887,4.5256,4.5023,4.4957,4.5267,4.5307,4.5307,4.5307,4.5307,4.5307,4.5307,4.5307,4.4934,4.4121,4.2526,4.1609,4.1495,4.0769,4.0358,4.0301,4.0301,4.0301,4.0301,4.0301,4.031,4.031,4.0384,4.0929,4.1826,4.2021,4.3135,4.4705,4.4773,4.5335,4.6102,4.6105,4.6184,4.63,0.0,0.0,0.0,0.0,0.0,0.0,0.0,0.0,0.0,0.0,3.0915,3.1114,3.1114,3.1542,3.1821,0.0,0.0,0.0,0.0,0.0,0.0,0.0,0.0,0.0,0.0,3.1947,3.1802,3.202,3.202,3.202,3.202,3.2319,3.2422,3.2406,3.244,0.0,0.0,0.0,0.0,0.0,0.0,0.0,0.0,0.0,0.0,0.0,3.6651,3.7393,0.0,0.0,0.0,0.0,0.0,0.0,0.0,0.0,3.8209,0.0,3.8444,0.0,3.8735,3.8735,3.8608,3.848,0.0,0.0,0.0,0.0,0.0,4.2717,4.3741,4.3968,4.4329,4.5289,4.5486,4.5596,4.5874,4.5491,4.5184,4.5297,4.5235,4.5205,4.5297,4.5307,4.5307,4.5307,4.5307,4.5307,4.5307,4.5307,4.5201,4.4991,4.3978,4.2794,4.1514,4.1304,4.0903,4.0301,4.0301,4.0301,4.0301,4.0301,4.0372,4.0492,4.117,4.1647,4.2053,4.3463,4.4311,4.4773,4.5484,4.5908,4.6105,4.6214,4.6273,4.63,0.0,0.0,0.0,0.0,0.0,0.0,0.0,0.0,0.0,0.0,0.0,0.0,0.0,0.0,0.0,0.0,0.0,0.0,0.0,0.0,0.0,0.0,0.0,0.0,3.1965,3.1671,3.1635,3.1894,3.1894,3.1984,3.2126,3.2319,3.2406,3.2406,3.2406,0.0,0.0,0.0,0.0,0.0,3.2606,0.0,0.0,0.0,0.0,0.0,3.6956,3.7694,0.0,3.8175,3.8209,3.8209,0.0,0.0,0.0,0.0,3.8209,3.8209,3.8209,3.8209,3.8209,3.8209,3.8209,3.8224,3.8322,0.0,0.0,0.0,0.0,4.2971,4.3911,4.4199,4.4655,4.5811,4.5715,4.5729,4.6348,4.6094,4.5851,4.5851,4.5507,4.5307,4.5307,4.5307,4.5307,4.5307,4.5307,4.5307,4.5307,4.5307,4.5307,4.5307,4.489,4.3848,4.2106,4.1752,4.1176,4.0353,4.0413,4.0413,4.0353,4.0413,4.0441,4.0516,4.1437,4.215,4.2747,4.4132,4.4962,4.5449,4.5956,4.6153,4.6206,4.6273,4.63,4.63,0.0,0.0,0.0,0.0,0.0,0.0,0.0,0.0,0.0,0.0,0.0,0.0,0.0,0.0,0.0,0.0,0.0,0.0,0.0,0.0,0.0,0.0,0.0,3.1447,3.1485,3.1447,3.156,3.184,3.1876,3.2055,3.2319,3.2388,3.2406,3.2406,3.2406,0.0,0.0,0.0,0.0,0.0,3.2573,0.0,0.0,0.0,0.0,0.0,0.0,0.0,0.0,3.8141,3.8209,3.8209,3.8209,0.0,0.0,0.0,0.0,0.0,3.8209,3.8298,3.8386,3.8277,3.8241,3.8289,3.851,0.0,0.0,0.0,0.0,4.3222,4.402,4.4476,4.5049,4.6054,4.5723,4.5615,4.6391,4.6385,4.6328,4.6328,4.5717,4.5317,4.5338,4.5317,4.5317,4.5338,4.5319,4.5319,4.5319,4.535,4.536,4.536,4.5467,4.4727,4.3063,4.2291,4.1487,4.063,4.0603,4.0537,4.0438,4.0545,4.061,4.0704,4.1691,4.2709,4.37,4.4579,4.5434,4.6214,4.6214,4.6245,4.63,4.63,4.63,4.6302,0.0,0.0,0.0,0.0,0.0,0.0,0.0,0.0,0.0,0.0,0.0,0.0,0.0,0.0,0.0,0.0,0.0,0.0,0.0,0.0,0.0,0.0,3.1095,3.1213,3.1485,3.1232,3.1252,3.156,3.1785,3.193,3.1984,3.2267,3.2406,3.2406,3.2406,3.2406,3.2406,0.0,0.0,0.0,3.2422,0.0,0.0,0.0,0.0,0.0,0.0,0.0,0.0,3.8141,3.8209,3.8209,3.8209,0.0,0.0,0.0,0.0,0.0,3.8209,3.8829,3.9303,3.8611,3.8446,3.851,3.8773,3.9585,0.0,0.0,0.0,4.3483,4.429,4.5175,4.6072,4.703,4.7279,4.7144,4.6585,4.5908,4.5468,4.5468,4.5383,4.5339,4.5457,4.537,4.5339,4.5457,4.5467,4.5467,4.5467,4.5584,4.5643,4.5643,4.5668,4.5186,4.416,4.3316,4.2475,4.1665,4.0928,4.0581,4.0566,4.0581,4.1055,4.1887,4.2787,4.3747,4.4737,4.5601,4.6094,4.6277,4.6277,4.6298,4.63,4.63,4.63,4.6303,0.0,0.0,0.0,0.0,0.0,0.0,0.0,0.0,0.0,0.0,0.0,0.0,0.0,0.0,0.0,0.0,0.0,0.0,0.0,0.0,0.0,3.0716,3.0733,3.0895,3.1232,3.0898,3.1041,3.1728,3.1674,3.1839,3.2161,3.2336,3.2406,3.2406,3.2406,3.2406,3.2406,3.2406,0.0,0.0,0.0,0.0,0.0,0.0,0.0,0.0,0.0,0.0,0.0,0.0,3.8124,3.8209,3.8209,0.0,0.0,0.0,0.0,0.0,3.8209,3.8609,3.9106,3.932,3.9682,4.009,4.0352,4.0774,4.1246,0.0,4.2626,4.3407,4.3782,4.4638,4.5488,4.6061,4.7076,4.7502,4.6615,4.623,4.6061,4.6061,4.5735,4.5549,4.561,4.5558,4.5549,4.559,4.5618,4.5618,4.5618,4.5676,4.5708,4.5708,4.5769,4.5612,4.5206,4.4408,4.3324,4.1938,4.1137,4.075,4.0733,4.124,4.1681,4.2125,4.3538,4.4413,4.4906,4.5783,4.6186,4.6245,4.6245,4.6271,4.63,4.63,4.6309,4.63,0.0,0.0,0.0,0.0,0.0,0.0,0.0,0.0,0.0,0.0,0.0,0.0,0.0,0.0,0.0,0.0,0.0,0.0,0.0,0.0,3.0506,3.0506,3.0506,3.0671,3.0995,3.0753,3.1041,3.1894,3.1674,3.1874,3.2406,3.2406,3.2406,3.2406,3.2406,3.2406,3.2406,3.2406,3.2406,0.0,0.0,0.0,0.0,0.0,0.0,0.0,0.0,0.0,0.0,0.0,0.0,0.0,0.0,0.0,0.0,3.8209,3.8209,3.8209,3.8257,3.8579,3.9068,3.9952,0.0,4.0978,4.1619,4.1624,4.1628,0.0,4.2844,4.3364,4.3579,4.4435,4.5249,4.5666,4.6721,4.7218,4.6381,4.6359,4.6426,4.6463,4.6009,4.5715,4.5746,4.5723,4.5715,4.5746,4.5746,4.5746,4.5746,4.5757,4.5771,4.5771,4.5874,4.5912,4.5912,4.5187,4.3984,4.2346,4.1577,4.1189,4.1145,4.1873,4.2359,4.2743,4.4185,4.4928,4.5173,4.5854,4.6167,4.6216,4.6216,4.6251,4.6309,4.6309,4.6282,4.6289,0.0,0.0,0.0,0.0,0.0,0.0,0.0,0.0,0.0,0.0,0.0,0.0,0.0,0.0,0.0,0.0,0.0,0.0,0.0,0.0,3.0506,3.0506,3.0506,3.0671,3.0995,3.0975,3.1274,3.1894,3.1876,3.2037,3.2406,3.2406,3.2406,3.2406,3.2406,3.2406,3.2406,3.2406,3.2406,3.2458,0.0,0.0,0.0,0.0,0.0,0.0,0.0,0.0,0.0,0.0,0.0,0.0,0.0,0.0,3.8209,3.8209,3.8209,3.8241,3.8433,3.9212,4.0041,4.0314,3.9853,3.9815,4.1582,4.141,0.0,4.2881,4.3257,4.356,4.4446,4.552,4.6572,4.7449,4.7043,4.6343,4.5678,4.5591,4.5626,4.5753,4.5738,4.5754,4.588,4.5776,4.5754,4.588,4.5886,4.5886,4.5886,4.5935,4.598,4.598,4.5986,4.5991,4.5991,4.52,4.4321,4.3384,4.252,4.2092,4.2107,4.217,4.3073,4.4606,4.4747,4.5281,4.6103,4.6162,4.6238,4.6298,4.6298,4.6294,4.6306,4.6306,4.6269,4.6204,0.0,0.0,0.0,0.0,0.0,0.0,0.0,0.0,0.0,0.0,0.0,0.0,0.0,0.0,0.0,0.0,0.0,0.0,0.0,0.0,3.0506,3.0506,3.0506,3.0757,3.131,3.1114,3.1293,3.1894,3.2108,3.2284,3.2406,3.2406,3.2406,3.2406,3.2406,3.2406,3.2406,3.2406,3.2406,3.2458,3.3196,0.0,0.0,0.0,0.0,0.0,0.0,0.0,0.0,0.0,3.7934,3.8209,3.8209,3.8209,3.8224,3.8354,3.8385,3.8449,3.8664,3.949,4.03,4.037,4.0307,0.0,0.0,4.2562,4.2524,4.3163,4.3756,4.4321,4.485,4.5311,4.5738,4.6173,4.603,4.5793,4.5533,4.5632,4.5769,4.5812,4.5861,4.5911,4.5966,4.5917,4.5911,4.5966,4.5953,4.5953,4.5953,4.598,4.6002,4.6002,4.6002,4.6002,4.6002,4.571,4.5122,4.4307,4.3413,4.2714,4.2233,4.3315,4.4174,4.4833,4.5426,4.5875,4.6206,4.6206,4.6243,4.6302,4.6296,4.6304,4.6288,4.625,4.6222,4.6202,0.0,0.0,0.0,0.0,0.0,0.0,0.0,0.0,0.0,0.0,0.0,0.0,0.0,0.0,0.0,0.0,0.0,0.0,0.0,3.0506,3.0506,3.0506,3.0506,3.0757,3.1332,3.1114,3.1293,3.1894,3.2037,3.2161,3.2249,3.2249,3.2301,3.2406,3.2406,3.2406,3.2406,3.2406,3.2406,3.2458,3.3213,3.3986,0.0,0.0,0.0,0.0,0.0,0.0,0.0,0.0,3.7863,3.8209,3.8209,3.8241,3.8322,3.8462,3.8556,3.868,3.8935,3.951,4.0113,4.0443,0.0,0.0,4.2919,4.3088,4.305,4.3576,4.425,4.4915,4.543,4.5352,4.5343,4.5694,4.5649,4.5584,4.5627,4.5783,4.5912,4.5925,4.5964,4.6002,4.6002,4.6002,4.6002,4.6002,4.6002,4.6002,4.6002,4.6002,4.6002,4.6002,4.6002,4.6002,4.6002,4.6002,4.5594,4.4792,4.4477,4.3865,4.3053,4.4251,4.4962,4.5281,4.591,4.6215,4.6238,4.6238,4.6255,4.6294,4.6305,4.6289,4.6268,4.622,4.62,4.6209,0.0,0.0,0.0,0.0,0.0,0.0,0.0,0.0,0.0,0.0,0.0,0.0,0.0,0.0,0.0,0.0,0.0,0.0,3.0506,3.0506,3.0506,3.0506,3.0506,3.0671,3.0995,3.0995,3.1293,3.1894,3.1635,3.1635,3.1894,3.1894,3.209,3.2406,3.2406,3.2406,3.2406,3.2406,3.2406,3.2458,3.3213,3.3986,0.0,0.0,0.0,0.0,0.0,0.0,0.0,0.0,3.7863,3.8209,3.8209,3.8354,3.851,3.851,3.8695,3.895,3.9142,3.9215,3.9488,4.054,4.0816,4.1267,4.2919,4.2624,4.2492,4.4144,4.4725,4.5197,4.6214,4.5894,4.5764,4.657,4.6138,4.5754,4.5886,4.59,4.5938,4.5991,4.6002,4.6002,4.6002,4.6002,4.6002,4.6002,4.6002,4.6002,4.6002,4.6002,4.6002,4.6002,4.6002,4.6002,4.6002,4.6002,4.5594,4.4812,4.5686,4.565,4.479,4.4813,4.5328,4.6206,4.6209,4.6243,4.63,4.63,4.6295,4.6307,4.6307,4.6265,4.6206,4.6206,4.6201,4.6199,0.0,0.0,0.0,0.0,0.0,0.0,0.0,0.0,0.0,0.0,0.0,0.0,0.0,0.0,0.0,0.0,0.0,0.0,3.0506,3.0506,3.0506,3.0506,3.0506,3.0671,3.0995,3.1215,3.1542,3.1894,3.1821,3.1948,3.2249,3.2249,3.2301,3.2406,3.2406,3.2406,3.2406,3.2406,3.2406,3.2458,3.3213,3.3986,3.4776,0.0,0.0,0.0,0.0,0.0,0.0,0.0,0.0,0.0,3.837,3.8446,3.8554,3.8898,3.9059,3.9175,3.9419,4.0313,4.11,4.0859,4.168,4.2693,4.3182,4.3106,0.0,4.4524,4.4833,4.5079,4.5656,4.5621,4.5608,4.5935,4.5908,4.584,4.5893,4.5943,4.5969,4.5997,4.6002,4.6002,4.6002,4.6002,4.6002,4.6002,4.6002,4.6002,4.6002,4.6002,4.6002,4.6002,4.6002,4.6002,4.6002,4.6002,4.5901,4.5725,4.5972,4.565,4.4813,4.5475,4.5939,4.6209,4.6245,4.6275,4.6302,4.6297,4.6268,4.6228,4.6238,4.6223,4.6204,4.6195,4.6193,4.6199,0.0,0.0,0.0,0.0,0.0,0.0,0.0,0.0,0.0,0.0,0.0,0.0,0.0,0.0,0.0,0.0,0.0,0.0,0.0,0.0,3.038,3.038,3.0464,3.0593,3.0814,3.1117,3.137,3.1543,3.1691,3.1893,3.2214,3.2214,3.2267,3.2406,3.2406,3.2406,3.2406,3.2406,3.2406,3.2441,3.288,3.3547,3.432,0.0,0.0,0.0,0.0,0.0,0.0,0.0,0.0,0.0,3.8462,3.8631,3.8826,3.9129,3.9283,3.9462,3.9946,4.0778,4.1573,4.1755,4.2543,4.3396,4.3798,4.3925,4.4134,4.4834,4.5068,4.5222,4.5521,4.5607,4.5692,4.5769,4.5874,4.5937,4.5937,4.5969,4.6002,4.6002,4.6002,4.6002,4.6002,4.6002,4.6002,4.6002,4.6002,4.6002,4.6002,4.6002,4.6002,4.6002,4.6002,4.6002,4.6002,4.6022,4.6066,4.6098,4.6137,4.5868,4.5381,4.5947,4.6201,4.6243,4.6241,4.6265,4.6265,4.6269,4.6247,4.6192,4.6195,4.6197,4.6201,4.619,4.6199,4.6199,0.0,0.0,0.0,0.0,0.0,0.0,0.0,0.0,0.0,0.0,0.0,0.0,0.0,0.0,0.0,0.0,0.0,0.0,0.0,0.0,3.0189,3.0189,3.0401,3.0506,3.0506,3.0834,3.1015,3.1055,3.1349,3.1635,3.1894,3.193,3.2108,3.2406,3.2406,3.2406,3.2406,3.2406,3.2406,3.2406,3.2406,3.2827,3.3582,3.432,0.0,0.0,0.0,0.0,0.0,0.0,0.0,0.0,3.8538,3.8855,3.9197,3.9224,3.9457,3.9871,4.0591,4.091,4.1398,4.2919,4.3378,4.3683,4.4587,4.4884,4.5,4.5107,4.5333,4.5543,4.5688,4.5812,4.59,4.5912,4.5966,4.6002,4.6002,4.6002,4.6002,4.6002,4.6002,4.6002,4.6002,4.6002,4.6002,4.6002,4.6002,4.6002,4.6002,4.6002,4.6002,4.6002,4.6002,4.6002,4.6002,4.6071,4.6102,4.6095,4.6167,4.6196,4.6199,4.6197,4.6227,4.6288,4.6228,4.6203,4.6202,4.6202,4.6191,4.6201,4.6201,4.6198,4.6199,4.6199,4.6199,4.6199,0.0,0.0,0.0,0.0,0.0,0.0,0.0,0.0,0.0,0.0,0.0,0.0,0.0,0.0,0.0,0.0,0.0,0.0,0.0,0.0,3.0189,3.0189,3.0401,3.0506,3.0506,3.0834,3.1134,3.1389,3.1466,3.1635,3.1894,3.2161,3.2336,3.2406,3.2406,3.2406,3.2406,3.2406,3.2406,3.2406,3.2406,3.2827,3.3529,3.3705,3.4599,0.0,0.0,0.0,0.0,0.0,0.0,0.0,3.8927,3.9129,3.9237,3.9445,4.0002,4.0572,4.0741,4.1755,4.2844,4.32,4.3899,4.4537,4.4738,4.5135,4.5433,4.5352,4.538,4.5516,4.5812,4.588,4.5925,4.5964,4.5986,4.6002,4.6002,4.6002,4.6002,4.6002,4.6002,4.6002,4.6002,4.6002,4.6002,4.6002,4.6002,4.6002,4.6002,4.6002,4.6002,4.6002,4.6002,4.6002,4.6002,4.6071,4.6099,4.6108,4.6163,4.6206,4.6209,4.6191,4.621,4.6227,4.6205,4.6196,4.6197,4.6197,4.6197,4.6196,4.6196,4.6209,4.6199,4.6199,4.6199,4.6199,0.0,0.0,0.0,0.0,0.0,0.0,0.0,0.0,0.0,0.0,0.0,0.0,0.0,0.0,0.0,0.0,0.0,0.0,0.0,0.0,0.0,3.0338,3.0426,3.0589,3.0753,3.0915,3.1157,3.1485,3.1485,0.0,0.0,0.0,0.0,3.2406,0.0,3.2406,3.2406,3.2406,3.2406,3.2406,3.2406,3.2616,3.3003,3.3371,3.4285,0.0,0.0,0.0,0.0,0.0,0.0,0.0,0.0,0.0,3.9419,3.9564,3.9908,4.0384,4.1173,4.2018,4.2889,4.3786,4.4516,4.503,4.5152,4.5399,4.5615,4.5688,4.5691,4.5742,4.5911,4.5949,4.5966,4.5991,4.6002,4.6002,4.6002,4.6002,4.6002,4.6002,4.6002,4.6002,4.6002,4.6002,4.6002,4.6002,4.6002,4.6002,4.6002,4.6002,4.6002,4.6002,4.6032,4.6059,4.6052,4.6105,4.6154,4.6141,4.6172,4.6202,4.621,4.6204,4.6191,4.6209,4.6197,4.6199,4.6198,4.6198,4.6203,4.6199,4.6199,4.6199,4.6199,4.6199,4.6199,4.6199,0.0,0.0,0.0,0.0,0.0,0.0,0.0,0.0,0.0,0.0,0.0,0.0,0.0,0.0,0.0,0.0,0.0,0.0,0.0,0.0,0.0,0.0,3.0506,3.063,3.0915,3.0915,3.1075,3.1408,0.0,0.0,0.0,0.0,0.0,3.2406,0.0,3.2406,3.2406,3.2406,3.2406,3.2406,3.2406,3.2406,3.2476,0.0,0.0,0.0,0.0,0.0,0.0,0.0,0.0,0.0,0.0,0.0,3.9589,3.9589,3.9702,4.0096,4.1423,4.2025,4.2693,4.4421,4.5074,4.5333,4.5554,4.5637,4.573,4.5943,4.5994,4.5997,4.6002,4.6002,4.6002,4.6002,4.6002,4.6002,4.6002,4.6002,4.6002,4.6002,4.6002,4.6002,4.6002,4.6002,4.6002,4.6002,4.6002,4.6007,4.6027,4.6027,4.6018,4.6022,4.6072,4.6092,4.6106,4.6179,4.6191,4.6191,4.6204,4.6198,4.6199,4.6201,4.6197,4.6197,4.6196,4.6199,4.6199,4.6199,4.6199,4.6199,4.6199,4.6199,4.6199,4.6199,4.6199,4.6199,0.0,0.0,0.0,0.0,0.0,0.0,0.0,0.0,0.0,0.0,0.0,0.0,0.0,0.0,0.0,0.0,0.0,0.0,0.0,0.0,0.0,3.0489,3.0506,3.0526,3.0568,3.0568,3.0733,3.1075,0.0,0.0,0.0,0.0,0.0,3.2406,0.0,0.0,3.2406,3.2406,3.2406,3.2406,3.2406,3.2406,0.0,0.0,0.0,0.0,0.0,0.0,0.0,0.0,3.9129,0.0,0.0,0.0,3.9589,3.9589,4.0096,4.0685,4.091,4.214,4.3668,4.4857,4.5362,4.5563,4.5596,4.5786,4.5968,4.5991,4.5997,4.5989,4.5997,4.6002,4.6002,4.6002,4.6002,4.6002,4.6002,4.6002,4.6002,4.6002,4.6002,4.6002,4.6002,4.6002,4.6002,4.6002,4.6002,4.6022,4.608,4.6084,4.6083,4.6081,4.6106,4.6093,4.6101,4.617,4.619,4.6199,4.6206,4.6206,4.6199,4.6206,4.6209,4.6209,4.6203,4.6199,4.6199,4.6199,4.6199,4.6199,4.6199,4.6199,4.6199,4.6199,4.6199,4.6199,0.0,0.0,0.0,0.0,0.0,0.0,0.0,0.0,0.0,0.0,0.0,0.0,0.0,0.0,0.0,0.0,0.0,0.0,0.0,0.0,0.0,3.0506,3.0506,3.0589,3.0773,3.0794,3.1018,0.0,0.0,0.0,0.0,3.1984,3.209,0.0,0.0,0.0,0.0,3.2406,3.2406,3.2406,3.2406,3.2721,0.0,0.0,0.0,0.0,0.0,0.0,0.0,0.0,3.9309,3.9445,3.9564,0.0,0.0,0.0,3.9852,4.0347,4.141,4.2794,4.4182,4.517,4.5605,4.5771,4.5814,4.5918,4.6003,4.6,4.6,4.6005,4.5997,4.6002,4.6002,4.6002,4.6002,4.6002,4.6002,4.6002,4.6002,4.6002,4.6002,4.6002,4.6002,4.6002,4.6002,4.6002,4.6036,4.6064,4.6098,4.6137,4.615,4.6097,4.6148,4.6152,4.6151,4.6196,4.6195,4.6192,4.6196,4.6199,4.6199,4.6199,4.6199,4.6199,4.6199,4.6199,4.6199,4.6199,4.6199,4.6199,4.6199,4.6199,4.6199,4.6199,4.6199,4.6192,0.0,0.0,0.0,0.0,0.0,0.0,0.0,0.0,0.0,0.0,0.0,0.0,0.0,0.0,0.0,0.0,0.0,0.0,0.0,0.0,0.0,3.0506,3.0506,3.063,3.0875,3.0955,3.1215,0.0,0.0,0.0,3.2267,3.2108,3.2161,0.0,3.2406,0.0,0.0,0.0,0.0,0.0,0.0,0.0,0.0,0.0,0.0,0.0,0.0,0.0,0.0,0.0,0.0,3.9589,3.9589,3.9589,0.0,0.0,0.0,4.0045,4.1787,4.29,4.3885,4.5063,4.549,4.5666,4.5947,4.6003,4.5994,4.5997,4.6002,4.6002,4.6002,4.6002,4.6002,4.6002,4.6002,4.6002,4.6002,4.6002,4.6002,4.6002,4.6002,4.6002,4.6002,4.6027,4.6022,4.6022,4.6084,4.6134,4.6128,4.6165,4.6183,4.6132,4.6168,4.6195,4.6199,4.6201,4.6193,4.6199,4.6199,4.6199,4.6199,4.6199,4.6199,4.6199,4.6199,4.6199,4.6199,4.6199,4.6199,4.6199,4.6199,4.6199,4.6199,4.6199,4.6185,4.6138,0.0,0.0,0.0,0.0,0.0,0.0,0.0,0.0,0.0,0.0,0.0,0.0,0.0,0.0,0.0,2.9098,0.0,0.0,0.0,0.0,0.0,3.0489,3.0506,0.0,3.0526,3.0834,0.0,0.0,0.0,0.0,3.193,3.2232,3.2371,3.2406,3.2406,3.2406,3.2406,0.0,0.0,0.0,0.0,0.0,0.0,0.0,0.0,0.0,0.0,0.0,0.0,0.0,0.0,0.0,3.9589,3.9589,3.9589,0.0,0.0,0.0,4.147,4.1874,4.2379,4.4273,4.4754,4.4977,4.5803,4.6,4.5997,4.6002,4.6002,4.6002,4.6002,4.6002,4.6002,4.6002,4.6002,4.6002,4.6002,4.6002,4.6002,4.6002,4.6002,4.6002,4.6002,4.6067,4.6095,4.6095,4.6155,4.6194,4.6191,4.6191,4.6202,4.6199,4.6201,4.6203,4.6206,4.6203,4.6199,4.6199,4.6199,4.6199,4.6199,4.6199,4.6199,4.6199,4.6199,4.6199,4.6199,4.6199,4.6199,4.6199,4.6199,4.6199,4.6199,4.6199,4.613,4.6007,0.0,0.0,0.0,0.0,0.0,0.0,0.0,0.0,0.0,0.0,0.0,0.0,0.0,2.8716,2.8826,2.9075,2.935,0.0,0.0,0.0,0.0,3.0489,3.0506,3.0609,3.0814,3.0935,0.0,0.0,0.0,3.202,3.2232,3.2336,3.2406,3.2406,3.2406,3.2406,3.2406,3.2406,0.0,0.0,0.0,0.0,0.0,0.0,0.0,0.0,0.0,0.0,0.0,0.0,0.0,0.0,0.0,0.0,0.0,0.0,4.0023,4.0515,4.1513,4.1885,4.2285,4.3552,4.4292,4.4794,4.5146,4.5622,4.6002,4.6002,4.6002,4.6002,4.6002,4.6002,4.6002,4.6002,4.6002,4.6002,4.6002,4.6002,4.6002,4.6002,4.6041,4.6056,4.6056,4.6125,4.616,4.616,4.6196,4.6209,4.6191,4.6241,4.6238,4.6209,4.6192,4.6196,4.6199,4.6199,4.6199,4.6199,4.6199,4.6199,4.6199,4.6199,4.6199,4.6199,4.6199,4.6199,4.6199,4.6199,4.6199,4.6192,4.6122,4.6075,4.6066,4.5942,4.5846,4.5809,0.0,0.0,0.0,0.0,0.0,0.0,0.0,0.0,0.0,0.0,0.0,0.0,0.0,0.0,2.885,2.9213,2.9403,2.9627,2.9919,3.0087,3.0295,3.0489,3.0506,3.0671,3.0995,0.0,0.0,0.0,0.0,0.0,0.0,3.2406,3.2406,3.2406,3.2406,3.2406,0.0,0.0,0.0,3.386,0.0,0.0,3.7111,0.0,0.0,0.0,0.0,0.0,0.0,0.0,0.0,0.0,0.0,0.0,0.0,0.0,0.0,0.0,4.1312,4.16,4.1906,4.2775,4.3421,4.4033,4.4651,4.52,4.5672,4.5944,4.6002,4.6002,4.6002,4.6002,4.6002,4.6002,4.6002,4.6002,4.6002,4.6002,4.6012,4.6027,4.6068,4.6109,4.6131,4.616,4.6199,4.6199,4.6211,4.6226,4.6226,4.6259,4.6248,4.6192,4.6203,4.619,4.6199,4.6199,4.6199,4.6199,4.6199,4.6199,4.6199,4.6199,4.6199,4.6199,4.6199,4.6199,4.6199,4.6199,4.6162,4.6111,4.6027,4.5956,4.5871,4.5744,4.5675,4.5615,0.0,0.0,0.0,0.0,0.0,0.0,0.0,0.0,0.0,0.0,0.0,0.0,0.0,0.0,0.0,2.9486,2.9493,2.9694,3.0167,3.0189,3.0295,3.0489,0.0,0.0,0.0,0.0,0.0,0.0,0.0,0.0,0.0,0.0,3.2406,3.2406,3.2388,3.2423,3.244,0.0,3.3083,3.3965,0.0,3.6406,3.7288,0.0,0.0,0.0,3.9514,3.9602,0.0,4.0738,0.0,0.0,0.0,0.0,0.0,0.0,0.0,0.0,0.0,0.0,0.0,4.1961,4.2175,4.266,4.4365,4.4773,4.5025,4.5827,4.6002,4.6002,4.6002,4.6002,4.6007,4.6007,4.6007,4.6007,4.6007,4.6007,4.6027,4.6095,4.6105,4.6131,4.6181,4.6207,4.6191,4.6191,4.6252,4.6303,4.6303,4.624,4.6196,4.6199,4.6199,4.6199,4.6199,4.6199,4.6199,4.6199,4.6199,4.6199,4.6199,4.6199,4.6199,4.6199,4.6196,4.6196,4.6196,4.6196,4.6126,4.6002,4.5991,4.5879,4.5696,4.5696,4.5611,4.5481,0.0,0.0,0.0,0.0,0.0,0.0,0.0,0.0,0.0,0.0,0.0,0.0,0.0,0.0,0.0,2.9486,2.9493,2.9694,3.0167,3.0189,3.0295,3.0489,3.0733,3.1015,3.1351,0.0,0.0,0.0,0.0,0.0,0.0,0.0,0.0,0.0,3.2507,3.2875,3.3387,3.2837,0.0,3.5083,3.5815,3.7033,0.0,0.0,0.0,0.0,0.0,3.9691,3.9853,0.0,4.0236,4.0236,0.0,0.0,0.0,0.0,0.0,0.0,4.0878,0.0,0.0,0.0,0.0,0.0,4.3607,4.4345,4.5025,4.5827,4.6002,4.6002,4.6002,4.6041,4.6068,4.6068,4.6068,4.6068,4.6068,4.6115,4.615,4.6165,4.6171,4.6185,4.6209,4.6247,4.6272,4.6267,4.6294,4.6282,4.6233,4.6215,4.6196,4.6199,4.6199,4.6199,4.6199,4.6199,4.6199,4.6199,4.6199,4.6199,4.6199,4.6199,4.6199,4.6196,4.6093,4.6066,4.6066,4.6066,4.6027,4.5986,4.5728,4.5595,4.553,4.5456,4.5381,4.5351,0.0,0.0,0.0,0.0,0.0,0.0,0.0,0.0,0.0,0.0,0.0,0.0,0.0,0.0,0.0,2.9589,2.9627,2.9826,3.0295,3.0464,3.0589,3.0695,3.1035,3.1351,3.1654,3.1821,3.2055,3.2406,3.2406,3.2406,3.2406,0.0,0.0,0.0,0.0,0.0,0.0,0.0,0.0,0.0,3.6615,3.7653,3.8935,3.9419,3.9589,3.9589,3.9589,3.9686,3.9849,4.0368,4.0586,0.0,0.0,0.0,0.0,0.0,0.0,0.0,0.0,0.0,0.0,0.0,0.0,0.0,4.3219,4.3899,4.4598,4.5769,4.6002,4.6012,4.6036,4.6068,4.6109,4.6137,4.614,4.6147,4.6145,4.6186,4.6209,4.62,4.6209,4.6211,4.6246,4.629,4.6292,4.6306,4.6275,4.6242,4.6209,4.62,4.6209,4.6199,4.6199,4.6199,4.6199,4.6199,4.6199,4.6199,4.6199,4.6199,4.6199,4.6199,4.6162,4.6106,4.6027,4.5956,4.5865,4.5809,4.5783,4.5763,4.5574,4.5464,4.5419,4.5329,4.5307,4.5307,0.0,0.0,0.0,0.0,0.0,0.0,0.0,0.0,0.0,0.0,0.0,0.0,0.0,0.0,0.0,0.0,2.995,3.0098,3.0558,3.0827,3.0995,3.0995,3.1351,3.1654,3.1894,3.1948,3.2143,3.2511,3.2441,3.2493,3.2651,3.2564,0.0,0.0,0.0,0.0,0.0,0.0,0.0,3.6952,3.7518,3.8229,3.8979,3.9419,3.9589,3.9589,3.9626,3.965,3.9852,4.1045,4.1554,0.0,0.0,0.0,0.0,0.0,4.0825,0.0,0.0,0.0,0.0,0.0,4.0907,0.0,4.3097,4.3506,4.3977,4.5663,4.6018,4.6046,4.6102,4.6118,4.6123,4.6184,4.6208,4.621,4.6194,4.6212,4.6202,4.6211,4.621,4.6227,4.6284,4.6292,4.6306,4.6284,4.624,4.6196,4.6199,4.6199,4.6199,4.6199,4.6199,4.6199,4.6199,4.6199,4.6199,4.6199,4.6199,4.6199,4.6199,4.6189,4.6106,4.5997,4.5956,4.5841,4.5667,4.5541,4.5491,4.549,4.5472,4.5391,4.5307,4.5307,4.5307,4.5307,0.0,0.0,0.0,0.0,0.0,0.0,0.0,0.0,0.0,0.0,0.0,0.0,0.0,0.0,0.0,0.0,3.0903,3.079,3.1057,3.1008,3.0995,3.0995,3.1542,3.1857,3.1894,3.2161,3.2634,3.3301,3.2687,3.3038,3.4231,3.3581,0.0,0.0,0.0,0.0,0.0,0.0,3.746,3.8154,3.8012,3.8412,3.9188,3.947,3.9589,3.9614,3.9789,3.9956,4.0244,4.1347,4.1759,4.1809,0.0,0.0,0.0,4.1191,0.0,0.0,0.0,0.0,0.0,0.0,4.0907,0.0,4.3105,4.3506,4.401,4.5796,4.6158,4.616,4.6189,4.6175,4.6189,4.6191,4.6245,4.6261,4.6211,4.6248,4.6277,4.6272,4.627,4.6288,4.6302,4.6298,4.6271,4.6214,4.6203,4.6203,4.6199,4.6199,4.6199,4.6199,4.6199,4.6199,4.6199,4.6199,4.6199,4.6199,4.6199,4.6199,4.6196,4.6089,4.6022,4.5972,4.5713,4.5583,4.5533,4.54,4.541,4.55,4.5371,4.5319,4.5307,4.5307,4.5307,4.5307,0.0,0.0,0.0,0.0,0.0,0.0,0.0,0.0,0.0,0.0,0.0,0.0,0.0,0.0,0.0,0.0,0.0,0.0,0.0,3.2442,3.2615,3.2615,3.2656,3.2702,3.2702,3.2494,3.2757,3.3494,3.3143,3.3547,3.4688,3.4284,3.4464,0.0,0.0,0.0,0.0,0.0,3.8485,3.8832,3.8682,3.8838,3.9224,3.9514,3.9656,3.9754,3.9859,4.01,4.0564,4.1971,4.1938,4.1525,4.2834,4.2963,4.2509,0.0,4.1849,4.2019,0.0,0.0,0.0,4.0907,4.0924,0.0,0.0,4.3535,4.4051,4.5828,4.6202,4.6207,4.6202,4.6191,4.6209,4.6237,4.6284,4.6278,4.6213,4.6267,4.63,4.63,4.63,4.6298,4.6294,4.6269,4.6236,4.6206,4.6209,4.6199,4.6199,4.6199,4.6199,4.6199,4.6199,4.6199,4.6199,4.6199,4.6199,4.6196,4.6138,4.6098,4.6093,4.5925,4.5816,4.5773,4.6029,4.6089,4.6023,4.639,4.6583,4.655,4.5654,4.5307,4.5364,4.5755,4.5908,4.5965,0.0,0.0,0.0,0.0,0.0,0.0,0.0,0.0,0.0,0.0,0.0,0.0,0.0,0.0,0.0,0.0,0.0,0.0,0.0,3.4143,3.4359,3.4202,3.391,3.374,3.374,3.3143,3.3196,3.3951,3.3792,3.4231,3.5145,3.5024,3.5279,3.5834,0.0,0.0,0.0,0.0,3.9197,3.9197,3.9269,3.9283,3.9309,3.9527,3.9708,3.9914,3.9979,4.0251,4.08,4.2374,4.2079,4.1418,4.3555,4.3518,4.2611,4.2107,0.0,0.0,0.0,0.0,4.0893,4.0911,4.0968,4.1409,0.0,0.0,0.0,4.5634,4.6102,4.6225,4.6211,4.6228,4.618,4.6054,4.6165,4.6199,4.5972,4.6145,4.6275,4.6275,4.6296,4.6294,4.6282,4.6231,4.6192,4.6206,4.6199,4.6199,4.6199,4.6199,4.6199,4.6199,4.6199,4.6199,4.6199,4.6199,4.6199,4.6196,4.6222,4.623,4.6224,4.6163,4.6086,4.6028,4.6694,4.6905,4.6806,4.7502,4.7788,4.7674,4.6309,4.5774,4.5851,4.6519,4.6748,4.6863,3.3309,3.3309,0.0,0.0,0.0,0.0,0.0,0.0,0.0,0.0,0.0,0.0,0.0,0.0,0.0,0.0,0.0,0.0,3.5379,3.5284,3.4951,3.422,3.4435,3.4566,3.4566,3.4495,3.4793,3.5529,3.4881,3.5302,3.6726,3.6176,3.6524,3.7624,3.7901,3.8298,0.0,3.9064,3.9197,3.9224,3.9458,3.9552,3.9552,3.9577,3.9708,3.9956,4.0304,4.0576,4.092,4.1891,4.2094,4.2,4.2364,4.3413,4.4049,4.1723,4.2151,4.2986,4.1354,4.0907,4.0906,4.0963,4.0984,4.1276,4.2298,0.0,4.3964,4.4949,0.0,4.6291,4.6287,0.0,0.0,4.5199,4.5704,4.5933,4.5159,4.5716,4.6211,4.6211,4.626,4.6282,4.6211,4.6198,4.6206,4.6203,4.6206,4.6199,4.6199,4.6199,4.6199,4.6199,4.6199,4.6199,4.6199,4.6199,4.6199,4.6215,4.68,4.7054,4.7082,4.7518,4.7721,4.7712,4.7707,4.7668,4.7654,4.775,4.7788,4.7769,4.7578,4.7521,4.7521,4.7616,4.7654,4.7674,0.0,0.0,0.0,0.0,0.0,0.0,0.0,0.0,0.0,0.0,0.0,0.0,0.0,0.0,0.0,0.0,0.0,3.6741,3.6771,0.0,0.0,3.5867,3.5509,3.5337,3.5337,3.4916,3.5056,3.5792,3.5495,3.5917,3.6989,3.6983,3.738,3.8145,3.8465,3.888,3.9315,3.9406,3.9432,3.9445,3.9552,3.9589,3.9614,3.9738,3.9969,4.0286,4.0576,4.0739,4.1001,4.2385,4.2219,4.175,4.3772,4.3884,4.318,4.2578,4.2578,4.2481,4.1238,4.1302,4.1602,4.112,4.1415,4.1921,4.2304,4.3064,4.3952,4.4818,0.0,0.0,0.0,0.0,0.0,0.0,4.5961,4.6072,4.5706,4.5978,4.6206,4.6206,4.6211,4.6231,4.6195,4.62,4.6209,4.6209,4.6203,4.6199,4.6199,4.6199,4.6199,4.6199,4.6686,4.6894,4.6775,4.7281,4.7499,4.7427,4.7594,4.7654,4.7666,4.7809,4.789,4.7899,4.8348,4.8544,4.8582,4.906,4.9251,4.9251,4.9251,4.8659,4.7865,4.8372,4.8544,4.8621,0.0,0.0,0.0,0.0,0.0,0.0,0.0,0.0,0.0,0.0,0.0,0.0,3.3908,3.45,0.0,0.0,3.7603,3.8057,3.8051,3.8303,3.8093,3.7341,3.6549,3.6233,3.6424,3.5706,3.5583,3.6145,3.6205,3.6563,3.7147,3.7614,3.8046,3.8449,3.8828,3.933,3.9927,3.9927,4.0059,4.0265,4.0265,4.0189,4.0098,4.0011,4.0205,4.0539,4.0726,4.0951,4.1348,4.2623,4.2399,4.2018,4.4535,4.421,4.2986,4.3374,4.3219,4.2678,4.1558,4.1762,4.2097,4.1212,4.1518,4.2011,4.203,4.2899,4.3879,4.4504,4.5537,0.0,0.0,0.0,4.612,0.0,0.0,4.6115,4.5887,4.6044,4.6195,4.6195,4.6195,4.6192,4.62,4.6206,4.6199,4.6199,4.6199,4.6199,4.6199,4.6433,4.6569,4.6569,4.7404,4.775,4.7559,4.818,4.8425,4.8303,4.8342,4.8356,4.8366,4.8452,4.8495,4.8525,4.9156,4.9423,4.9461,5.0054,5.0302,5.0302,5.0302,4.9557,4.8552,4.9194,4.9423,4.95,3.3309,3.3309,0.0,0.0,0.0,0.0,0.0,0.0,3.3309,3.3309,3.3529,3.3908,0.0,0.0,0.0,0.0,0.0,4.0823,3.9354,3.9249,3.8898,3.8111,0.0,3.7286,3.8023,3.7286,3.6937,3.6954,3.7284,3.7469,3.7505,3.8167,3.8582,3.8803,3.9069,3.9784,4.076,4.076,4.121,4.1929,4.1929,4.1683,4.1265,4.0473,4.0321,4.0539,4.0726,4.1338,4.2071,4.2125,4.2676,4.3343,4.3539,4.4093,4.4559,4.3743,4.4085,4.4347,4.263,4.2229,4.2089,4.1216,4.1012,4.1064,4.1122,4.2476,4.3705,4.3744,4.5102,4.6306,4.6303,0.0,0.0,0.0,0.0,0.0,0.0,4.5673,4.6199,4.6199,4.6199,4.6199,4.6199,4.6199,4.6199,4.6199,4.6199,4.6199,4.6199,4.6995,4.7462,4.7462,4.83,4.8665,4.8452,4.8491,4.8425,4.8303,4.8939,4.926,4.9269,4.9926,5.0225,5.0225,5.0245,5.0264,5.0264,5.0283,5.0302,5.0302,5.0302,5.0264,5.0225,5.0245,5.0264,5.0264,0.0,0.0,0.0,0.0,0.0,3.3451,3.3893,3.3957,3.4303,3.5239,3.5435,3.5831,3.6678,3.7442,3.8344,3.9425,4.0103,4.0136,3.9354,3.9284,3.8933,3.8146,3.7393,3.7358,0.0,3.7374,3.7126,3.732,3.745,3.7632,3.7913,3.8439,3.873,3.8818,3.9264,3.9964,4.0797,4.0797,4.1267,4.1961,4.1574,4.1407,4.1361,4.1103,4.1204,4.1582,4.2228,4.2666,4.3044,4.3637,4.3652,4.3656,4.4792,4.4598,4.3996,4.4287,4.4163,4.3815,4.3226,4.3539,4.3684,4.2281,4.2363,4.2494,4.1367,4.2456,4.3705,4.3705,4.5082,4.6282,4.6236,0.0,0.0,0.0,0.0,0.0,0.0,4.5952,4.6199,4.6199,4.6199,4.6199,4.6199,4.6199,4.6199,4.6199,4.6199,4.6199,4.6199,4.7033,4.7501,4.7501,4.8788,4.9371,4.9165,4.9649,4.9805,4.963,4.9854,4.9956,4.9975,5.0203,5.0302,5.0302,5.0302,5.0302,5.0302,5.0302,5.0302,5.0302,5.0302,5.0302,5.0302,5.0302,5.0302,5.0302,3.5394,0.0,0.0,0.0,3.4051,3.4194,3.462,3.4897,3.5471,3.6672,3.7025,3.756,3.8621,3.8829,3.9294,4.0227,4.0456,4.0154,3.9354,3.9568,3.9375,3.8567,3.8201,3.8388,3.9146,3.8277,3.7915,3.8133,3.7969,3.8013,3.8281,3.8778,3.9013,3.9027,3.9413,4.0209,4.1229,4.1229,4.1873,4.2819,4.1898,4.1673,4.1877,4.1933,4.1966,4.2125,4.3008,4.3556,4.3953,4.4502,4.4561,4.4579,4.5672,4.5258,4.4501,4.5064,4.4869,4.4398,4.4043,4.4428,4.457,4.3203,4.3278,4.3326,4.1892,4.2903,4.4075,4.3762,4.508,4.6258,4.6209,4.6192,0.0,0.0,0.0,0.0,0.0,4.6098,4.6146,4.6196,4.6199,4.6199,4.6199,4.6199,4.6199,4.6199,4.6199,4.6336,4.6647,4.7482,4.8074,4.831,4.9584,5.0138,4.9892,5.0364,5.0495,5.0302,5.0302,5.0302,5.0302,5.0302,5.0302,5.0302,5.0302,5.0302,5.0302,5.0302,5.0302,5.0302,5.0302,5.0302,5.0302,5.0302,5.0302,5.0302,3.5584,3.56,3.5612,3.5656,3.5502,3.5438,3.553,3.6066,3.68,3.7744,3.8394,3.9167,4.0262,4.0673,4.0976,4.1221,4.153,4.106,3.9494,4.013,4.0204,3.9413,3.9718,4.0292,4.1098,0.0,0.0,0.0,3.8841,3.8609,3.864,3.9161,3.9405,3.9418,3.9583,4.0497,4.1948,4.1986,4.2938,4.4274,4.2886,4.2493,4.2738,4.2977,4.2683,4.2247,4.3189,4.4053,4.4767,4.4758,4.5315,4.6002,4.6002,4.6002,4.6002,4.6007,4.6098,4.6019,4.5114,4.4919,4.4785,4.3964,4.3769,4.3533,4.2656,4.3782,4.4758,4.3938,4.5055,4.6206,4.6206,4.6203,4.6196,0.0,0.0,0.0,0.0,4.6089,4.6066,4.6189,4.6199,4.6199,4.6199,4.6199,4.6199,4.6199,4.6199,4.6589,4.7443,4.8316,4.9093,4.9779,5.0621,5.0916,5.0596,5.0596,5.0485,5.0302,5.0302,5.0302,5.0302,5.0302,5.0302,5.0302,5.0302,5.0302,5.0302,5.0302,5.0302,5.0302,5.0302,5.0302,5.0302,5.0302,5.0302,5.0302,3.8349,3.8444,3.861,3.91,3.7084,3.5935,3.7526,3.7454,3.8269,4.1154,4.1179,4.1425,4.281,4.3016,4.3127,4.3191,4.3261,4.2658,4.1113,4.12,4.1106,4.0646,4.016,4.0409,4.1522,4.0076,3.9414,3.966,3.8951,3.8744,3.9055,3.9288,3.9431,3.9501,4.0177,4.0722,4.1154,4.1742,4.2328,4.2848,4.2664,4.2738,4.3017,4.386,4.4083,4.404,4.4885,4.5357,4.5601,4.5588,4.5764,4.6002,4.6002,4.6002,4.6017,4.6052,4.6134,4.6149,4.5908,4.5898,4.5746,4.4886,4.4671,4.4435,4.3569,4.4211,4.4932,4.4719,4.5482,4.6206,4.6206,4.6203,4.6177,0.0,0.0,0.0,0.0,4.6162,4.6154,4.6196,4.6199,4.6199,4.6199,4.6199,4.6199,4.6199,4.6199,4.6589,4.7443,4.8175,4.8952,4.9779,5.0403,5.069,5.0587,5.0442,5.034,5.0302,5.0302,5.0302,5.0302,5.0302,5.0302,5.0302,5.0302,5.0302,5.0302,5.0302,5.0302,5.0302,5.0302,5.0302,5.0302,5.0302,5.0302,5.0302,3.9871,4.0162,4.0475,4.0898,3.9401,3.8502,3.9732,3.987,4.0727,4.3074,4.3281,4.3628,4.4769,4.4624,4.4413,4.4413,4.4097,4.3395,4.2201,4.2429,4.2317,4.1609,4.1646,4.1936,4.2431,4.1396,0.0,4.0594,3.9808,3.9536,3.9769,3.9888,4.0141,4.0562,4.1078,4.1548,4.1956,4.2843,4.3095,4.2902,4.3224,4.3432,0.0,4.4344,4.4813,4.5181,4.5666,4.5867,4.5892,4.5922,4.5975,4.6002,4.6002,4.6002,4.6003,4.6076,4.6147,4.6191,4.619,4.6243,4.6183,4.5695,4.5578,4.5343,4.4465,4.4933,4.546,4.5088,4.5662,4.6233,4.6209,4.6209,4.6173,4.6098,0.0,0.0,4.6192,4.615,4.6138,4.6192,4.6146,4.6138,4.6196,4.6199,4.6199,4.6199,4.6146,4.6512,4.7443,4.8132,4.8905,4.9779,5.0047,5.0296,5.0587,5.0044,4.9939,5.0302,5.0302,5.0302,5.0302,5.0302,5.0302,5.0302,5.0302,5.0302,5.0302,5.0302,5.0302,5.0302,5.0302,5.0302,5.0302,5.0302,5.0302,5.0302,4.084,4.1309,4.1748,4.1983,4.2021,4.2049,4.2158,4.2584,4.3228,4.4156,4.4764,4.5378,4.6126,4.5617,4.5238,4.5238,4.4606,4.3886,4.3167,4.3763,4.3678,4.2634,4.3559,4.3943,4.3658,4.3163,4.2515,4.1757,4.1007,4.0673,4.0673,4.0728,4.1169,4.1924,4.209,4.2613,4.3393,4.4153,4.4097,4.3566,4.4038,4.4265,4.4363,4.4648,4.5207,4.5821,4.5874,4.5906,4.5917,4.5975,4.5997,4.6002,4.6002,4.6012,4.6022,4.6091,4.6158,4.6196,4.6211,4.6261,4.63,4.63,4.63,4.6105,4.5343,4.5753,4.6085,4.5324,4.5765,4.6282,4.6209,4.6195,4.6196,4.6199,4.6199,4.6199,4.6199,4.6098,4.6075,4.6189,4.6093,0.0,4.6192,4.6199,4.6199,4.6199,4.608,4.6494,4.7614,4.8186,4.8938,4.9934,4.9812,4.9958,5.0442,4.9641,4.9557,5.0149,5.0245,5.0302,5.0302,5.0302,5.0302,5.0302,5.0302,5.0302,5.0302,5.0302,5.0302,5.0302,5.0302,5.0302,5.0302,5.0302,5.0302,5.0302,4.2749,4.3072,4.3365,4.4035,4.4255,4.4526,4.5139,4.3897,4.3586,4.5553,4.5393,4.5378,4.6126,4.6074,4.6003,4.6003,4.5881,4.5477,4.4746,4.5161,4.5233,4.4698,4.46,4.4705,4.4948,4.362,4.2794,4.2593,4.1845,4.1525,4.1582,4.1582,4.1739,4.201,4.2736,4.3239,4.3521,4.3038,4.294,4.3162,4.3962,4.4395,4.4624,4.5329,4.5705,4.5874,4.5906,4.5905,4.5917,4.5972,4.6,4.6002,4.6002,4.6041,4.6095,4.6158,4.6198,4.6211,4.6278,4.6285,4.63,4.63,4.63,4.6261,4.6105,4.6183,4.6261,4.6105,4.6195,4.6282,4.6209,4.6206,4.6203,4.6199,4.6199,4.6199,4.6199,4.6185,4.6162,4.6196,4.6185,4.6162,4.6196,4.6199,4.6199,4.6199,4.608,4.6747,4.8472,4.8415,4.911,5.0827,5.0587,5.0144,4.9529,4.9909,4.9824,4.932,4.9977,5.0302,5.0302,5.0302,5.0302,5.0302,5.0302,5.0302,5.0302,5.0302,5.0302,5.0302,5.0302,5.0302,5.0302,5.0302,5.0302,5.0302,4.3919,4.4123,4.4394,4.5233,4.5424,4.5606,4.6048,4.5234,4.5,4.6059,4.5881,4.5793,4.6161,4.6196,4.6196,4.6196,4.6196,4.6056,4.5688,4.6099,4.6219,4.583,4.5862,4.5712,4.5369,4.4643,4.38,4.2913,4.2613,4.2483,0.0,4.253,4.281,4.3332,4.3836,4.4128,4.4218,4.4077,4.4125,4.4333,4.4874,4.5143,4.5258,4.5652,4.5847,4.5906,4.5899,4.5923,4.596,4.5989,4.6011,4.6002,4.6002,4.605,4.6115,4.6171,4.6203,4.621,4.627,4.63,4.63,4.63,4.63,4.63,4.63,4.63,4.63,4.63,4.6296,4.629,4.626,4.6215,4.6193,4.6193,4.6203,4.6199,4.6199,4.6199,4.6199,4.6199,4.6199,4.6199,4.6199,4.6199,4.6199,4.6199,4.608,4.661,4.8043,4.83,4.9026,5.0381,5.0198,5.0044,4.9971,4.9775,4.9691,4.9729,5.0111,5.0302,5.0302,5.0302,5.0302,5.0302,5.0302,5.0302,5.0302,5.0302,5.0302,5.0302,5.0302,5.0302,5.0302,5.0302,5.0181,5.0063,4.4808,4.4925,4.515,4.5868,4.5998,4.6048,4.6172,4.6196,4.6196,4.6196,4.6196,4.6196,4.6196,4.6196,4.6246,4.6326,4.635,4.6398,4.6501,4.6931,4.7086,4.6826,4.7037,4.6776,4.5935,4.5637,4.486,4.3534,4.3493,4.3372,4.3203,4.3372,4.3854,4.4573,4.4739,4.4861,4.4958,4.5343,4.5516,4.5585,4.5737,4.5807,4.5807,4.5814,4.586,4.5893,4.5931,4.596,4.6008,4.5991,4.6002,4.6002,4.6002,4.6063,4.6134,4.6173,4.6206,4.6228,4.6288,4.63,4.63,4.63,4.63,4.63,4.63,4.63,4.63,4.63,4.6298,4.6294,4.6306,4.6248,4.6209,4.6209,4.6196,4.6203,4.6203,4.6199,4.6199,4.6199,4.6199,4.6199,4.6199,4.6199,4.6199,4.6199,4.6236,4.6708,4.7712,4.8219,4.8874,4.9759,4.9623,4.971,5.0077,4.9584,4.9595,5.0054,5.0225,5.0302,5.0302,5.0302,5.0302,5.0302,5.0302,5.0302,5.0302,5.0302,5.0302,5.0302,5.0302,5.0302,5.0302,5.0302,5.0088,4.9844,4.5665,4.5691,4.5759,4.5955,4.5998,4.6048,4.6172,4.6196,4.6196,4.6196,4.6196,4.6196,4.6196,4.6196,4.6374,4.6794,4.684,4.7022,4.7442,4.7915,4.8154,4.812,4.7881,4.7673,4.7593,4.6277,4.5481,4.5275,4.4616,4.391,4.3222,4.3947,4.4465,4.477,4.4788,4.5044,4.5445,4.5481,4.561,4.5766,4.58,4.5807,4.5807,4.586,4.5893,4.5911,4.596,4.5989,4.5997,4.6002,4.6002,4.6002,4.6002,4.6087,4.6199,4.6202,4.625,4.6285,4.6302,4.63,4.63,4.63,4.63,4.63,4.63,4.63,4.63,4.63,4.6294,4.6306,4.6306,4.6255,4.6206,4.6206,4.6192,4.6203,4.6203,4.6209,4.6199,4.6199,4.6199,4.6199,4.6199,4.6199,4.6199,4.6199,4.6741,4.7544,4.8627,4.8454,4.8768,4.9776,4.9497,4.9018,4.8346,4.9565,4.9862,4.9224,4.9939,5.0302,5.0302,5.0302,5.0302,5.0302,5.0302,5.0302,5.0302,5.0302,5.0302,5.0302,5.0302,5.0302,5.0302,5.0302,5.0088,4.9798,4.5358,4.5383,4.5548,4.6027,4.6122,4.6147,4.6196,4.6196,4.6196,4.6196,4.6196,4.6196,4.6196,4.6453,4.6695,4.6886,4.716,4.7399,4.7591,4.8076,4.8364,4.8364,4.8539,4.8418,4.7999,4.7389,4.6611,4.5629,4.5321,4.4773,4.4004,4.4425,4.4782,4.5052,4.5173,4.5323,4.5498,4.5626,4.573,4.5807,4.5807,4.5807,4.5807,4.5867,4.5899,4.5911,4.5986,4.5994,4.6002,4.6002,4.6002,4.6002,4.6002,4.6091,4.6202,4.6202,4.625,4.63,4.63,4.63,4.63,4.63,4.63,4.63,4.63,4.63,4.63,4.63,4.6298,4.6294,4.6294,4.6286,4.6258,4.6258,4.6228,4.6195,4.6206,4.62,4.619,4.6199,4.6199,4.6199,4.6199,4.6199,4.6199,4.6199,4.6442,4.6958,4.7796,4.8213,4.8535,4.8767,4.964,4.9643,4.8715,4.9755,5.0149,4.9824,5.0149,5.0302,5.0302,5.0302,5.0302,5.0302,5.0302,5.0302,5.0302,5.0302,5.0302,5.0302,5.0302,5.0302,5.0302,5.0302,5.0088,4.9757,4.5407,4.5431,4.5582,4.6109,4.6196,4.6196,4.6196,4.6196,4.6246,4.6398,4.6423,4.6423,4.6423,4.6695,4.7022,4.7288,4.7611,4.7856,4.7979,4.8365,4.8605,4.8605,4.901,4.8982,4.845,4.8237,4.7459,4.6073,4.5829,4.5172,4.4158,4.4354,4.4749,4.5284,4.5436,4.5524,4.5602,4.5737,4.5807,4.5807,4.5807,4.5807,4.5807,4.5874,4.5906,4.5917,4.5978,4.6005,4.6002,4.6002,4.6003,4.6027,4.6027,4.6109,4.6204,4.6195,4.625,4.63,4.63,4.63,4.63,4.63,4.63,4.63,4.63,4.63,4.63,4.63,4.63,4.63,4.63,4.6294,4.631,4.631,4.626,4.6228,4.624,4.6209,4.62,4.6206,4.6203,4.6199,4.6199,4.6199,4.6316,4.6569,4.6589,4.6863,4.7556,4.8132,4.8447,4.8451,4.9557,4.9829,4.911,4.9901,5.0302,5.0302,5.0302,5.0302,5.0302,5.0302,5.0302,5.0302,5.0302,5.0302,5.0302,5.0302,5.0302,5.0302,5.0302,5.0302,5.0302,5.0302,5.0038,4.9613,4.6196,4.6196,4.6196,4.6196,4.6196,4.6196,4.6196,4.6196,4.6374,4.6817,4.6886,4.6886,4.6886,4.6908,4.727,4.8191,4.8287,4.8458,4.8874,4.9015,4.9084,4.9084,4.9211,4.9289,4.9289,4.8562,4.78,4.6978,4.6129,4.4871,4.3327,4.3516,4.4296,4.5509,4.549,4.561,4.58,4.5807,4.5807,4.5807,4.5807,4.5807,4.5814,4.5867,4.5911,4.5917,4.598,4.6002,4.6002,4.6002,4.605,4.6098,4.6098,4.6145,4.6209,4.6209,4.6244,4.63,4.63,4.63,4.63,4.63,4.63,4.63,4.63,4.63,4.63,4.63,4.63,4.63,4.63,4.63,4.63,4.63,4.6292,4.6303,4.6303,4.6242,4.6203,4.6203,4.6209,4.6199,4.6199,4.6199,4.6569,4.7423,4.7482,4.7774,4.8438,4.8373,4.8604,4.9269,4.9173,4.911,4.911,4.9901,5.0302,5.0302,5.0302,5.0302,5.0302,5.0302,5.0302,5.0302,5.0302,5.0302,5.0302,5.0302,5.0302,5.0302,5.0302,5.0302,5.0302,5.0302,4.987,4.9317,4.6602,4.6672,4.6788,4.7093,4.716,4.716,4.716,4.716,4.7204,4.7356,4.7378,4.7506,4.7816,4.7836,4.7975,4.8267,4.855,4.8804,4.9032,4.9133,4.9181,4.9228,4.9358,4.9443,4.9443,4.9212,4.8401,4.7012,4.673,4.5892,4.4612,4.4812,4.5185,4.5688,4.5688,4.5737,4.5807,4.5807,4.5807,4.5807,4.5807,4.5821,4.5867,4.5893,4.5923,4.5966,4.5986,4.6002,4.6012,4.6039,4.608,4.6118,4.6149,4.6184,4.6209,4.6191,4.6244,4.63,4.63,4.63,4.63,4.63,4.63,4.63,4.63,4.63,4.63,4.63,4.63,4.63,4.63,4.63,4.63,4.63,4.6298,4.6294,4.6306,4.6279,4.625,4.6201,4.6195,4.6192,4.6192,4.6748,4.6957,4.6645,4.7157,4.7747,4.8334,4.8832,4.8866,4.8301,4.9342,4.9652,4.911,4.9901,5.0302,5.0302,5.0302,5.0302,5.0302,5.0302,5.0302,5.0302,5.0302,5.0302,5.0302,5.0302,5.0302,5.0302,5.0302,5.0302,5.0302,5.0302,5.0025,4.9599,4.684,4.7026,4.7248,4.7548,4.7611,4.7611,4.7611,4.7611,4.7653,4.7836,4.7856,4.8017,4.8476,4.8587,4.8606,4.8606,4.8821,4.9013,4.9133,4.9197,4.926,4.9308,4.9424,4.9509,4.9509,4.9509,4.8833,4.7443,4.692,4.6165,4.5211,4.5399,4.561,4.5807,4.5807,4.5807,4.5807,4.5807,4.5807,4.5807,4.5821,4.586,4.5906,4.5931,4.596,4.5997,4.6011,4.6002,4.6012,4.6054,4.6095,4.6131,4.62,4.6211,4.6246,4.6246,4.6277,4.63,4.63,4.63,4.63,4.63,4.63,4.63,4.63,4.63,4.63,4.63,4.63,4.63,4.63,4.63,4.63,4.63,4.63,4.6298,4.6292,4.6308,4.6282,4.6236,4.6211,4.6323,4.6655,4.7187,4.7548,4.7665,4.8155,4.8667,4.9199,4.9111,4.8947,4.8747,4.9748,5.0054,4.9557,5.0054,5.0302,5.0302,5.0302,5.0302,5.0302,5.0302,5.0302,5.0302,5.0302,5.0302,5.0302,5.0302,5.0302,5.0302,5.0302,5.0224,5.012,5.012,4.9817,4.9394,4.6999,4.7356,4.7653,4.7695,4.7695,4.7695,4.7695,4.7695,4.7856,4.8268,4.8344,4.8495,4.8874,4.9032,4.9101,4.9118,4.9118,4.9133,4.9195,4.9276,4.9289,4.9324,4.9424,4.9509,4.9509,4.9509,4.9055,4.813,4.6768,4.581,4.5232,4.5427,4.5618,4.5807,4.5807,4.5807,4.5807,4.5807,4.5807,4.5807,4.5867,4.59,4.5912,4.5974,4.5997,4.6003,4.5991,4.6002,4.6002,4.6017,4.6095,4.6204,4.6209,4.625,4.63,4.63,4.63,4.63,4.63,4.63,4.63,4.63,4.63,4.63,4.63,4.63,4.63,4.63,4.63,4.63,4.63,4.63,4.63,4.63,4.63,4.63,4.63,4.6292,4.6306,4.6306,4.6238,4.654,4.7415,4.756,4.825,4.9884,5.0006,5.0204,5.0677,4.9227,4.8976,5.0256,5.0302,5.0302,5.0302,5.0302,5.0302,5.0302,5.0302,5.0302,5.0302,5.0302,5.0302,5.0302,5.0302,5.0302,5.0302,5.0302,5.0302,5.0302,5.0302,5.0107,4.9803,4.9803,4.9378,4.8799,4.7834,4.8055,4.8231,4.8532,4.8587,4.8587,4.8587,4.8587,4.8641,4.8732,4.8857,4.8946,4.9032,4.9133,4.9197,4.9244,4.9214,4.9214,4.9276,4.9292,4.9358,4.9459,4.9474,4.9509,4.9509,4.9509,4.8844,4.7505,4.673,4.6025,4.5427,4.5634,4.5752,4.5807,4.5807,4.5807,4.5807,4.5807,4.5807,4.5807,4.5867,4.5893,4.5905,4.596,4.5989,4.5991,4.5997,4.6002,4.6027,4.6118,4.6167,4.6212,4.6268,4.6293,4.63,4.63,4.63,4.63,4.63,4.63,4.63,4.63,4.63,4.63,4.63,4.63,4.63,4.63,4.63,4.63,4.63,4.63,4.63,4.63,4.63,4.63,4.63,4.6298,4.6296,4.6296,4.6294,4.6603,4.7411,4.8101,4.8652,4.9088,4.9655,4.9951,4.9811,4.9432,4.9544,5.0275,5.0302,5.0302,5.0302,5.0302,5.0302,5.0302,5.0302,5.0302,5.0302,5.0302,5.0302,5.0302,5.0302,5.0302,5.0302,5.0302,5.0302,5.0302,5.0302,5.0107,4.9803,4.9803,4.9378,4.8799,4.8191,4.8458,4.8642,4.8874,4.8909,4.8909,4.8909,4.8962,4.8979,4.8979,4.9083,4.915,4.915,4.9214,4.926,4.9308,4.9276,4.9276,4.9374,4.939,4.9424,4.9509,4.9509,4.9509,4.9509,4.9509,4.8964,4.7895,4.7384,4.6772,4.6095,4.5889,4.5807,4.5807,4.5807,4.5807,4.5807,4.5807,4.5807,4.5807,4.5861,4.5893,4.5917,4.5958,4.6005,4.6002,4.6002,4.6013,4.6067,4.6131,4.6161,4.6206,4.6247,4.6273,4.63,4.63,4.63,4.63,4.63,4.63,4.63,4.63,4.63,4.63,4.63,4.63,4.63,4.63,4.63,4.63,4.63,4.63,4.63,4.63,4.63,4.63,4.63,4.63,4.63,4.63,4.6651,4.7213,4.8021,4.8886,4.9555,4.9929,5.0283,5.0378,5.0121,5.0044,5.0096,5.0294,5.0302,5.0302,5.0302,5.0302,5.0302,5.0302,5.0302,5.0302,5.0302,5.0302,5.0302,5.0302,5.0302,5.0302,5.0302,5.0302,5.0302,5.0302,5.0302,4.9993,4.957,4.957,4.9145,4.855,4.8401,4.866,4.8909,4.8909,4.8909,4.8909,4.8926,4.9032,4.9101,4.9118,4.9164,4.923,4.923,4.9276,4.9324,4.9324,4.9324,4.9374,4.949,4.9509,4.9509,4.9509,4.9509,4.9509,4.9509,4.9536,4.9244,4.8656,4.8339,4.7721,4.6831,4.6263,4.5923,4.5807,4.5807,4.5807,4.5807,4.5807,4.5807,4.5821,4.5886,4.5911,4.5923,4.598,4.6002,4.6002,4.6002,4.6046,4.6102,4.6112,4.6142,4.6191,4.621,4.6242,4.63,4.63,4.63,4.63,4.63,4.63,4.63,4.63,4.63,4.63,4.63,4.63,4.63,4.63,4.63,4.63,4.63,4.63,4.63,4.63,4.63,4.63,4.63,4.63,4.6358,4.6475,4.7137,4.7951,4.8894,4.9664,5.043,5.1232,5.1186,5.1005,5.0805,5.0661,5.0506,5.0314,5.0302,5.0302,5.0302,5.0302,5.0302,5.0302,5.0302,5.0302,5.0302,5.0302,5.0302,5.0302,5.0302,5.0302,5.0302,5.0302,5.0278,5.0224,5.0224,4.9817,4.9221,4.9221,4.8832,4.8267,4.8861,4.8874,4.8909,4.8909,4.8909,4.8926,4.9049,4.9084,4.9118,4.9181,4.9244,4.9273,4.9273,4.939,4.9474,4.9474,4.9474,4.9474,4.9509,4.9509,4.9509,4.9509,4.9509,4.9509,4.9509,4.9665,4.9453,4.8846,4.9016,4.8398,4.7047,4.6953,4.6523,4.5807,4.5807,4.5807,4.5807,4.5807,4.5821,4.5893,4.5893,4.5923,4.5991,4.6005,4.6002,4.6002,4.6002,4.6046,4.6109,4.616,4.62,4.6211,4.6277,4.6285,4.63,4.63,4.63,4.63,4.63,4.63,4.63,4.63,4.63,4.63,4.63,4.63,4.63,4.63,4.63,4.63,4.63,4.63,4.63,4.63,4.63,4.63,4.63,4.63,4.6573,4.7313,4.7461,4.8135,4.9742,5.0017,5.043,5.125,5.1171,5.1005,5.0805,5.0661,5.0506,5.0314,5.0302,5.0302,5.0302,5.0302,5.0302,5.0302,5.0302,5.0302,5.0302,5.0302,5.0302,5.0302,5.0302,5.0302,5.0302,5.0302,5.0132,4.987,4.987,4.9468,4.8866,4.8866,4.8641,4.8287,4.9691,4.9559,4.941,4.8983,4.8962,4.9032,4.9084,4.9166,4.923,4.9244,4.9343,4.9409,4.9409,4.9474,4.9509,4.9509,4.9509,4.9509,4.9509,4.9509,4.9509,4.9509,4.9509,4.9548,4.965,5.0038,5.0095,4.982,4.9604,4.9164,4.8488,4.754,4.6883,4.6484,4.602,4.5807,4.5807,4.5847,4.5867,4.5906,4.5937,4.5966,4.5997,4.6011,4.6002,4.6007,4.6046,4.6095,4.616,4.6198,4.6211,4.6259,4.6285,4.63,4.63,4.63,4.63,4.63,4.63,4.63,4.63,4.63,4.63,4.63,4.63,4.63,4.63,4.63,4.63,4.63,4.63,4.63,4.63,4.63,4.63,4.6456,4.6924,4.7002,4.7315,4.8154,4.8632,4.9226,5.0012,5.0482,5.0876,5.1172,5.1036,5.0874,5.0696,5.0537,5.0396,5.0302,5.0302,5.0302,5.0302,5.0302,5.0302,5.0302,5.0302,5.0302,5.0302,5.0302,5.0302,5.0302,5.0302,5.0302,5.0302,5.0302,5.0088,4.9803,4.9803,4.9394,4.8799,4.8799,4.855,4.8228,5.058,5.0264,4.9948,4.9316,4.9161,4.9135,4.9133,4.9228,4.9308,4.934,4.9443,4.9509,4.9509,4.9509,4.9509,4.9509,4.9509,4.9509,4.9509,4.9509,4.9509,4.9509,4.9548,4.9683,4.9897,5.0353,5.0587,5.0587,5.0179,4.9881,4.9668,4.8333,4.7482,4.7076,4.6406,4.6,4.5807,4.5867,4.5906,4.5912,4.5974,4.6003,4.6008,4.5991,4.6002,4.6012,4.6072,4.6142,4.6209,4.6209,4.6245,4.63,4.63,4.63,4.63,4.63,4.63,4.63,4.63,4.63,4.63,4.63,4.63,4.63,4.63,4.63,4.63,4.63,4.63,4.63,4.63,4.63,4.63,4.63,4.6475,4.6846,4.7508,4.7762,4.8172,4.9009,4.9681,5.0176,5.0358,5.0947,5.1245,5.1111,5.0898,5.0737,5.0606,5.0418,5.0302,5.0302,5.0302,5.0302,5.0302,5.0302,5.0302,5.0302,5.0302,5.0302,5.0302,5.0302,5.0302,5.0302,5.0224,5.0169,5.0188,5.0088,4.987,4.9575,4.9575,4.9209,4.8676,4.8676,4.8476,4.8187,5.1454,5.0763,5.0276,5.022,4.9635,4.9211,4.9276,4.9273,4.934,4.9474,4.949,4.9509,4.9509,4.9509,4.9509,4.9509,4.9509,4.9509,4.9509,4.9509,4.9509,4.9509,4.9679,4.991,5.0171,5.0446,5.0587,5.0587,5.0739,5.0434,4.9707,4.9571,4.8643,4.7096,4.7018,4.6561,4.5807,4.5867,4.5899,4.5911,4.596,4.5994,4.5997,4.6002,4.6002,4.6012,4.6072,4.6142,4.6209,4.6209,4.6245,4.63,4.63,4.63,4.63,4.63,4.63,4.63,4.63,4.63,4.63,4.63,4.63,4.63,4.63,4.63,4.63,4.63,4.63,4.63,4.63,4.63,4.63,4.63,4.6983,4.7528,4.7586,4.8232,4.9029,4.9896,5.0059,5.0397,5.1141,5.1277,5.1243,5.1111,5.0898,5.0737,5.0606,5.0418,5.0302,5.0302,5.0302,5.0302,5.0302,5.0302,5.0302,5.0302,5.0302,5.0302,5.0302,5.0302,5.0302,5.029,4.9968,4.9844,4.9817,4.9498,4.9177,4.8866,4.8866,4.864,4.8344,4.8344,4.8286,4.8187,5.249,5.2097,5.1573,5.0547,5.0185,4.9894,4.9383,4.9374,4.944,4.949,4.9509,4.9509,4.9509,4.9509,4.9509,4.9509,4.9509,4.9509,4.9509,4.9615,4.9693,4.9693,5.0075,5.0342,5.0446,5.0672,5.078,5.078,5.0866,5.0743,5.0434,4.9939,4.9359,4.8662,4.7579,4.6936,4.6635,4.6126,4.5931,4.596,4.5994,4.5991,4.6002,4.6002,4.6022,4.6064,4.6139,4.6186,4.6209,4.6246,4.6272,4.63,4.63,4.63,4.63,4.63,4.63,4.63,4.63,4.63,4.63,4.63,4.63,4.63,4.63,4.63,4.63,4.63,4.63,4.63,4.63,4.63,4.6475,4.7022,4.7372,4.7957,4.8992,4.9401,4.9926,5.0794,5.0918,5.1018,5.1275,5.1224,5.1103,5.0932,5.0772,5.0596,5.041,5.0329,5.0302,5.0302,5.0302,5.0302,5.0302,5.0302,5.0302,5.0302,5.0302,5.0302,5.0302,5.0302,5.0302,5.029,4.9942,4.9803,4.9771,4.9439,4.9097,4.8799,4.8799,4.8586,4.8287,4.8247,4.8169,4.807,5.3399,5.308,5.2481,5.108,5.0715,5.0349,4.9505,4.944,4.9509,4.9509,4.9544,4.9585,4.9585,4.9673,4.9731,4.9731,4.9731,4.9731,4.9731,4.9929,5.0043,5.0043,5.0396,5.0635,5.07,5.0822,5.0898,5.0898,5.0898,5.0898,5.0898,5.0337,4.9939,4.9649,4.8445,4.7808,4.7546,4.67,4.6362,4.6385,4.6102,4.6002,4.6002,4.6018,4.6052,4.6112,4.6183,4.6207,4.6211,4.6272,4.63,4.63,4.63,4.63,4.63,4.63,4.63,4.63,4.63,4.63,4.63,4.63,4.63,4.63,4.63,4.63,4.63,4.63,4.63,4.63,4.63,4.6515,4.6905,4.7508,4.8035,4.8796,4.9948,5.0336,5.072,5.1335,5.1378,5.1333,5.1249,5.1146,5.0992,5.0772,5.0653,5.0516,5.0314,5.0302,5.0302,5.0302,5.0302,5.0302,5.0302,5.0302,5.0302,5.0302,5.0302,5.0302,5.0302,5.0302,5.0236,5.0132,4.9803,4.957,4.9453,4.9129,4.8849,4.8641,4.8641,4.8495,4.8287,4.8208,4.8128,4.7992,5.4109,5.3507,5.2772,5.195,5.119,5.0429,4.9621,4.9509,4.9509,4.949,4.9679,4.9803,4.9784,5.0031,5.0195,5.0195,5.0195,5.0195,5.0206,5.0446,5.0587,5.0596,5.0596,5.07,5.0898,5.0898,5.0898,5.0898,5.0898,5.0898,5.0898,5.0898,5.0473,4.9707,4.9693,4.9262,4.8449,4.7649,4.7311,4.7233,4.6355,4.6021,4.6012,4.6088,4.6102,4.6118,4.6185,4.6191,4.6211,4.6272,4.63,4.63,4.63,4.63,4.63,4.63,4.63,4.63,4.63,4.63,4.63,4.63,4.63,4.63,4.63,4.63,4.63,4.63,4.63,4.63,4.63,4.7022,4.7606,4.7625,4.9011,5.0104,5.0104,5.0857,5.1394,5.1397,5.1343,5.1253,5.1117,5.1099,5.097,5.0625,5.0606,5.0516,5.0314,5.0302,5.0302,5.0302,5.0302,5.0302,5.0302,5.0302,5.0302,5.0302,5.0302,5.0302,5.0302,5.0302,5.012,4.9771,4.9453,4.9113,4.8781,4.8439,4.8306,4.8306,4.8306,4.8306,4.8287,4.8208,4.811,4.7992,5.4304,5.4132,5.3737,5.2911,5.2083,5.1273,5.0447,4.9865,4.9548,4.9689,4.9749,4.9865,5.0056,5.0159,5.0195,5.0195,5.0195,5.0275,5.0467,5.0557,5.0653,5.0797,5.0805,5.085,5.0898,5.0898,5.0898,5.0898,5.0898,5.0898,5.0898,5.0898,5.0763,5.0519,4.9945,4.9593,4.9362,4.8554,4.8216,4.8141,4.7254,4.6909,4.6842,4.6302,4.6131,4.6171,4.6189,4.6228,4.6274,4.6284,4.63,4.63,4.63,4.63,4.63,4.63,4.63,4.63,4.63,4.63,4.63,4.63,4.63,4.63,4.63,4.63,4.63,4.63,4.6788,4.7217,4.7217,4.7881,4.8642,4.9245,4.9772,5.0317,5.0935,5.1245,5.1389,5.1343,5.1317,5.1253,5.1117,5.0959,5.0813,5.0606,5.0464,5.0363,5.0302,5.0302,5.0302,5.0302,5.0302,5.0302,5.0302,5.0302,5.0302,5.0302,5.0302,5.0302,5.0302,5.0302,5.012,4.9771,4.9453,4.9113,4.8781,4.8439,4.8306,4.8306,4.8306,4.8306,4.8287,4.8111,4.8032,4.7972,5.4409,5.4409,5.4146,5.3337,5.2757,5.2024,5.0876,5.0368,5.0046,4.9828,4.9981,5.0195,5.0331,5.0427,5.0479,5.0479,5.0479,5.0548,5.0718,5.0727,5.0771,5.0898,5.0898,5.0898,5.0898,5.0898,5.0898,5.0898,5.0898,5.0898,5.0898,5.0898,5.0898,5.0887,5.0444,5.0285,5.0248,4.9465,4.9112,4.9046,4.8172,4.783,4.7806,4.7304,4.7168,4.7181,4.6874,4.6784,4.6768,4.6417,4.63,4.63,4.63,4.63,4.63,4.63,4.63,4.63,4.63,4.63,4.63,4.63,4.63,4.63,4.63,4.63,4.6397,4.6749,4.7237,4.7703,4.8017,4.8759,4.9481,5.0007,5.0395,5.0801,5.1321,5.1389,5.1355,5.1294,5.1257,5.1167,5.1005,5.0809,5.0652,5.0495,5.0363,5.0302,5.0302,5.0302,5.0302,5.0302,5.0302,5.0302,5.0302,5.0302,5.0302,5.0302,5.0302,5.0302,5.0302,5.0156,4.9929,4.9584,4.9256,4.8917,4.8586,4.8383,4.8306,4.8306,4.8306,4.8287,4.8247,4.8052,4.7972,4.7947,5.4409,5.4409,5.4165,5.3449,5.3259,5.2691,5.1077,5.1011,5.083,4.9978,5.0298,5.0616,5.0616,5.0789,5.0898,5.0898,5.0898,5.0898,5.0898,5.0898,5.0898,5.0898,5.0898,5.0898,5.0898,5.0898,5.0898,5.0898,5.0898,5.0898,5.0898,5.0898,5.0898,5.0906,5.1046,5.1101,5.1049,5.0324,5.0029,4.9943,4.9063,4.8764,4.8812,4.873,4.8742,4.8691,4.797,4.7703,4.7586,4.6788,4.6515,4.6515,4.6515,4.6515,4.6515,4.6515,4.6515,4.6515,4.6515,4.6515,4.6515,4.6515,4.6515,4.6495,4.6436,4.6417,4.6651,4.7528,4.7762,4.8055,4.8779,4.9638,5.0221,5.0221,5.0876,5.1396,5.1394,5.1327,5.1284,5.128,5.1157,5.0998,5.0809,5.0662,5.0495,5.0314,5.0302,5.0302,5.0302,5.0302,5.0302,5.0302,5.0302,5.0302,5.0302,5.0302,5.0302,5.0302,5.0302,5.0302,5.029,4.9955,4.9632,4.9268,4.8951,4.8604,4.8306,4.8306,4.8306,4.8306,4.8306,4.8267,4.8187,4.805,4.7968,4.7881,5.4409,5.4409,5.4334,5.4165,5.3773,5.3164,5.2109,5.1654,5.1181,5.05,5.0537,5.0673,5.0814,5.0874,5.0898,5.0898,5.0898,5.0898,5.0898,5.0898,5.0898,5.0898,5.0898,5.0898,5.0898,5.0898,5.0898,5.0898,5.0898,5.0898,5.0898,5.0898,5.0941,5.0978,5.106,5.1095,5.1089,5.0971,5.0927,5.0843,4.9967,4.9666,4.9651,4.9018,4.8789,4.8788,4.8595,4.8545,4.8505,4.831,4.8252,4.8252,4.8252,4.8252,4.8252,4.8252,4.8252,4.8252,4.8252,4.8252,4.8252,4.8252,4.8252,4.8096,4.7451,4.7315,4.7549,4.8369,4.907,4.9616,4.9792,5.0535,5.1117,5.113,5.1282,5.1372,5.1327,5.1226,5.1142,5.1136,5.0979,5.0801,5.0653,5.0466,5.0359,5.0302,5.0302,5.0302,5.0302,5.0302,5.0302,5.0302,5.0302,5.0302,5.0302,5.0302,5.0302,5.0302,5.0302,5.0302,5.029,4.9955,4.9632,4.9268,4.8951,4.8604,4.8306,4.8306,4.8306,4.8306,4.8306,4.8267,4.8187,4.805,4.7968,4.7881,5.4409,5.4505,5.4581,5.4581,5.4461,5.4085,5.3248,5.2638,5.2001,5.1269,5.0922,5.078,5.089,5.0898,5.0898,5.0898,5.0898,5.0898,5.0898,5.0898,5.0898,5.0898,5.0898,5.0898,5.0898,5.0898,5.0898,5.0898,5.0898,5.0898,5.0898,5.0921,5.0963,5.1012,5.1062,5.1095,5.1101,5.1169,5.1195,5.1168,5.0735,5.0605,5.0618,5.0195,5.0037,4.999,4.9565,4.915,4.8798,4.8798,4.8798,4.8798,4.8798,4.8798,4.8798,4.8798,4.8798,4.8798,4.8798,4.8798,4.8798,4.8798,4.8798,4.8681,4.8271,4.8174,4.8408,4.9247,4.9772,5.0221,5.0631,5.1082,5.139,5.1401,5.1391,5.1349,5.1226,5.1137,5.106,5.0959,5.0813,5.0633,5.0474,5.0363,5.0302,5.0302,5.0302,5.0302,5.0302,5.0302,5.0302,5.0302,5.0302,5.0302,5.0302,5.0302,5.0302,5.0302,5.0302,5.0302,5.029,4.9803,4.9468,4.9268,4.8781,4.8458,4.8306,4.8306,4.8306,4.8306,4.8306,4.8267,4.8187,4.805,4.7927,4.778,5.4474,5.4661,5.4821,5.4847,5.5094,5.5,5.4178,5.3676,5.3022,5.1992,5.1434,5.1072,5.0917,5.0898,5.0898,5.0898,5.0898,5.0898,5.0898,5.0898,5.0898,5.0898,5.0898,5.0898,5.0898,5.0898,5.0898,5.0898,5.0898,5.0906,5.0914,5.0971,5.1012,5.1015,5.1095,5.1113,5.113,5.1198,5.1209,5.1245,5.1293,5.1342,5.1405,5.1405,5.1397,5.1316,5.0573,4.9852,4.9247,4.9247,4.9247,4.9247,4.9247,4.9247,4.9247,4.9247,4.9247,4.9247,4.9247,4.9247,4.9247,4.9247,4.9247,4.9247,4.9247,4.913,4.9267,5.0143,5.0319,5.0534,5.1275,5.1392,5.1408,5.1374,5.1352,5.1285,5.1122,5.1042,5.0951,5.0786,5.0643,5.0485,5.0325,5.0302,5.0302,5.0302,5.0302,5.0302,5.0302,5.0302,5.0302,5.0302,5.0302,5.0302,5.0302,5.0302,5.0302,5.0302,5.0236,5.0212,5.0181,4.9512,4.9206,4.9193,4.8568,4.8306,4.8306,4.8306,4.8306,4.8306,4.8306,4.8267,4.8187,4.803,4.7847,4.7717,5.4704,5.478,5.4876,5.5121,5.5365,5.5275,5.4468,5.4477,5.3986,5.2362,5.2078,5.1738,5.0975,5.0898,5.0898,5.0898,5.0898,5.0898,5.0898,5.0898,5.0898,5.0898,5.0898,5.0898,5.0898,5.0898,5.0898,5.0898,5.0898,5.0921,5.0998,5.1005,5.1022,5.1089,5.1166,5.118,5.1187,5.1263,5.1327,5.1365,5.1386,5.1384,5.1402,5.1402,5.1398,5.1375,5.1277,5.1141,5.1043,5.1043,5.1043,5.1043,5.1043,5.1043,5.1043,5.1043,5.1043,5.1043,5.1043,5.1043,5.1043,5.1043,5.1043,5.1043,5.1043,5.0477,5.0163,5.1043,5.1219,5.1256,5.1381,5.1401,5.1372,5.1323,5.1217,5.1127,5.1097,5.0856,5.0663,5.0635,5.0464,5.0337,5.0302,5.0302,5.0302,5.0302,5.0302,5.0302,5.0302,5.0302,5.0302,5.0302,5.0302,5.0302,5.0302,5.0302,5.0302,5.0302,5.0012,4.987,4.9844,4.9177,4.8866,4.885,4.8458,4.8306,4.8306,4.8306,4.8306,4.8306,4.8306,4.8267,4.8186,4.7966,4.7822,4.7717,5.4971,5.5128,5.5281,5.5389,5.5649,5.5711,5.5345,5.5012,5.4349,5.3091,5.25,5.1873,5.0995,5.0898,5.0898,5.0898,5.0898,5.0898,5.0898,5.0898,5.0898,5.0898,5.0898,5.0898,5.0898,5.0898,5.0914,5.0956,5.0956,5.0971,5.1005,5.1029,5.1088,5.1166,5.1185,5.1218,5.1266,5.1331,5.1365,5.1406,5.1401,5.1408,5.1394,5.1394,5.1394,5.1394,5.1394,5.1394,5.1394,5.1394,5.1394,5.1394,5.1394,5.1394,5.1394,5.1394,5.1394,5.1394,5.1394,5.1394,5.1394,5.1394,5.1394,5.1394,5.1394,5.1102,5.0945,5.1316,5.1394,5.139,5.1401,5.1399,5.1358,5.1217,5.1147,5.1035,5.0848,5.068,5.0567,5.0462,5.0352,5.0302,5.0302,5.0302,5.0302,5.0302,5.0302,5.0302,5.0302,5.0302,5.0302,5.0302,5.0302,5.0302,5.0302,5.0302,5.0302,5.0302,4.9955,4.9803,4.979,4.9115,4.8799,4.8781,4.8458,4.8306,4.8306,4.8306,4.8306,4.8306,4.8306,4.8209,4.807,4.7963,4.7819,4.7717]}]]